Wetterdaten: Dienstag, 20.08.2024
Datum Zeit Temp. I. Temp. A. Feuchte I. Feuchte A. Luftdruck Regen Wind Richtung Richtung Sonnenschein Solar Taupunkt Windchill Windböen
20.08.2024 00:00 23,6 °C 13,1 °C 56 % 91 % 1018,4 hPa 0,0 l/m² 0,0 km/h (0 Bft) W-NW 302 ° 0 min 0 W/m² 11,7 °C 13,1 °C 0,0 km/h (0 Bft)
20.08.2024 00:01 23,6 °C 13,1 °C 56 % 90 % 1018,3 hPa 0,0 l/m² 0,0 km/h (0 Bft) W-NW 302 ° 0 min 0 W/m² 11,5 °C 13,1 °C 0,0 km/h (0 Bft)
20.08.2024 00:02 23,6 °C 13,1 °C 56 % 90 % 1018,4 hPa 0,0 l/m² 0,0 km/h (0 Bft) W-NW 302 ° 0 min 0 W/m² 11,5 °C 13,1 °C 0,0 km/h (0 Bft)
20.08.2024 00:03 23,6 °C 13,1 °C 56 % 90 % 1018,4 hPa 0,0 l/m² 0,0 km/h (0 Bft) W-NW 302 ° 0 min 0 W/m² 11,5 °C 13,1 °C 0,0 km/h (0 Bft)
20.08.2024 00:05 23,6 °C 13,0 °C 56 % 90 % 1018,4 hPa 0,0 l/m² 0,0 km/h (0 Bft) W-NW 302 ° 0 min 0 W/m² 11,4 °C 13,0 °C 0,0 km/h (0 Bft)
20.08.2024 00:07 23,6 °C 13,0 °C 56 % 91 % 1018,3 hPa 0,0 l/m² 0,0 km/h (0 Bft) W-NW 302 ° 0 min 0 W/m² 11,6 °C 13,0 °C 0,0 km/h (0 Bft)
20.08.2024 00:09 23,6 °C 13,1 °C 56 % 91 % 1018,4 hPa 0,0 l/m² 0,0 km/h (0 Bft) W-NW 302 ° 0 min 0 W/m² 11,7 °C 13,1 °C 0,0 km/h (0 Bft)
20.08.2024 00:11 23,6 °C 13,0 °C 56 % 91 % 1018,3 hPa 0,0 l/m² 0,0 km/h (0 Bft) W-NW 302 ° 0 min 0 W/m² 11,6 °C 13,0 °C 0,0 km/h (0 Bft)
20.08.2024 00:12 23,6 °C 13,0 °C 56 % 91 % 1018,3 hPa 0,0 l/m² 0,0 km/h (0 Bft) W-NW 302 ° 0 min 0 W/m² 11,6 °C 13,0 °C 0,0 km/h (0 Bft)
20.08.2024 00:14 23,6 °C 13,0 °C 56 % 91 % 1018,3 hPa 0,0 l/m² 0,0 km/h (0 Bft) W-NW 302 ° 0 min 0 W/m² 11,6 °C 13,0 °C 0,0 km/h (0 Bft)
20.08.2024 00:16 23,6 °C 12,9 °C 56 % 91 % 1018,3 hPa 0,0 l/m² 0,0 km/h (0 Bft) W-NW 302 ° 0 min 0 W/m² 11,5 °C 12,9 °C 0,0 km/h (0 Bft)
20.08.2024 00:18 23,6 °C 12,8 °C 56 % 91 % 1018,2 hPa 0,0 l/m² 0,0 km/h (0 Bft) W-NW 302 ° 0 min 0 W/m² 11,4 °C 12,8 °C 0,0 km/h (0 Bft)
20.08.2024 00:20 23,6 °C 12,8 °C 56 % 90 % 1018,2 hPa 0,0 l/m² 0,0 km/h (0 Bft) W-NW 302 ° 0 min 0 W/m² 11,2 °C 12,8 °C 0,0 km/h (0 Bft)
20.08.2024 00:21 23,6 °C 12,7 °C 56 % 90 % 1018,2 hPa 0,0 l/m² 0,0 km/h (0 Bft) W-NW 302 ° 0 min 0 W/m² 11,1 °C 12,7 °C 0,0 km/h (0 Bft)
20.08.2024 00:22 23,6 °C 12,7 °C 56 % 90 % 1018,2 hPa 0,0 l/m² 0,0 km/h (0 Bft) W-NW 302 ° 0 min 0 W/m² 11,1 °C 12,7 °C 0,0 km/h (0 Bft)
20.08.2024 00:23 23,6 °C 12,6 °C 56 % 90 % 1018,2 hPa 0,0 l/m² 0,0 km/h (0 Bft) W-NW 302 ° 0 min 0 W/m² 11,0 °C 12,6 °C 0,0 km/h (0 Bft)
20.08.2024 00:25 23,6 °C 12,6 °C 56 % 90 % 1018,1 hPa 0,0 l/m² 0,0 km/h (0 Bft) W-NW 302 ° 0 min 0 W/m² 11,0 °C 12,6 °C 0,0 km/h (0 Bft)
20.08.2024 00:27 23,6 °C 12,5 °C 56 % 91 % 1018,2 hPa 0,0 l/m² 0,0 km/h (0 Bft) W-NW 302 ° 0 min 0 W/m² 11,1 °C 12,5 °C 0,0 km/h (0 Bft)
20.08.2024 00:29 23,6 °C 12,5 °C 56 % 91 % 1018,2 hPa 0,0 l/m² 0,0 km/h (0 Bft) W-NW 302 ° 0 min 0 W/m² 11,1 °C 12,5 °C 0,0 km/h (0 Bft)
20.08.2024 00:30 23,6 °C 12,5 °C 56 % 91 % 1018,1 hPa 0,0 l/m² 0,0 km/h (0 Bft) W-NW 302 ° 0 min 0 W/m² 11,1 °C 12,5 °C 0,0 km/h (0 Bft)
20.08.2024 00:32 23,6 °C 12,4 °C 56 % 90 % 1018,2 hPa 0,0 l/m² 0,0 km/h (0 Bft) W-NW 302 ° 0 min 0 W/m² 10,8 °C 12,4 °C 0,0 km/h (0 Bft)
20.08.2024 00:34 23,6 °C 12,4 °C 56 % 90 % 1018,1 hPa 0,0 l/m² 0,0 km/h (0 Bft) W-NW 302 ° 0 min 0 W/m² 10,8 °C 12,4 °C 0,0 km/h (0 Bft)
20.08.2024 00:36 23,6 °C 12,4 °C 56 % 90 % 1018,2 hPa 0,0 l/m² 0,0 km/h (0 Bft) W-NW 302 ° 0 min 0 W/m² 10,8 °C 12,4 °C 0,0 km/h (0 Bft)
20.08.2024 00:38 23,6 °C 12,4 °C 56 % 90 % 1018,1 hPa 0,0 l/m² 0,0 km/h (0 Bft) W-NW 302 ° 0 min 0 W/m² 10,8 °C 12,4 °C 0,0 km/h (0 Bft)
20.08.2024 00:40 23,6 °C 12,4 °C 56 % 90 % 1018,2 hPa 0,0 l/m² 0,0 km/h (0 Bft) W-NW 302 ° 0 min 0 W/m² 10,8 °C 12,4 °C 0,0 km/h (0 Bft)
20.08.2024 00:41 23,6 °C 12,4 °C 56 % 90 % 1018,1 hPa 0,0 l/m² 0,0 km/h (0 Bft) W-NW 302 ° 0 min 0 W/m² 10,8 °C 12,4 °C 0,0 km/h (0 Bft)
20.08.2024 00:43 23,6 °C 12,5 °C 56 % 90 % 1018,2 hPa 0,0 l/m² 0,0 km/h (0 Bft) W-NW 302 ° 0 min 0 W/m² 10,9 °C 12,5 °C 0,0 km/h (0 Bft)
20.08.2024 00:45 23,6 °C 12,5 °C 56 % 90 % 1018,0 hPa 0,0 l/m² 0,0 km/h (0 Bft) W-NW 302 ° 0 min 0 W/m² 10,9 °C 12,5 °C 0,0 km/h (0 Bft)
20.08.2024 00:46 23,6 °C 12,5 °C 56 % 90 % 1018,0 hPa 0,0 l/m² 0,0 km/h (0 Bft) W-NW 302 ° 0 min 0 W/m² 10,9 °C 12,5 °C 0,0 km/h (0 Bft)
20.08.2024 00:47 23,6 °C 12,5 °C 56 % 90 % 1018,0 hPa 0,0 l/m² 0,0 km/h (0 Bft) W-NW 302 ° 0 min 0 W/m² 10,9 °C 12,5 °C 0,0 km/h (0 Bft)
20.08.2024 00:49 23,6 °C 12,5 °C 56 % 90 % 1017,9 hPa 0,0 l/m² 0,0 km/h (0 Bft) W-NW 302 ° 0 min 0 W/m² 10,9 °C 12,5 °C 0,0 km/h (0 Bft)
20.08.2024 00:51 23,6 °C 12,4 °C 56 % 90 % 1017,9 hPa 0,0 l/m² 0,0 km/h (0 Bft) W-NW 302 ° 0 min 0 W/m² 10,8 °C 12,4 °C 0,0 km/h (0 Bft)
20.08.2024 00:52 23,6 °C 12,4 °C 56 % 90 % 1018,0 hPa 0,0 l/m² 0,0 km/h (0 Bft) W-NW 302 ° 0 min 0 W/m² 10,8 °C 12,4 °C 0,0 km/h (0 Bft)
20.08.2024 00:54 23,6 °C 12,4 °C 56 % 90 % 1017,9 hPa 0,0 l/m² 0,0 km/h (0 Bft) W-NW 302 ° 0 min 0 W/m² 10,8 °C 12,4 °C 0,0 km/h (0 Bft)
20.08.2024 00:56 23,6 °C 12,3 °C 56 % 89 % 1017,9 hPa 0,0 l/m² 0,0 km/h (0 Bft) W-NW 302 ° 0 min 0 W/m² 10,5 °C 12,3 °C 0,0 km/h (0 Bft)
20.08.2024 00:58 23,6 °C 12,2 °C 56 % 90 % 1017,9 hPa 0,0 l/m² 0,0 km/h (0 Bft) W-NW 302 ° 0 min 0 W/m² 10,6 °C 12,2 °C 0,0 km/h (0 Bft)
20.08.2024 01:00 23,6 °C 12,1 °C 56 % 89 % 1017,9 hPa 0,0 l/m² 0,0 km/h (0 Bft) W-NW 302 ° 0 min 0 W/m² 10,3 °C 12,1 °C 0,0 km/h (0 Bft)
20.08.2024 01:01 23,6 °C 11,9 °C 56 % 89 % 1017,9 hPa 0,0 l/m² 0,0 km/h (0 Bft) W-NW 302 ° 0 min 0 W/m² 10,1 °C 11,9 °C 0,0 km/h (0 Bft)
20.08.2024 01:03 23,6 °C 11,9 °C 56 % 89 % 1017,9 hPa 0,0 l/m² 0,0 km/h (0 Bft) W-NW 302 ° 0 min 0 W/m² 10,1 °C 11,9 °C 0,0 km/h (0 Bft)
20.08.2024 01:05 23,6 °C 11,9 °C 56 % 90 % 1017,9 hPa 0,0 l/m² 0,0 km/h (0 Bft) W-NW 302 ° 0 min 0 W/m² 10,3 °C 11,9 °C 0,0 km/h (0 Bft)
20.08.2024 01:06 23,6 °C 12,1 °C 56 % 90 % 1017,8 hPa 0,0 l/m² 0,0 km/h (0 Bft) W-NW 302 ° 0 min 0 W/m² 10,5 °C 12,1 °C 0,0 km/h (0 Bft)
20.08.2024 01:07 23,6 °C 12,1 °C 56 % 90 % 1017,8 hPa 0,0 l/m² 0,0 km/h (0 Bft) W-NW 302 ° 0 min 0 W/m² 10,5 °C 12,1 °C 0,0 km/h (0 Bft)
20.08.2024 01:08 23,6 °C 12,1 °C 56 % 91 % 1017,8 hPa 0,0 l/m² 0,0 km/h (0 Bft) W-NW 302 ° 0 min 0 W/m² 10,7 °C 12,1 °C 0,0 km/h (0 Bft)
20.08.2024 01:09 23,6 °C 12,1 °C 56 % 91 % 1017,9 hPa 0,0 l/m² 0,0 km/h (0 Bft) W-NW 302 ° 0 min 0 W/m² 10,7 °C 12,1 °C 0,0 km/h (0 Bft)
20.08.2024 01:11 23,6 °C 12,2 °C 56 % 91 % 1017,8 hPa 0,0 l/m² 0,0 km/h (0 Bft) W-NW 302 ° 0 min 0 W/m² 10,8 °C 12,2 °C 0,0 km/h (0 Bft)
20.08.2024 01:13 23,6 °C 12,2 °C 56 % 91 % 1017,7 hPa 0,0 l/m² 0,0 km/h (0 Bft) W-NW 302 ° 0 min 0 W/m² 10,8 °C 12,2 °C 0,0 km/h (0 Bft)
20.08.2024 01:14 23,6 °C 12,2 °C 56 % 91 % 1017,7 hPa 0,0 l/m² 0,0 km/h (0 Bft) W-NW 302 ° 0 min 0 W/m² 10,8 °C 12,2 °C 0,0 km/h (0 Bft)
20.08.2024 01:15 23,6 °C 12,2 °C 56 % 91 % 1017,7 hPa 0,0 l/m² 0,0 km/h (0 Bft) W-NW 302 ° 0 min 0 W/m² 10,8 °C 12,2 °C 0,0 km/h (0 Bft)
20.08.2024 01:16 23,6 °C 12,2 °C 55 % 91 % 1017,7 hPa 0,0 l/m² 0,0 km/h (0 Bft) W-NW 302 ° 0 min 0 W/m² 10,8 °C 12,2 °C 0,0 km/h (0 Bft)
20.08.2024 01:17 23,6 °C 12,2 °C 55 % 91 % 1017,7 hPa 0,0 l/m² 0,0 km/h (0 Bft) W-NW 302 ° 0 min 0 W/m² 10,8 °C 12,2 °C 0,0 km/h (0 Bft)
20.08.2024 01:18 23,6 °C 12,2 °C 55 % 91 % 1017,7 hPa 0,0 l/m² 0,0 km/h (0 Bft) W-NW 302 ° 0 min 0 W/m² 10,8 °C 12,2 °C 0,0 km/h (0 Bft)
20.08.2024 01:19 23,6 °C 12,2 °C 55 % 91 % 1017,7 hPa 0,0 l/m² 0,0 km/h (0 Bft) W-NW 302 ° 0 min 0 W/m² 10,8 °C 12,2 °C 0,0 km/h (0 Bft)
20.08.2024 01:21 23,6 °C 12,2 °C 55 % 91 % 1017,6 hPa 0,0 l/m² 0,0 km/h (0 Bft) W-NW 302 ° 0 min 0 W/m² 10,8 °C 12,2 °C 0,0 km/h (0 Bft)
20.08.2024 01:23 23,6 °C 12,1 °C 55 % 90 % 1017,6 hPa 0,0 l/m² 0,0 km/h (0 Bft) W-NW 302 ° 0 min 0 W/m² 10,5 °C 12,1 °C 0,0 km/h (0 Bft)
20.08.2024 01:24 23,6 °C 12,1 °C 55 % 90 % 1017,7 hPa 0,0 l/m² 0,0 km/h (0 Bft) W-NW 302 ° 0 min 0 W/m² 10,5 °C 12,1 °C 0,0 km/h (0 Bft)
20.08.2024 01:25 23,6 °C 12,1 °C 55 % 91 % 1017,6 hPa 0,0 l/m² 0,0 km/h (0 Bft) W-NW 302 ° 0 min 0 W/m² 10,7 °C 12,1 °C 0,0 km/h (0 Bft)
20.08.2024 01:26 23,6 °C 12,1 °C 55 % 91 % 1017,6 hPa 0,0 l/m² 0,0 km/h (0 Bft) W-NW 302 ° 0 min 0 W/m² 10,7 °C 12,1 °C 0,0 km/h (0 Bft)
20.08.2024 01:27 23,6 °C 12,1 °C 55 % 91 % 1017,6 hPa 0,0 l/m² 0,0 km/h (0 Bft) W-NW 302 ° 0 min 0 W/m² 10,7 °C 12,1 °C 0,0 km/h (0 Bft)
20.08.2024 01:28 23,6 °C 12,2 °C 55 % 91 % 1017,6 hPa 0,0 l/m² 0,0 km/h (0 Bft) W-NW 302 ° 0 min 0 W/m² 10,8 °C 12,2 °C 0,0 km/h (0 Bft)
20.08.2024 01:29 23,6 °C 12,2 °C 55 % 91 % 1017,5 hPa 0,0 l/m² 0,0 km/h (0 Bft) W-NW 302 ° 0 min 0 W/m² 10,8 °C 12,2 °C 0,0 km/h (0 Bft)
20.08.2024 01:30 23,6 °C 12,2 °C 55 % 91 % 1017,6 hPa 0,0 l/m² 0,0 km/h (0 Bft) W-NW 302 ° 0 min 0 W/m² 10,8 °C 12,2 °C 0,0 km/h (0 Bft)
20.08.2024 01:32 23,6 °C 12,2 °C 55 % 91 % 1017,5 hPa 0,0 l/m² 0,0 km/h (0 Bft) W-NW 302 ° 0 min 0 W/m² 10,8 °C 12,2 °C 0,0 km/h (0 Bft)
20.08.2024 01:34 23,6 °C 12,2 °C 55 % 91 % 1017,6 hPa 0,0 l/m² 1,1 km/h (1 Bft) W-NW 302 ° 0 min 0 W/m² 10,8 °C 12,2 °C 3,2 km/h (1 Bft)
20.08.2024 01:35 23,6 °C 12,1 °C 55 % 91 % 1017,6 hPa 0,0 l/m² 3,7 km/h (1 Bft) N-NW 333 ° 0 min 0 W/m² 10,7 °C 12,1 °C 4,8 km/h (1 Bft)
20.08.2024 01:36 23,6 °C 12,1 °C 55 % 91 % 1017,6 hPa 0,0 l/m² 1,7 km/h (1 Bft) N-NW 341 ° 0 min 0 W/m² 10,7 °C 12,1 °C 4,8 km/h (1 Bft)
20.08.2024 01:37 23,6 °C 12,1 °C 55 % 91 % 1017,6 hPa 0,0 l/m² 1,5 km/h (1 Bft) N-NW 341 ° 0 min 0 W/m² 10,7 °C 12,1 °C 3,2 km/h (1 Bft)
20.08.2024 01:38 23,6 °C 12,1 °C 55 % 91 % 1017,6 hPa 0,0 l/m² 2,8 km/h (1 Bft) N-NW 342 ° 0 min 0 W/m² 10,7 °C 12,1 °C 4,8 km/h (1 Bft)
20.08.2024 01:39 23,6 °C 12,2 °C 55 % 91 % 1017,5 hPa 0,0 l/m² 3,4 km/h (1 Bft) N-NW 342 ° 0 min 0 W/m² 10,8 °C 12,2 °C 4,8 km/h (1 Bft)
20.08.2024 01:40 23,6 °C 12,2 °C 55 % 91 % 1017,5 hPa 0,0 l/m² 2,3 km/h (1 Bft) N-NW 342 ° 0 min 0 W/m² 10,8 °C 12,2 °C 4,8 km/h (1 Bft)
20.08.2024 01:42 23,6 °C 12,2 °C 55 % 91 % 1017,5 hPa 0,0 l/m² 1,0 km/h (0 Bft) N-NW 342 ° 0 min 0 W/m² 10,8 °C 12,2 °C 3,2 km/h (1 Bft)
20.08.2024 01:44 23,6 °C 12,2 °C 55 % 92 % 1017,5 hPa 0,0 l/m² 0,0 km/h (0 Bft) N-NW 342 ° 0 min 0 W/m² 10,9 °C 12,2 °C 0,0 km/h (0 Bft)
20.08.2024 01:45 23,5 °C 12,1 °C 55 % 92 % 1017,5 hPa 0,0 l/m² 0,0 km/h (0 Bft) N-NW 342 ° 0 min 0 W/m² 10,8 °C 12,1 °C 0,0 km/h (0 Bft)
20.08.2024 01:46 23,6 °C 12,1 °C 55 % 92 % 1017,6 hPa 0,0 l/m² 0,0 km/h (0 Bft) N-NW 342 ° 0 min 0 W/m² 10,8 °C 12,1 °C 0,0 km/h (0 Bft)
20.08.2024 01:47 23,6 °C 12,1 °C 55 % 92 % 1017,6 hPa 0,0 l/m² 0,0 km/h (0 Bft) N-NW 342 ° 0 min 0 W/m² 10,8 °C 12,1 °C 0,0 km/h (0 Bft)
20.08.2024 01:48 23,6 °C 12,1 °C 55 % 92 % 1017,6 hPa 0,0 l/m² 0,0 km/h (0 Bft) N-NW 342 ° 0 min 0 W/m² 10,8 °C 12,1 °C 0,0 km/h (0 Bft)
20.08.2024 01:49 23,5 °C 12,1 °C 55 % 92 % 1017,6 hPa 0,0 l/m² 0,0 km/h (0 Bft) N-NW 342 ° 0 min 0 W/m² 10,8 °C 12,1 °C 0,0 km/h (0 Bft)
20.08.2024 01:51 23,6 °C 12,0 °C 55 % 92 % 1017,6 hPa 0,0 l/m² 0,3 km/h (0 Bft) N-NW 342 ° 0 min 0 W/m² 10,7 °C 12,0 °C 1,6 km/h (1 Bft)
20.08.2024 01:53 23,6 °C 11,9 °C 55 % 92 % 1017,6 hPa 0,0 l/m² 0,0 km/h (0 Bft) N-NW 342 ° 0 min 0 W/m² 10,6 °C 11,9 °C 0,0 km/h (0 Bft)
20.08.2024 01:54 23,5 °C 11,8 °C 55 % 92 % 1017,5 hPa 0,0 l/m² 0,0 km/h (0 Bft) N-NW 342 ° 0 min 0 W/m² 10,5 °C 11,8 °C 0,0 km/h (0 Bft)
20.08.2024 01:55 23,5 °C 11,8 °C 55 % 92 % 1017,6 hPa 0,0 l/m² 0,0 km/h (0 Bft) N-NW 342 ° 0 min 0 W/m² 10,5 °C 11,8 °C 0,0 km/h (0 Bft)
20.08.2024 01:56 23,5 °C 11,7 °C 55 % 91 % 1017,6 hPa 0,0 l/m² 0,0 km/h (0 Bft) N-NW 342 ° 0 min 0 W/m² 10,3 °C 11,7 °C 0,0 km/h (0 Bft)
20.08.2024 01:57 23,6 °C 11,7 °C 55 % 91 % 1017,6 hPa 0,0 l/m² 0,0 km/h (0 Bft) N-NW 342 ° 0 min 0 W/m² 10,3 °C 11,7 °C 0,0 km/h (0 Bft)
20.08.2024 01:58 23,5 °C 11,7 °C 55 % 91 % 1017,5 hPa 0,0 l/m² 0,0 km/h (0 Bft) N-NW 342 ° 0 min 0 W/m² 10,3 °C 11,7 °C 0,0 km/h (0 Bft)
20.08.2024 01:59 23,5 °C 11,7 °C 55 % 92 % 1017,5 hPa 0,0 l/m² 0,0 km/h (0 Bft) N-NW 342 ° 0 min 0 W/m² 10,4 °C 11,7 °C 0,0 km/h (0 Bft)
20.08.2024 02:00 23,5 °C 11,6 °C 55 % 91 % 1017,5 hPa 0,0 l/m² 0,0 km/h (0 Bft) N-NW 342 ° 0 min 0 W/m² 10,2 °C 11,6 °C 0,0 km/h (0 Bft)
20.08.2024 02:02 23,5 °C 11,7 °C 55 % 92 % 1017,5 hPa 0,0 l/m² 0,0 km/h (0 Bft) N-NW 342 ° 0 min 0 W/m² 10,4 °C 11,7 °C 0,0 km/h (0 Bft)
20.08.2024 02:04 23,5 °C 11,6 °C 55 % 92 % 1017,5 hPa 0,0 l/m² 0,0 km/h (0 Bft) N-NW 342 ° 0 min 0 W/m² 10,3 °C 11,6 °C 0,0 km/h (0 Bft)
20.08.2024 02:05 23,6 °C 11,6 °C 55 % 92 % 1017,4 hPa 0,0 l/m² 0,0 km/h (0 Bft) N-NW 342 ° 0 min 0 W/m² 10,3 °C 11,6 °C 0,0 km/h (0 Bft)
20.08.2024 02:06 23,5 °C 11,6 °C 55 % 92 % 1017,4 hPa 0,0 l/m² 0,0 km/h (0 Bft) N-NW 342 ° 0 min 0 W/m² 10,3 °C 11,6 °C 0,0 km/h (0 Bft)
20.08.2024 02:07 23,5 °C 11,7 °C 55 % 92 % 1017,4 hPa 0,0 l/m² 0,0 km/h (0 Bft) N-NW 342 ° 0 min 0 W/m² 10,4 °C 11,7 °C 0,0 km/h (0 Bft)
20.08.2024 02:08 23,5 °C 11,7 °C 55 % 92 % 1017,4 hPa 0,0 l/m² 0,0 km/h (0 Bft) N-NW 342 ° 0 min 0 W/m² 10,4 °C 11,7 °C 0,0 km/h (0 Bft)
20.08.2024 02:09 23,5 °C 11,7 °C 55 % 92 % 1017,4 hPa 0,0 l/m² 0,0 km/h (0 Bft) N-NW 342 ° 0 min 0 W/m² 10,4 °C 11,7 °C 0,0 km/h (0 Bft)
20.08.2024 02:10 23,5 °C 11,7 °C 55 % 92 % 1017,4 hPa 0,0 l/m² 0,0 km/h (0 Bft) N-NW 342 ° 0 min 0 W/m² 10,4 °C 11,7 °C 0,0 km/h (0 Bft)
20.08.2024 02:12 23,5 °C 11,7 °C 55 % 92 % 1017,4 hPa 0,0 l/m² 0,0 km/h (0 Bft) N-NW 342 ° 0 min 0 W/m² 10,4 °C 11,7 °C 0,0 km/h (0 Bft)
20.08.2024 02:14 23,5 °C 11,7 °C 55 % 92 % 1017,4 hPa 0,0 l/m² 0,0 km/h (0 Bft) N-NW 342 ° 0 min 0 W/m² 10,4 °C 11,7 °C 0,0 km/h (0 Bft)
20.08.2024 02:15 23,5 °C 11,7 °C 55 % 92 % 1017,4 hPa 0,0 l/m² 0,0 km/h (0 Bft) N-NW 342 ° 0 min 0 W/m² 10,4 °C 11,7 °C 0,0 km/h (0 Bft)
20.08.2024 02:16 23,4 °C 11,7 °C 55 % 92 % 1017,4 hPa 0,0 l/m² 0,0 km/h (0 Bft) N-NW 342 ° 0 min 0 W/m² 10,4 °C 11,7 °C 0,0 km/h (0 Bft)
20.08.2024 02:17 23,5 °C 11,7 °C 55 % 92 % 1017,4 hPa 0,0 l/m² 0,0 km/h (0 Bft) N-NW 342 ° 0 min 0 W/m² 10,4 °C 11,7 °C 0,0 km/h (0 Bft)
20.08.2024 02:18 23,5 °C 11,6 °C 55 % 92 % 1017,4 hPa 0,0 l/m² 0,0 km/h (0 Bft) N-NW 342 ° 0 min 0 W/m² 10,3 °C 11,6 °C 0,0 km/h (0 Bft)
20.08.2024 02:19 23,4 °C 11,7 °C 55 % 92 % 1017,4 hPa 0,0 l/m² 0,0 km/h (0 Bft) N-NW 342 ° 0 min 0 W/m² 10,4 °C 11,7 °C 0,0 km/h (0 Bft)
20.08.2024 02:20 23,5 °C 11,6 °C 55 % 92 % 1017,4 hPa 0,0 l/m² 0,0 km/h (0 Bft) N-NW 342 ° 0 min 0 W/m² 10,3 °C 11,6 °C 0,0 km/h (0 Bft)
20.08.2024 02:22 23,4 °C 11,6 °C 55 % 92 % 1017,4 hPa 0,0 l/m² 0,0 km/h (0 Bft) N-NW 342 ° 0 min 0 W/m² 10,3 °C 11,6 °C 0,0 km/h (0 Bft)
20.08.2024 02:24 23,4 °C 11,7 °C 55 % 92 % 1017,5 hPa 0,0 l/m² 0,0 km/h (0 Bft) N-NW 342 ° 0 min 0 W/m² 10,4 °C 11,7 °C 0,0 km/h (0 Bft)
20.08.2024 02:25 23,4 °C 11,7 °C 55 % 92 % 1017,4 hPa 0,0 l/m² 0,0 km/h (0 Bft) N-NW 342 ° 0 min 0 W/m² 10,4 °C 11,7 °C 0,0 km/h (0 Bft)
20.08.2024 02:26 23,5 °C 11,7 °C 55 % 92 % 1017,7 hPa 0,0 l/m² 0,0 km/h (0 Bft) N-NW 342 ° 0 min 0 W/m² 10,4 °C 11,7 °C 0,0 km/h (0 Bft)
20.08.2024 02:27 23,4 °C 11,7 °C 55 % 92 % 1017,4 hPa 0,0 l/m² 0,0 km/h (0 Bft) N-NW 342 ° 0 min 0 W/m² 10,4 °C 11,7 °C 0,0 km/h (0 Bft)
20.08.2024 02:28 23,4 °C 11,7 °C 55 % 92 % 1017,4 hPa 0,0 l/m² 0,0 km/h (0 Bft) N-NW 342 ° 0 min 0 W/m² 10,4 °C 11,7 °C 0,0 km/h (0 Bft)
20.08.2024 02:29 23,5 °C 11,6 °C 55 % 92 % 1017,4 hPa 0,0 l/m² 0,0 km/h (0 Bft) N-NW 342 ° 0 min 0 W/m² 10,3 °C 11,6 °C 0,0 km/h (0 Bft)
20.08.2024 02:30 23,5 °C 11,6 °C 55 % 92 % 1017,4 hPa 0,0 l/m² 0,0 km/h (0 Bft) N-NW 342 ° 0 min 0 W/m² 10,3 °C 11,6 °C 0,0 km/h (0 Bft)
20.08.2024 02:32 23,5 °C 11,6 °C 55 % 92 % 1017,5 hPa 0,0 l/m² 0,0 km/h (0 Bft) N-NW 342 ° 0 min 0 W/m² 10,3 °C 11,6 °C 0,0 km/h (0 Bft)
20.08.2024 02:34 23,4 °C 11,6 °C 55 % 92 % 1017,4 hPa 0,0 l/m² 0,0 km/h (0 Bft) N-NW 342 ° 0 min 0 W/m² 10,3 °C 11,6 °C 0,0 km/h (0 Bft)
20.08.2024 02:35 23,4 °C 11,6 °C 55 % 92 % 1017,5 hPa 0,0 l/m² 0,0 km/h (0 Bft) N-NW 342 ° 0 min 0 W/m² 10,3 °C 11,6 °C 0,0 km/h (0 Bft)
20.08.2024 02:36 23,4 °C 11,6 °C 55 % 92 % 1017,5 hPa 0,0 l/m² 0,0 km/h (0 Bft) N-NW 342 ° 0 min 0 W/m² 10,3 °C 11,6 °C 0,0 km/h (0 Bft)
20.08.2024 02:37 23,4 °C 11,6 °C 55 % 92 % 1017,3 hPa 0,0 l/m² 0,0 km/h (0 Bft) N-NW 342 ° 0 min 0 W/m² 10,3 °C 11,6 °C 0,0 km/h (0 Bft)
20.08.2024 02:38 23,5 °C 11,6 °C 55 % 92 % 1017,5 hPa 0,0 l/m² 0,0 km/h (0 Bft) N-NW 342 ° 0 min 0 W/m² 10,3 °C 11,6 °C 0,0 km/h (0 Bft)
20.08.2024 02:39 23,4 °C 11,6 °C 55 % 92 % 1017,4 hPa 0,0 l/m² 0,0 km/h (0 Bft) N-NW 342 ° 0 min 0 W/m² 10,3 °C 11,6 °C 0,0 km/h (0 Bft)
20.08.2024 02:40 23,4 °C 11,6 °C 55 % 92 % 1017,4 hPa 0,0 l/m² 0,0 km/h (0 Bft) N-NW 342 ° 0 min 0 W/m² 10,3 °C 11,6 °C 0,0 km/h (0 Bft)
20.08.2024 02:42 23,4 °C 11,6 °C 55 % 92 % 1017,4 hPa 0,0 l/m² 0,0 km/h (0 Bft) N-NW 342 ° 0 min 0 W/m² 10,3 °C 11,6 °C 0,0 km/h (0 Bft)
20.08.2024 02:44 23,4 °C 11,6 °C 55 % 92 % 1017,4 hPa 0,0 l/m² 0,0 km/h (0 Bft) N-NW 342 ° 0 min 0 W/m² 10,3 °C 11,6 °C 0,0 km/h (0 Bft)
20.08.2024 02:45 23,4 °C 11,5 °C 55 % 92 % 1017,3 hPa 0,0 l/m² 0,0 km/h (0 Bft) N-NW 342 ° 0 min 0 W/m² 10,2 °C 11,5 °C 0,0 km/h (0 Bft)
20.08.2024 02:46 23,4 °C 11,6 °C 55 % 92 % 1017,3 hPa 0,0 l/m² 0,0 km/h (0 Bft) N-NW 342 ° 0 min 0 W/m² 10,3 °C 11,6 °C 0,0 km/h (0 Bft)
20.08.2024 02:47 23,4 °C 11,5 °C 55 % 92 % 1017,4 hPa 0,0 l/m² 0,0 km/h (0 Bft) N-NW 342 ° 0 min 0 W/m² 10,2 °C 11,5 °C 0,0 km/h (0 Bft)
20.08.2024 02:48 23,4 °C 11,4 °C 55 % 92 % 1017,3 hPa 0,0 l/m² 0,0 km/h (0 Bft) N-NW 342 ° 0 min 0 W/m² 10,1 °C 11,4 °C 0,0 km/h (0 Bft)
20.08.2024 02:49 23,4 °C 11,4 °C 55 % 92 % 1017,3 hPa 0,0 l/m² 0,0 km/h (0 Bft) N-NW 342 ° 0 min 0 W/m² 10,1 °C 11,4 °C 0,0 km/h (0 Bft)
20.08.2024 02:50 23,4 °C 11,4 °C 55 % 92 % 1017,4 hPa 0,0 l/m² 0,0 km/h (0 Bft) N-NW 342 ° 0 min 0 W/m² 10,1 °C 11,4 °C 0,0 km/h (0 Bft)
20.08.2024 02:52 23,4 °C 11,4 °C 55 % 92 % 1017,4 hPa 0,0 l/m² 0,0 km/h (0 Bft) N-NW 342 ° 0 min 0 W/m² 10,1 °C 11,4 °C 0,0 km/h (0 Bft)
20.08.2024 02:54 23,4 °C 11,4 °C 55 % 92 % 1017,2 hPa 0,0 l/m² 0,0 km/h (0 Bft) N-NW 342 ° 0 min 0 W/m² 10,1 °C 11,4 °C 0,0 km/h (0 Bft)
20.08.2024 02:55 23,4 °C 11,4 °C 55 % 92 % 1017,3 hPa 0,0 l/m² 0,0 km/h (0 Bft) N-NW 342 ° 0 min 0 W/m² 10,1 °C 11,4 °C 0,0 km/h (0 Bft)
20.08.2024 02:56 23,4 °C 11,3 °C 55 % 92 % 1017,3 hPa 0,0 l/m² 0,0 km/h (0 Bft) N-NW 342 ° 0 min 0 W/m² 10,0 °C 11,3 °C 0,0 km/h (0 Bft)
20.08.2024 02:57 23,4 °C 11,4 °C 55 % 93 % 1017,3 hPa 0,0 l/m² 0,0 km/h (0 Bft) N-NW 342 ° 0 min 0 W/m² 10,3 °C 11,4 °C 0,0 km/h (0 Bft)
20.08.2024 02:58 23,4 °C 11,4 °C 55 % 93 % 1017,3 hPa 0,0 l/m² 0,0 km/h (0 Bft) N-NW 342 ° 0 min 0 W/m² 10,3 °C 11,4 °C 0,0 km/h (0 Bft)
20.08.2024 02:59 23,4 °C 11,4 °C 55 % 92 % 1017,2 hPa 0,0 l/m² 0,0 km/h (0 Bft) N-NW 342 ° 0 min 0 W/m² 10,1 °C 11,4 °C 0,0 km/h (0 Bft)
20.08.2024 03:00 23,4 °C 11,4 °C 55 % 92 % 1017,2 hPa 0,0 l/m² 0,0 km/h (0 Bft) N-NW 342 ° 0 min 0 W/m² 10,1 °C 11,4 °C 0,0 km/h (0 Bft)
20.08.2024 03:01 23,4 °C 11,4 °C 55 % 92 % 1017,3 hPa 0,0 l/m² 0,0 km/h (0 Bft) N 0 ° 0 min 0 W/m² 10,1 °C 11,4 °C 0,0 km/h (0 Bft)
20.08.2024 03:07 23,4 °C 11,4 °C 55 % 93 % 1017,2 hPa 0,0 l/m² 0,0 km/h (0 Bft) N-NW 342 ° 0 min 0 W/m² 10,3 °C 11,4 °C 0,0 km/h (0 Bft)
20.08.2024 03:08 23,4 °C 11,5 °C 55 % 92 % 1017,2 hPa 0,0 l/m² 0,0 km/h (0 Bft) N-NW 342 ° 0 min 0 W/m² 10,2 °C 11,5 °C 0,0 km/h (0 Bft)
20.08.2024 03:09 23,4 °C 11,5 °C 55 % 92 % 1017,2 hPa 0,0 l/m² 0,0 km/h (0 Bft) N-NW 342 ° 0 min 0 W/m² 10,2 °C 11,5 °C 0,0 km/h (0 Bft)
20.08.2024 03:10 23,4 °C 11,5 °C 55 % 92 % 1017,2 hPa 0,0 l/m² 0,0 km/h (0 Bft) N-NW 342 ° 0 min 0 W/m² 10,2 °C 11,5 °C 0,0 km/h (0 Bft)
20.08.2024 03:12 23,4 °C 11,6 °C 55 % 92 % 1017,2 hPa 0,0 l/m² 0,0 km/h (0 Bft) N-NW 342 ° 0 min 0 W/m² 10,3 °C 11,6 °C 0,0 km/h (0 Bft)
20.08.2024 03:13 23,4 °C 11,6 °C 55 % 92 % 1017,2 hPa 0,0 l/m² 0,0 km/h (0 Bft) N-NW 342 ° 0 min 0 W/m² 10,3 °C 11,6 °C 0,0 km/h (0 Bft)
20.08.2024 03:15 23,4 °C 11,5 °C 55 % 92 % 1017,3 hPa 0,0 l/m² 0,0 km/h (0 Bft) N-NW 342 ° 0 min 0 W/m² 10,2 °C 11,5 °C 0,0 km/h (0 Bft)
20.08.2024 03:17 23,4 °C 11,4 °C 55 % 92 % 1017,3 hPa 0,0 l/m² 0,1 km/h (0 Bft) N-NW 342 ° 0 min 0 W/m² 10,1 °C 11,4 °C 1,6 km/h (1 Bft)
20.08.2024 03:19 23,4 °C 11,4 °C 55 % 92 % 1017,3 hPa 0,0 l/m² 0,1 km/h (0 Bft) N-NW 342 ° 0 min 0 W/m² 10,1 °C 11,4 °C 1,6 km/h (1 Bft)
20.08.2024 03:20 23,4 °C 11,3 °C 55 % 92 % 1017,3 hPa 0,0 l/m² 0,1 km/h (0 Bft) N-NW 342 ° 0 min 0 W/m² 10,0 °C 11,3 °C 1,6 km/h (1 Bft)
20.08.2024 03:22 23,4 °C 11,3 °C 55 % 92 % 1017,4 hPa 0,0 l/m² 0,1 km/h (0 Bft) N-NW 342 ° 0 min 0 W/m² 10,0 °C 11,3 °C 1,6 km/h (1 Bft)
20.08.2024 03:23 23,4 °C 11,3 °C 55 % 92 % 1017,4 hPa 0,0 l/m² 0,0 km/h (0 Bft) N-NW 342 ° 0 min 0 W/m² 10,0 °C 11,3 °C 0,0 km/h (0 Bft)
20.08.2024 03:25 23,4 °C 11,3 °C 55 % 92 % 1017,4 hPa 0,0 l/m² 0,0 km/h (0 Bft) N-NW 342 ° 0 min 0 W/m² 10,0 °C 11,3 °C 0,0 km/h (0 Bft)
20.08.2024 03:27 23,4 °C 11,3 °C 55 % 92 % 1017,3 hPa 0,0 l/m² 0,0 km/h (0 Bft) N-NW 342 ° 0 min 0 W/m² 10,0 °C 11,3 °C 0,0 km/h (0 Bft)
20.08.2024 03:29 23,4 °C 11,2 °C 55 % 92 % 1017,4 hPa 0,0 l/m² 0,1 km/h (0 Bft) N-NW 342 ° 0 min 0 W/m² 9,9 °C 11,2 °C 1,6 km/h (1 Bft)
20.08.2024 03:30 23,4 °C 11,2 °C 55 % 92 % 1017,3 hPa 0,0 l/m² 0,2 km/h (0 Bft) N-NW 342 ° 0 min 0 W/m² 9,9 °C 11,2 °C 1,6 km/h (1 Bft)
20.08.2024 03:32 23,4 °C 11,1 °C 55 % 92 % 1017,4 hPa 0,0 l/m² 0,0 km/h (0 Bft) N-NW 342 ° 0 min 0 W/m² 9,8 °C 11,1 °C 0,0 km/h (0 Bft)
20.08.2024 03:34 23,4 °C 11,0 °C 55 % 92 % 1017,3 hPa 0,0 l/m² 0,0 km/h (0 Bft) N-NW 342 ° 0 min 0 W/m² 9,8 °C 11,0 °C 0,0 km/h (0 Bft)
20.08.2024 03:36 23,4 °C 10,9 °C 55 % 92 % 1017,3 hPa 0,0 l/m² 0,0 km/h (0 Bft) N-NW 342 ° 0 min 0 W/m² 9,7 °C 10,9 °C 0,0 km/h (0 Bft)
20.08.2024 03:38 23,4 °C 10,9 °C 55 % 92 % 1017,2 hPa 0,0 l/m² 0,0 km/h (0 Bft) N-NW 342 ° 0 min 0 W/m² 9,7 °C 10,9 °C 0,0 km/h (0 Bft)
20.08.2024 03:40 23,4 °C 10,9 °C 55 % 92 % 1017,2 hPa 0,0 l/m² 0,1 km/h (0 Bft) N-NW 342 ° 0 min 0 W/m² 9,7 °C 10,9 °C 1,6 km/h (1 Bft)
20.08.2024 03:41 23,4 °C 11,0 °C 55 % 92 % 1017,2 hPa 0,0 l/m² 0,1 km/h (0 Bft) N-NW 342 ° 0 min 0 W/m² 9,8 °C 11,0 °C 1,6 km/h (1 Bft)
20.08.2024 03:42 23,4 °C 11,0 °C 55 % 92 % 1017,2 hPa 0,0 l/m² 0,0 km/h (0 Bft) N-NW 342 ° 0 min 0 W/m² 9,8 °C 11,0 °C 0,0 km/h (0 Bft)
20.08.2024 03:43 23,4 °C 11,0 °C 55 % 92 % 1017,1 hPa 0,0 l/m² 1,1 km/h (1 Bft) N-NW 336 ° 0 min 0 W/m² 9,8 °C 11,0 °C 3,2 km/h (1 Bft)
20.08.2024 03:45 23,4 °C 11,0 °C 55 % 92 % 1017,2 hPa 0,0 l/m² 1,7 km/h (1 Bft) NW 323 ° 0 min 0 W/m² 9,8 °C 11,0 °C 3,2 km/h (1 Bft)
20.08.2024 03:47 23,4 °C 10,9 °C 55 % 92 % 1017,0 hPa 0,0 l/m² 0,1 km/h (0 Bft) NW 323 ° 0 min 0 W/m² 9,7 °C 10,9 °C 1,6 km/h (1 Bft)
20.08.2024 03:48 23,3 °C 10,9 °C 55 % 92 % 1017,0 hPa 0,0 l/m² 0,0 km/h (0 Bft) NW 323 ° 0 min 0 W/m² 9,7 °C 10,9 °C 0,0 km/h (0 Bft)
20.08.2024 03:50 23,4 °C 10,9 °C 55 % 92 % 1017,0 hPa 0,0 l/m² 0,0 km/h (0 Bft) NW 323 ° 0 min 0 W/m² 9,7 °C 10,9 °C 0,0 km/h (0 Bft)
20.08.2024 03:51 23,3 °C 10,9 °C 55 % 92 % 1016,9 hPa 0,0 l/m² 0,0 km/h (0 Bft) NW 323 ° 0 min 0 W/m² 9,7 °C 10,9 °C 0,0 km/h (0 Bft)
20.08.2024 03:52 23,3 °C 10,9 °C 55 % 92 % 1016,9 hPa 0,0 l/m² 0,0 km/h (0 Bft) NW 323 ° 0 min 0 W/m² 9,7 °C 10,9 °C 0,0 km/h (0 Bft)
20.08.2024 03:53 23,3 °C 10,9 °C 55 % 92 % 1017,0 hPa 0,0 l/m² 0,0 km/h (0 Bft) NW 323 ° 0 min 0 W/m² 9,7 °C 10,9 °C 0,0 km/h (0 Bft)
20.08.2024 03:55 23,3 °C 10,9 °C 55 % 92 % 1016,9 hPa 0,0 l/m² 0,0 km/h (0 Bft) NW 323 ° 0 min 0 W/m² 9,7 °C 10,9 °C 0,0 km/h (0 Bft)
20.08.2024 03:57 23,3 °C 10,9 °C 55 % 92 % 1016,9 hPa 0,0 l/m² 0,0 km/h (0 Bft) NW 323 ° 0 min 0 W/m² 9,7 °C 10,9 °C 0,0 km/h (0 Bft)
20.08.2024 03:59 23,3 °C 10,9 °C 55 % 92 % 1016,9 hPa 0,0 l/m² 0,0 km/h (0 Bft) NW 323 ° 0 min 0 W/m² 9,7 °C 10,9 °C 0,0 km/h (0 Bft)
20.08.2024 04:00 23,3 °C 10,9 °C 55 % 93 % 1016,9 hPa 0,0 l/m² 0,0 km/h (0 Bft) NW 323 ° 0 min 0 W/m² 9,8 °C 10,9 °C 0,0 km/h (0 Bft)
20.08.2024 04:02 23,3 °C 10,9 °C 54 % 92 % 1016,9 hPa 0,0 l/m² 0,0 km/h (0 Bft) NW 323 ° 0 min 0 W/m² 9,7 °C 10,9 °C 0,0 km/h (0 Bft)
20.08.2024 04:04 23,3 °C 10,8 °C 54 % 92 % 1016,9 hPa 0,0 l/m² 0,0 km/h (0 Bft) NW 323 ° 0 min 0 W/m² 9,6 °C 10,8 °C 0,0 km/h (0 Bft)
20.08.2024 04:06 23,3 °C 10,8 °C 55 % 92 % 1016,9 hPa 0,0 l/m² 0,0 km/h (0 Bft) NW 323 ° 0 min 0 W/m² 9,6 °C 10,8 °C 0,0 km/h (0 Bft)
20.08.2024 04:08 23,4 °C 10,8 °C 55 % 93 % 1016,9 hPa 0,0 l/m² 0,0 km/h (0 Bft) NW 323 ° 0 min 0 W/m² 9,7 °C 10,8 °C 0,0 km/h (0 Bft)
20.08.2024 04:10 23,3 °C 10,8 °C 54 % 93 % 1016,9 hPa 0,0 l/m² 0,0 km/h (0 Bft) NW 323 ° 0 min 0 W/m² 9,7 °C 10,8 °C 0,0 km/h (0 Bft)
20.08.2024 04:11 23,3 °C 10,9 °C 54 % 93 % 1016,8 hPa 0,0 l/m² 0,0 km/h (0 Bft) NW 323 ° 0 min 0 W/m² 9,8 °C 10,9 °C 0,0 km/h (0 Bft)
20.08.2024 04:12 23,3 °C 10,9 °C 54 % 93 % 1016,8 hPa 0,0 l/m² 0,0 km/h (0 Bft) NW 323 ° 0 min 0 W/m² 9,8 °C 10,9 °C 0,0 km/h (0 Bft)
20.08.2024 04:13 23,3 °C 10,9 °C 54 % 93 % 1016,8 hPa 0,0 l/m² 0,0 km/h (0 Bft) NW 323 ° 0 min 0 W/m² 9,8 °C 10,9 °C 0,0 km/h (0 Bft)
20.08.2024 04:15 23,3 °C 10,9 °C 54 % 93 % 1016,8 hPa 0,0 l/m² 0,0 km/h (0 Bft) NW 323 ° 0 min 0 W/m² 9,8 °C 10,9 °C 0,0 km/h (0 Bft)
20.08.2024 04:17 23,3 °C 10,9 °C 54 % 93 % 1016,7 hPa 0,0 l/m² 0,0 km/h (0 Bft) NW 323 ° 0 min 0 W/m² 9,8 °C 10,9 °C 0,0 km/h (0 Bft)
20.08.2024 04:19 23,3 °C 10,9 °C 54 % 93 % 1016,7 hPa 0,0 l/m² 0,0 km/h (0 Bft) NW 323 ° 0 min 0 W/m² 9,8 °C 10,9 °C 0,0 km/h (0 Bft)
20.08.2024 04:20 23,3 °C 10,9 °C 54 % 93 % 1016,7 hPa 0,0 l/m² 0,0 km/h (0 Bft) NW 323 ° 0 min 0 W/m² 9,8 °C 10,9 °C 0,0 km/h (0 Bft)
20.08.2024 04:21 23,3 °C 10,9 °C 54 % 93 % 1016,7 hPa 0,0 l/m² 0,0 km/h (0 Bft) NW 323 ° 0 min 0 W/m² 9,8 °C 10,9 °C 0,0 km/h (0 Bft)
20.08.2024 04:22 23,3 °C 10,9 °C 54 % 92 % 1016,8 hPa 0,0 l/m² 0,0 km/h (0 Bft) NW 323 ° 0 min 0 W/m² 9,7 °C 10,9 °C 0,0 km/h (0 Bft)
20.08.2024 04:24 23,3 °C 10,9 °C 54 % 92 % 1016,8 hPa 0,0 l/m² 0,0 km/h (0 Bft) NW 323 ° 0 min 0 W/m² 9,7 °C 10,9 °C 0,0 km/h (0 Bft)
20.08.2024 04:26 23,3 °C 10,9 °C 54 % 92 % 1016,7 hPa 0,0 l/m² 0,0 km/h (0 Bft) NW 323 ° 0 min 0 W/m² 9,7 °C 10,9 °C 0,0 km/h (0 Bft)
20.08.2024 04:28 23,3 °C 10,9 °C 54 % 92 % 1016,7 hPa 0,0 l/m² 0,0 km/h (0 Bft) NW 323 ° 0 min 0 W/m² 9,7 °C 10,9 °C 0,0 km/h (0 Bft)
20.08.2024 04:30 23,3 °C 10,9 °C 54 % 92 % 1016,7 hPa 0,0 l/m² 0,0 km/h (0 Bft) NW 323 ° 0 min 0 W/m² 9,7 °C 10,9 °C 0,0 km/h (0 Bft)
20.08.2024 04:31 23,3 °C 10,9 °C 54 % 92 % 1016,6 hPa 0,0 l/m² 0,0 km/h (0 Bft) NW 323 ° 0 min 0 W/m² 9,7 °C 10,9 °C 0,0 km/h (0 Bft)
20.08.2024 04:32 23,3 °C 10,9 °C 54 % 92 % 1016,6 hPa 0,0 l/m² 0,0 km/h (0 Bft) NW 323 ° 0 min 0 W/m² 9,7 °C 10,9 °C 0,0 km/h (0 Bft)
20.08.2024 04:33 23,3 °C 10,9 °C 54 % 92 % 1016,6 hPa 0,0 l/m² 0,0 km/h (0 Bft) NW 323 ° 0 min 0 W/m² 9,7 °C 10,9 °C 0,0 km/h (0 Bft)
20.08.2024 04:35 23,3 °C 10,9 °C 54 % 93 % 1016,6 hPa 0,0 l/m² 0,0 km/h (0 Bft) NW 323 ° 0 min 0 W/m² 9,8 °C 10,9 °C 0,0 km/h (0 Bft)
20.08.2024 04:37 23,3 °C 11,0 °C 54 % 93 % 1016,6 hPa 0,0 l/m² 0,0 km/h (0 Bft) NW 323 ° 0 min 0 W/m² 9,9 °C 11,0 °C 0,0 km/h (0 Bft)
20.08.2024 04:39 23,3 °C 11,0 °C 54 % 92 % 1016,6 hPa 0,0 l/m² 0,0 km/h (0 Bft) NW 323 ° 0 min 0 W/m² 9,8 °C 11,0 °C 0,0 km/h (0 Bft)
20.08.2024 04:40 23,3 °C 11,0 °C 54 % 92 % 1016,6 hPa 0,0 l/m² 0,0 km/h (0 Bft) NW 323 ° 0 min 0 W/m² 9,8 °C 11,0 °C 0,0 km/h (0 Bft)
20.08.2024 04:41 23,3 °C 11,0 °C 54 % 92 % 1016,6 hPa 0,0 l/m² 0,0 km/h (0 Bft) NW 323 ° 0 min 0 W/m² 9,8 °C 11,0 °C 0,0 km/h (0 Bft)
20.08.2024 04:42 23,3 °C 11,0 °C 54 % 92 % 1016,6 hPa 0,0 l/m² 0,0 km/h (0 Bft) NW 323 ° 0 min 0 W/m² 9,8 °C 11,0 °C 0,0 km/h (0 Bft)
20.08.2024 04:43 23,3 °C 11,0 °C 54 % 92 % 1016,5 hPa 0,0 l/m² 0,0 km/h (0 Bft) NW 323 ° 0 min 0 W/m² 9,8 °C 11,0 °C 0,0 km/h (0 Bft)
20.08.2024 04:44 23,3 °C 11,0 °C 54 % 92 % 1016,5 hPa 0,0 l/m² 0,0 km/h (0 Bft) NW 323 ° 0 min 0 W/m² 9,8 °C 11,0 °C 0,0 km/h (0 Bft)
20.08.2024 04:45 23,3 °C 10,9 °C 54 % 92 % 1016,5 hPa 0,0 l/m² 0,0 km/h (0 Bft) NW 323 ° 0 min 0 W/m² 9,7 °C 10,9 °C 0,0 km/h (0 Bft)
20.08.2024 04:46 23,3 °C 10,9 °C 54 % 92 % 1016,6 hPa 0,0 l/m² 0,0 km/h (0 Bft) NW 323 ° 0 min 0 W/m² 9,7 °C 10,9 °C 0,0 km/h (0 Bft)
20.08.2024 04:47 23,3 °C 10,9 °C 54 % 92 % 1016,6 hPa 0,0 l/m² 0,0 km/h (0 Bft) NW 323 ° 0 min 0 W/m² 9,7 °C 10,9 °C 0,0 km/h (0 Bft)
20.08.2024 04:48 23,3 °C 10,9 °C 54 % 92 % 1016,5 hPa 0,0 l/m² 0,0 km/h (0 Bft) NW 323 ° 0 min 0 W/m² 9,7 °C 10,9 °C 0,0 km/h (0 Bft)
20.08.2024 04:49 23,3 °C 10,9 °C 54 % 92 % 1016,5 hPa 0,0 l/m² 0,0 km/h (0 Bft) NW 323 ° 0 min 0 W/m² 9,7 °C 10,9 °C 0,0 km/h (0 Bft)
20.08.2024 04:51 23,3 °C 10,8 °C 54 % 92 % 1016,5 hPa 0,0 l/m² 0,0 km/h (0 Bft) NW 323 ° 0 min 0 W/m² 9,6 °C 10,8 °C 0,0 km/h (0 Bft)
20.08.2024 04:53 23,3 °C 10,8 °C 54 % 92 % 1016,6 hPa 0,0 l/m² 0,0 km/h (0 Bft) NW 323 ° 0 min 0 W/m² 9,6 °C 10,8 °C 0,0 km/h (0 Bft)
20.08.2024 04:54 23,3 °C 10,8 °C 54 % 92 % 1016,6 hPa 0,0 l/m² 0,0 km/h (0 Bft) NW 323 ° 0 min 0 W/m² 9,6 °C 10,8 °C 0,0 km/h (0 Bft)
20.08.2024 04:55 23,3 °C 10,7 °C 54 % 92 % 1016,5 hPa 0,0 l/m² 0,0 km/h (0 Bft) NW 323 ° 0 min 0 W/m² 9,5 °C 10,7 °C 0,0 km/h (0 Bft)
20.08.2024 04:56 23,3 °C 10,7 °C 54 % 92 % 1016,5 hPa 0,0 l/m² 0,0 km/h (0 Bft) NW 323 ° 0 min 0 W/m² 9,5 °C 10,7 °C 0,0 km/h (0 Bft)
20.08.2024 04:57 23,2 °C 10,7 °C 54 % 92 % 1016,6 hPa 0,0 l/m² 0,0 km/h (0 Bft) NW 323 ° 0 min 0 W/m² 9,5 °C 10,7 °C 0,0 km/h (0 Bft)
20.08.2024 04:58 23,3 °C 10,7 °C 54 % 92 % 1016,5 hPa 0,0 l/m² 0,0 km/h (0 Bft) NW 323 ° 0 min 0 W/m² 9,5 °C 10,7 °C 0,0 km/h (0 Bft)
20.08.2024 04:59 23,3 °C 10,6 °C 54 % 93 % 1016,6 hPa 0,0 l/m² 0,0 km/h (0 Bft) NW 323 ° 0 min 0 W/m² 9,5 °C 10,6 °C 0,0 km/h (0 Bft)
20.08.2024 05:00 23,3 °C 10,7 °C 54 % 93 % 1016,6 hPa 0,0 l/m² 0,0 km/h (0 Bft) NW 323 ° 0 min 0 W/m² 9,6 °C 10,7 °C 0,0 km/h (0 Bft)
20.08.2024 05:02 23,3 °C 10,7 °C 54 % 93 % 1016,5 hPa 0,0 l/m² 0,0 km/h (0 Bft) NW 323 ° 0 min 0 W/m² 9,6 °C 10,7 °C 0,0 km/h (0 Bft)
20.08.2024 05:04 23,3 °C 10,6 °C 54 % 93 % 1016,5 hPa 0,0 l/m² 0,0 km/h (0 Bft) NW 323 ° 0 min 0 W/m² 9,5 °C 10,6 °C 0,0 km/h (0 Bft)
20.08.2024 05:05 23,3 °C 10,6 °C 54 % 93 % 1016,5 hPa 0,0 l/m² 0,0 km/h (0 Bft) NW 323 ° 0 min 0 W/m² 9,5 °C 10,6 °C 0,0 km/h (0 Bft)
20.08.2024 05:06 23,3 °C 10,6 °C 54 % 93 % 1016,4 hPa 0,0 l/m² 0,0 km/h (0 Bft) NW 323 ° 0 min 0 W/m² 9,5 °C 10,6 °C 0,0 km/h (0 Bft)
20.08.2024 05:07 23,3 °C 10,6 °C 54 % 93 % 1016,3 hPa 0,0 l/m² 0,0 km/h (0 Bft) NW 323 ° 0 min 0 W/m² 9,5 °C 10,6 °C 0,0 km/h (0 Bft)
20.08.2024 05:08 23,3 °C 10,6 °C 54 % 93 % 1016,4 hPa 0,0 l/m² 0,0 km/h (0 Bft) NW 323 ° 0 min 0 W/m² 9,5 °C 10,6 °C 0,0 km/h (0 Bft)
20.08.2024 05:09 23,3 °C 10,6 °C 54 % 93 % 1016,3 hPa 0,0 l/m² 0,0 km/h (0 Bft) NW 323 ° 0 min 0 W/m² 9,5 °C 10,6 °C 0,0 km/h (0 Bft)
20.08.2024 05:11 23,3 °C 10,6 °C 54 % 93 % 1016,4 hPa 0,0 l/m² 0,0 km/h (0 Bft) NW 323 ° 0 min 0 W/m² 9,5 °C 10,6 °C 0,0 km/h (0 Bft)
20.08.2024 05:13 23,3 °C 10,6 °C 55 % 93 % 1016,3 hPa 0,0 l/m² 0,0 km/h (0 Bft) NW 323 ° 0 min 0 W/m² 9,5 °C 10,6 °C 0,0 km/h (0 Bft)
20.08.2024 05:14 23,3 °C 10,6 °C 55 % 93 % 1016,3 hPa 0,0 l/m² 0,0 km/h (0 Bft) NW 323 ° 0 min 0 W/m² 9,5 °C 10,6 °C 0,0 km/h (0 Bft)
20.08.2024 05:15 23,3 °C 10,6 °C 55 % 93 % 1016,3 hPa 0,0 l/m² 0,0 km/h (0 Bft) NW 323 ° 0 min 0 W/m² 9,5 °C 10,6 °C 0,0 km/h (0 Bft)
20.08.2024 05:16 23,3 °C 10,6 °C 55 % 93 % 1016,4 hPa 0,0 l/m² 0,0 km/h (0 Bft) NW 323 ° 0 min 0 W/m² 9,5 °C 10,6 °C 0,0 km/h (0 Bft)
20.08.2024 05:17 23,3 °C 10,6 °C 55 % 93 % 1016,3 hPa 0,0 l/m² 0,0 km/h (0 Bft) NW 323 ° 0 min 0 W/m² 9,5 °C 10,6 °C 0,0 km/h (0 Bft)
20.08.2024 05:18 23,3 °C 10,6 °C 55 % 93 % 1016,3 hPa 0,0 l/m² 0,0 km/h (0 Bft) NW 323 ° 0 min 0 W/m² 9,5 °C 10,6 °C 0,0 km/h (0 Bft)
20.08.2024 05:19 23,3 °C 10,6 °C 55 % 93 % 1016,3 hPa 0,0 l/m² 0,0 km/h (0 Bft) NW 323 ° 0 min 0 W/m² 9,5 °C 10,6 °C 0,0 km/h (0 Bft)
20.08.2024 05:20 23,3 °C 10,6 °C 55 % 93 % 1016,3 hPa 0,0 l/m² 0,0 km/h (0 Bft) NW 323 ° 0 min 0 W/m² 9,5 °C 10,6 °C 0,0 km/h (0 Bft)
20.08.2024 05:22 23,3 °C 10,6 °C 55 % 93 % 1016,3 hPa 0,0 l/m² 0,0 km/h (0 Bft) NW 323 ° 0 min 0 W/m² 9,5 °C 10,6 °C 0,0 km/h (0 Bft)
20.08.2024 05:24 23,3 °C 10,6 °C 55 % 93 % 1016,3 hPa 0,0 l/m² 0,0 km/h (0 Bft) NW 323 ° 0 min 0 W/m² 9,5 °C 10,6 °C 0,0 km/h (0 Bft)
20.08.2024 05:25 23,3 °C 10,6 °C 55 % 93 % 1016,3 hPa 0,0 l/m² 0,0 km/h (0 Bft) NW 323 ° 0 min 0 W/m² 9,5 °C 10,6 °C 0,0 km/h (0 Bft)
20.08.2024 05:26 23,3 °C 10,6 °C 55 % 93 % 1016,3 hPa 0,0 l/m² 0,0 km/h (0 Bft) NW 323 ° 0 min 0 W/m² 9,5 °C 10,6 °C 0,0 km/h (0 Bft)
20.08.2024 05:27 23,3 °C 10,5 °C 55 % 93 % 1016,3 hPa 0,0 l/m² 0,0 km/h (0 Bft) NW 323 ° 0 min 0 W/m² 9,4 °C 10,5 °C 0,0 km/h (0 Bft)
20.08.2024 05:28 23,3 °C 10,4 °C 54 % 93 % 1016,3 hPa 0,0 l/m² 0,0 km/h (0 Bft) NW 323 ° 0 min 0 W/m² 9,3 °C 10,4 °C 0,0 km/h (0 Bft)
20.08.2024 05:29 23,3 °C 10,4 °C 54 % 93 % 1016,1 hPa 0,0 l/m² 0,0 km/h (0 Bft) NW 323 ° 0 min 0 W/m² 9,3 °C 10,4 °C 0,0 km/h (0 Bft)
20.08.2024 05:30 23,3 °C 10,4 °C 54 % 93 % 1016,1 hPa 0,0 l/m² 0,0 km/h (0 Bft) NW 323 ° 0 min 0 W/m² 9,3 °C 10,4 °C 0,0 km/h (0 Bft)
20.08.2024 05:32 23,3 °C 10,4 °C 54 % 93 % 1016,2 hPa 0,0 l/m² 0,0 km/h (0 Bft) NW 323 ° 0 min 0 W/m² 9,3 °C 10,4 °C 0,0 km/h (0 Bft)
20.08.2024 05:34 23,3 °C 10,4 °C 54 % 93 % 1016,2 hPa 0,0 l/m² 0,0 km/h (0 Bft) NW 323 ° 0 min 0 W/m² 9,3 °C 10,4 °C 0,0 km/h (0 Bft)
20.08.2024 05:35 23,3 °C 10,5 °C 54 % 93 % 1016,2 hPa 0,0 l/m² 0,0 km/h (0 Bft) NW 323 ° 0 min 0 W/m² 9,4 °C 10,5 °C 0,0 km/h (0 Bft)
20.08.2024 05:36 23,3 °C 10,5 °C 54 % 93 % 1016,2 hPa 0,0 l/m² 0,0 km/h (0 Bft) NW 323 ° 0 min 0 W/m² 9,4 °C 10,5 °C 0,0 km/h (0 Bft)
20.08.2024 05:37 23,3 °C 10,4 °C 54 % 93 % 1016,3 hPa 0,0 l/m² 0,0 km/h (0 Bft) NW 323 ° 0 min 0 W/m² 9,3 °C 10,4 °C 0,0 km/h (0 Bft)
20.08.2024 05:38 23,3 °C 10,4 °C 54 % 93 % 1016,3 hPa 0,0 l/m² 0,0 km/h (0 Bft) NW 323 ° 0 min 0 W/m² 9,3 °C 10,4 °C 0,0 km/h (0 Bft)
20.08.2024 05:39 23,3 °C 10,4 °C 54 % 93 % 1016,2 hPa 0,0 l/m² 0,0 km/h (0 Bft) NW 323 ° 0 min 0 W/m² 9,3 °C 10,4 °C 0,0 km/h (0 Bft)
20.08.2024 05:40 23,2 °C 10,5 °C 54 % 93 % 1016,2 hPa 0,0 l/m² 0,0 km/h (0 Bft) NW 323 ° 0 min 0 W/m² 9,4 °C 10,5 °C 0,0 km/h (0 Bft)
20.08.2024 05:42 23,2 °C 10,5 °C 54 % 93 % 1016,3 hPa 0,0 l/m² 0,0 km/h (0 Bft) NW 323 ° 0 min 0 W/m² 9,4 °C 10,5 °C 0,0 km/h (0 Bft)
20.08.2024 05:44 23,2 °C 10,5 °C 54 % 93 % 1016,2 hPa 0,0 l/m² 0,0 km/h (0 Bft) NW 323 ° 0 min 0 W/m² 9,4 °C 10,5 °C 0,0 km/h (0 Bft)
20.08.2024 05:45 23,2 °C 10,4 °C 54 % 93 % 1016,3 hPa 0,0 l/m² 0,0 km/h (0 Bft) NW 323 ° 0 min 0 W/m² 9,3 °C 10,4 °C 0,0 km/h (0 Bft)
20.08.2024 05:46 23,2 °C 10,5 °C 54 % 93 % 1016,3 hPa 0,0 l/m² 0,0 km/h (0 Bft) NW 323 ° 0 min 0 W/m² 9,4 °C 10,5 °C 0,0 km/h (0 Bft)
20.08.2024 05:47 23,2 °C 10,5 °C 54 % 93 % 1016,2 hPa 0,0 l/m² 0,0 km/h (0 Bft) NW 323 ° 0 min 0 W/m² 9,4 °C 10,5 °C 0,0 km/h (0 Bft)
20.08.2024 05:48 23,2 °C 10,5 °C 54 % 93 % 1016,2 hPa 0,0 l/m² 0,0 km/h (0 Bft) NW 323 ° 0 min 0 W/m² 9,4 °C 10,5 °C 0,0 km/h (0 Bft)
20.08.2024 05:49 23,2 °C 10,5 °C 54 % 93 % 1016,3 hPa 0,0 l/m² 0,0 km/h (0 Bft) NW 323 ° 0 min 0 W/m² 9,4 °C 10,5 °C 0,0 km/h (0 Bft)
20.08.2024 05:50 23,2 °C 10,5 °C 54 % 93 % 1016,4 hPa 0,0 l/m² 0,0 km/h (0 Bft) NW 323 ° 0 min 0 W/m² 9,4 °C 10,5 °C 0,0 km/h (0 Bft)
20.08.2024 05:52 23,2 °C 10,5 °C 54 % 93 % 1016,3 hPa 0,0 l/m² 0,0 km/h (0 Bft) NW 323 ° 0 min 0 W/m² 9,4 °C 10,5 °C 0,0 km/h (0 Bft)
20.08.2024 05:53 23,2 °C 10,5 °C 54 % 93 % 1016,3 hPa 0,0 l/m² 0,0 km/h (0 Bft) NW 323 ° 0 min 0 W/m² 9,4 °C 10,5 °C 0,0 km/h (0 Bft)
20.08.2024 05:54 23,2 °C 10,5 °C 54 % 93 % 1016,3 hPa 0,0 l/m² 0,0 km/h (0 Bft) NW 323 ° 0 min 0 W/m² 9,4 °C 10,5 °C 0,0 km/h (0 Bft)
20.08.2024 05:55 23,2 °C 10,5 °C 54 % 93 % 1016,3 hPa 0,0 l/m² 0,0 km/h (0 Bft) NW 323 ° 0 min 0 W/m² 9,4 °C 10,5 °C 0,0 km/h (0 Bft)
20.08.2024 05:56 23,2 °C 10,4 °C 54 % 93 % 1016,3 hPa 0,0 l/m² 0,0 km/h (0 Bft) NW 323 ° 0 min 0 W/m² 9,3 °C 10,4 °C 0,0 km/h (0 Bft)
20.08.2024 05:57 23,2 °C 10,5 °C 54 % 93 % 1016,3 hPa 0,0 l/m² 0,0 km/h (0 Bft) NW 323 ° 0 min 0 W/m² 9,4 °C 10,5 °C 0,0 km/h (0 Bft)
20.08.2024 05:58 23,2 °C 10,5 °C 54 % 93 % 1016,3 hPa 0,0 l/m² 0,0 km/h (0 Bft) NW 323 ° 0 min 0 W/m² 9,4 °C 10,5 °C 0,0 km/h (0 Bft)
20.08.2024 05:59 23,2 °C 10,4 °C 54 % 93 % 1016,3 hPa 0,0 l/m² 0,0 km/h (0 Bft) NW 323 ° 0 min 0 W/m² 9,3 °C 10,4 °C 0,0 km/h (0 Bft)
20.08.2024 06:01 23,2 °C 10,4 °C 54 % 93 % 1016,3 hPa 0,0 l/m² 0,0 km/h (0 Bft) NW 323 ° 0 min 0 W/m² 9,3 °C 10,4 °C 0,0 km/h (0 Bft)
20.08.2024 06:03 23,2 °C 10,4 °C 53 % 93 % 1016,3 hPa 0,0 l/m² 0,0 km/h (0 Bft) NW 323 ° 0 min 0 W/m² 9,3 °C 10,4 °C 0,0 km/h (0 Bft)
20.08.2024 06:04 23,2 °C 10,4 °C 53 % 93 % 1016,2 hPa 0,0 l/m² 0,0 km/h (0 Bft) NW 323 ° 0 min 0 W/m² 9,3 °C 10,4 °C 0,0 km/h (0 Bft)
20.08.2024 06:05 23,2 °C 10,4 °C 53 % 93 % 1016,3 hPa 0,0 l/m² 0,0 km/h (0 Bft) NW 323 ° 0 min 0 W/m² 9,3 °C 10,4 °C 0,0 km/h (0 Bft)
20.08.2024 06:06 23,2 °C 10,4 °C 53 % 93 % 1016,3 hPa 0,0 l/m² 0,0 km/h (0 Bft) NW 323 ° 0 min 0 W/m² 9,3 °C 10,4 °C 0,0 km/h (0 Bft)
20.08.2024 06:07 23,2 °C 10,5 °C 53 % 93 % 1016,3 hPa 0,0 l/m² 0,0 km/h (0 Bft) NW 323 ° 0 min 0 W/m² 9,4 °C 10,5 °C 0,0 km/h (0 Bft)
20.08.2024 06:08 23,2 °C 10,4 °C 53 % 93 % 1016,3 hPa 0,0 l/m² 0,0 km/h (0 Bft) NW 323 ° 0 min 0 W/m² 9,3 °C 10,4 °C 0,0 km/h (0 Bft)
20.08.2024 06:09 23,2 °C 10,4 °C 54 % 93 % 1016,2 hPa 0,0 l/m² 0,0 km/h (0 Bft) NW 323 ° 0 min 0 W/m² 9,3 °C 10,4 °C 0,0 km/h (0 Bft)
20.08.2024 06:10 23,2 °C 10,4 °C 54 % 93 % 1016,2 hPa 0,0 l/m² 0,0 km/h (0 Bft) NW 323 ° 0 min 5 W/m² 9,3 °C 10,4 °C 0,0 km/h (0 Bft)
20.08.2024 06:12 23,2 °C 10,4 °C 53 % 93 % 1016,2 hPa 0,0 l/m² 0,0 km/h (0 Bft) NW 323 ° 0 min 5 W/m² 9,3 °C 10,4 °C 0,0 km/h (0 Bft)
20.08.2024 06:14 23,1 °C 10,5 °C 53 % 93 % 1016,2 hPa 0,0 l/m² 0,0 km/h (0 Bft) NW 323 ° 0 min 5 W/m² 9,4 °C 10,5 °C 0,0 km/h (0 Bft)
20.08.2024 06:15 23,2 °C 10,5 °C 52 % 93 % 1016,3 hPa 0,0 l/m² 0,0 km/h (0 Bft) NW 323 ° 0 min 7 W/m² 9,4 °C 10,5 °C 0,0 km/h (0 Bft)
20.08.2024 06:16 23,2 °C 10,6 °C 52 % 93 % 1016,3 hPa 0,0 l/m² 0,0 km/h (0 Bft) NW 323 ° 0 min 7 W/m² 9,5 °C 10,6 °C 0,0 km/h (0 Bft)
20.08.2024 06:17 23,1 °C 10,6 °C 51 % 93 % 1016,3 hPa 0,0 l/m² 0,0 km/h (0 Bft) NW 323 ° 0 min 7 W/m² 9,5 °C 10,6 °C 0,0 km/h (0 Bft)
20.08.2024 06:18 23,1 °C 10,6 °C 51 % 93 % 1016,3 hPa 0,0 l/m² 0,0 km/h (0 Bft) NW 323 ° 0 min 9 W/m² 9,5 °C 10,6 °C 0,0 km/h (0 Bft)
20.08.2024 06:19 23,1 °C 10,6 °C 51 % 93 % 1016,3 hPa 0,0 l/m² 0,0 km/h (0 Bft) NW 323 ° 0 min 9 W/m² 9,5 °C 10,6 °C 0,0 km/h (0 Bft)
20.08.2024 06:21 23,1 °C 10,6 °C 50 % 93 % 1016,3 hPa 0,0 l/m² 0,0 km/h (0 Bft) NW 323 ° 0 min 9 W/m² 9,5 °C 10,6 °C 0,0 km/h (0 Bft)
20.08.2024 06:23 23,1 °C 10,6 °C 50 % 93 % 1016,2 hPa 0,0 l/m² 0,0 km/h (0 Bft) NW 323 ° 0 min 11 W/m² 9,5 °C 10,6 °C 0,0 km/h (0 Bft)
20.08.2024 06:24 23,1 °C 10,6 °C 50 % 93 % 1016,2 hPa 0,0 l/m² 0,0 km/h (0 Bft) NW 323 ° 0 min 12 W/m² 9,5 °C 10,6 °C 0,0 km/h (0 Bft)
20.08.2024 06:25 23,1 °C 10,6 °C 50 % 93 % 1016,2 hPa 0,0 l/m² 0,0 km/h (0 Bft) NW 323 ° 0 min 12 W/m² 9,5 °C 10,6 °C 0,0 km/h (0 Bft)
20.08.2024 06:26 23,1 °C 10,6 °C 50 % 93 % 1016,2 hPa 0,0 l/m² 0,0 km/h (0 Bft) NW 323 ° 0 min 12 W/m² 9,5 °C 10,6 °C 0,0 km/h (0 Bft)
20.08.2024 06:27 23,1 °C 10,6 °C 50 % 93 % 1016,3 hPa 0,0 l/m² 0,0 km/h (0 Bft) NW 323 ° 0 min 12 W/m² 9,5 °C 10,6 °C 0,0 km/h (0 Bft)
20.08.2024 06:28 23,0 °C 10,6 °C 50 % 93 % 1016,2 hPa 0,0 l/m² 0,0 km/h (0 Bft) NW 323 ° 0 min 14 W/m² 9,5 °C 10,6 °C 0,0 km/h (0 Bft)
20.08.2024 06:29 23,0 °C 10,5 °C 50 % 93 % 1016,2 hPa 0,0 l/m² 0,0 km/h (0 Bft) NW 323 ° 0 min 14 W/m² 9,4 °C 10,5 °C 0,0 km/h (0 Bft)
20.08.2024 06:30 22,9 °C 10,6 °C 50 % 93 % 1016,2 hPa 0,0 l/m² 0,0 km/h (0 Bft) NW 323 ° 0 min 16 W/m² 9,5 °C 10,6 °C 0,0 km/h (0 Bft)
20.08.2024 06:31 22,9 °C 10,5 °C 49 % 93 % 1016,2 hPa 0,0 l/m² 0,0 km/h (0 Bft) NW 323 ° 0 min 16 W/m² 9,4 °C 10,5 °C 0,0 km/h (0 Bft)
20.08.2024 06:32 22,9 °C 10,5 °C 49 % 93 % 1016,2 hPa 0,0 l/m² 0,0 km/h (0 Bft) NW 323 ° 0 min 16 W/m² 9,4 °C 10,5 °C 0,0 km/h (0 Bft)
20.08.2024 06:33 22,9 °C 10,4 °C 49 % 93 % 1016,2 hPa 0,0 l/m² 0,0 km/h (0 Bft) NW 323 ° 0 min 18 W/m² 9,3 °C 10,4 °C 0,0 km/h (0 Bft)
20.08.2024 06:34 22,9 °C 10,4 °C 49 % 93 % 1016,3 hPa 0,0 l/m² 0,0 km/h (0 Bft) NW 323 ° 0 min 18 W/m² 9,3 °C 10,4 °C 0,0 km/h (0 Bft)
20.08.2024 06:35 22,9 °C 10,4 °C 49 % 93 % 1016,3 hPa 0,0 l/m² 0,0 km/h (0 Bft) NW 323 ° 0 min 19 W/m² 9,3 °C 10,4 °C 0,0 km/h (0 Bft)
20.08.2024 06:36 22,9 °C 10,4 °C 49 % 93 % 1016,2 hPa 0,0 l/m² 0,0 km/h (0 Bft) NW 323 ° 0 min 19 W/m² 9,3 °C 10,4 °C 0,0 km/h (0 Bft)
20.08.2024 06:37 22,9 °C 10,4 °C 49 % 93 % 1016,3 hPa 0,0 l/m² 0,0 km/h (0 Bft) NW 323 ° 0 min 19 W/m² 9,3 °C 10,4 °C 0,0 km/h (0 Bft)
20.08.2024 06:38 22,9 °C 10,4 °C 49 % 93 % 1016,2 hPa 0,0 l/m² 0,0 km/h (0 Bft) NW 323 ° 0 min 21 W/m² 9,3 °C 10,4 °C 0,0 km/h (0 Bft)
20.08.2024 06:39 22,8 °C 10,4 °C 49 % 93 % 1016,2 hPa 0,0 l/m² 0,0 km/h (0 Bft) NW 323 ° 0 min 21 W/m² 9,3 °C 10,4 °C 0,0 km/h (0 Bft)
20.08.2024 06:40 22,8 °C 10,4 °C 49 % 93 % 1016,3 hPa 0,0 l/m² 0,0 km/h (0 Bft) NW 323 ° 0 min 21 W/m² 9,3 °C 10,4 °C 0,0 km/h (0 Bft)
20.08.2024 06:41 22,8 °C 10,4 °C 49 % 93 % 1016,3 hPa 0,0 l/m² 0,0 km/h (0 Bft) NW 323 ° 0 min 23 W/m² 9,3 °C 10,4 °C 0,0 km/h (0 Bft)
20.08.2024 06:42 22,8 °C 10,4 °C 49 % 93 % 1016,3 hPa 0,0 l/m² 0,0 km/h (0 Bft) NW 323 ° 0 min 25 W/m² 9,3 °C 10,4 °C 0,0 km/h (0 Bft)
20.08.2024 06:44 22,8 °C 10,4 °C 49 % 93 % 1016,3 hPa 0,0 l/m² 0,0 km/h (0 Bft) NW 323 ° 0 min 25 W/m² 9,3 °C 10,4 °C 0,0 km/h (0 Bft)
20.08.2024 06:45 22,8 °C 10,5 °C 49 % 93 % 1016,2 hPa 0,0 l/m² 0,0 km/h (0 Bft) NW 323 ° 0 min 26 W/m² 9,4 °C 10,5 °C 0,0 km/h (0 Bft)
20.08.2024 06:46 22,8 °C 10,5 °C 49 % 94 % 1016,2 hPa 0,0 l/m² 0,0 km/h (0 Bft) NW 323 ° 0 min 26 W/m² 9,6 °C 10,5 °C 0,0 km/h (0 Bft)
20.08.2024 06:47 22,8 °C 10,6 °C 50 % 94 % 1016,3 hPa 0,0 l/m² 0,0 km/h (0 Bft) NW 323 ° 0 min 26 W/m² 9,7 °C 10,6 °C 0,0 km/h (0 Bft)
20.08.2024 06:48 22,8 °C 10,6 °C 50 % 94 % 1016,3 hPa 0,0 l/m² 0,0 km/h (0 Bft) NW 323 ° 0 min 28 W/m² 9,7 °C 10,6 °C 0,0 km/h (0 Bft)
20.08.2024 06:49 22,8 °C 10,7 °C 50 % 93 % 1016,3 hPa 0,0 l/m² 0,0 km/h (0 Bft) NW 323 ° 0 min 28 W/m² 9,6 °C 10,7 °C 0,0 km/h (0 Bft)
20.08.2024 06:50 22,8 °C 10,7 °C 50 % 93 % 1016,2 hPa 0,0 l/m² 0,0 km/h (0 Bft) NW 323 ° 0 min 28 W/m² 9,6 °C 10,7 °C 0,0 km/h (0 Bft)
20.08.2024 06:52 22,8 °C 10,8 °C 51 % 94 % 1016,3 hPa 0,0 l/m² 0,0 km/h (0 Bft) NW 323 ° 0 min 30 W/m² 9,9 °C 10,8 °C 0,0 km/h (0 Bft)
20.08.2024 06:54 22,8 °C 10,8 °C 51 % 94 % 1016,3 hPa 0,0 l/m² 0,0 km/h (0 Bft) NW 323 ° 0 min 32 W/m² 9,9 °C 10,8 °C 0,0 km/h (0 Bft)
20.08.2024 06:55 22,8 °C 10,8 °C 51 % 94 % 1016,3 hPa 0,0 l/m² 0,0 km/h (0 Bft) NW 323 ° 0 min 32 W/m² 9,9 °C 10,8 °C 0,0 km/h (0 Bft)
20.08.2024 06:56 22,8 °C 10,9 °C 51 % 94 % 1016,3 hPa 0,0 l/m² 0,0 km/h (0 Bft) NW 323 ° 0 min 33 W/m² 10,0 °C 10,9 °C 0,0 km/h (0 Bft)
20.08.2024 06:57 22,8 °C 10,9 °C 51 % 94 % 1016,3 hPa 0,0 l/m² 0,0 km/h (0 Bft) NW 323 ° 0 min 33 W/m² 10,0 °C 10,9 °C 0,0 km/h (0 Bft)
20.08.2024 06:58 22,8 °C 10,9 °C 51 % 94 % 1016,3 hPa 0,0 l/m² 0,0 km/h (0 Bft) NW 323 ° 0 min 33 W/m² 10,0 °C 10,9 °C 0,0 km/h (0 Bft)
20.08.2024 06:59 22,9 °C 10,9 °C 51 % 94 % 1016,3 hPa 0,0 l/m² 0,0 km/h (0 Bft) NW 323 ° 0 min 35 W/m² 10,0 °C 10,9 °C 0,0 km/h (0 Bft)
20.08.2024 07:00 22,8 °C 10,9 °C 51 % 94 % 1016,3 hPa 0,0 l/m² 0,0 km/h (0 Bft) NW 323 ° 0 min 35 W/m² 10,0 °C 10,9 °C 0,0 km/h (0 Bft)
20.08.2024 07:02 22,8 °C 11,0 °C 51 % 94 % 1016,3 hPa 0,0 l/m² 0,0 km/h (0 Bft) NW 323 ° 0 min 35 W/m² 10,1 °C 11,0 °C 0,0 km/h (0 Bft)
20.08.2024 07:04 22,8 °C 11,1 °C 52 % 94 % 1016,3 hPa 0,0 l/m² 0,0 km/h (0 Bft) NW 323 ° 0 min 37 W/m² 10,2 °C 11,1 °C 0,0 km/h (0 Bft)
20.08.2024 07:05 22,9 °C 11,1 °C 52 % 93 % 1016,3 hPa 0,0 l/m² 0,0 km/h (0 Bft) NW 323 ° 0 min 37 W/m² 10,0 °C 11,1 °C 0,0 km/h (0 Bft)
20.08.2024 07:06 22,9 °C 11,1 °C 52 % 94 % 1016,3 hPa 0,0 l/m² 0,0 km/h (0 Bft) NW 323 ° 0 min 39 W/m² 10,2 °C 11,1 °C 0,0 km/h (0 Bft)
20.08.2024 07:07 22,9 °C 11,2 °C 52 % 94 % 1016,3 hPa 0,0 l/m² 0,0 km/h (0 Bft) NW 323 ° 0 min 39 W/m² 10,3 °C 11,2 °C 0,0 km/h (0 Bft)
20.08.2024 07:08 22,9 °C 11,2 °C 52 % 94 % 1016,2 hPa 0,0 l/m² 0,0 km/h (0 Bft) NW 323 ° 0 min 40 W/m² 10,3 °C 11,2 °C 0,0 km/h (0 Bft)
20.08.2024 07:09 22,9 °C 11,3 °C 52 % 94 % 1016,2 hPa 0,0 l/m² 0,0 km/h (0 Bft) NW 323 ° 0 min 40 W/m² 10,4 °C 11,3 °C 0,0 km/h (0 Bft)
20.08.2024 07:10 22,9 °C 11,3 °C 52 % 94 % 1016,3 hPa 0,0 l/m² 0,0 km/h (0 Bft) NW 323 ° 0 min 40 W/m² 10,4 °C 11,3 °C 0,0 km/h (0 Bft)
20.08.2024 07:12 22,9 °C 11,3 °C 52 % 94 % 1016,2 hPa 0,0 l/m² 0,0 km/h (0 Bft) NW 323 ° 0 min 42 W/m² 10,4 °C 11,3 °C 0,0 km/h (0 Bft)
20.08.2024 07:14 22,9 °C 11,3 °C 52 % 93 % 1016,2 hPa 0,0 l/m² 0,0 km/h (0 Bft) NW 323 ° 0 min 42 W/m² 10,2 °C 11,3 °C 0,0 km/h (0 Bft)
20.08.2024 07:15 22,9 °C 11,3 °C 52 % 93 % 1016,3 hPa 0,0 l/m² 0,0 km/h (0 Bft) NW 323 ° 0 min 44 W/m² 10,2 °C 11,3 °C 0,0 km/h (0 Bft)
20.08.2024 07:16 22,9 °C 11,3 °C 52 % 93 % 1016,2 hPa 0,0 l/m² 0,0 km/h (0 Bft) NW 323 ° 0 min 44 W/m² 10,2 °C 11,3 °C 0,0 km/h (0 Bft)
20.08.2024 07:17 22,9 °C 11,3 °C 52 % 93 % 1016,3 hPa 0,0 l/m² 0,0 km/h (0 Bft) NW 323 ° 0 min 46 W/m² 10,2 °C 11,3 °C 0,0 km/h (0 Bft)
20.08.2024 07:18 22,9 °C 11,4 °C 52 % 93 % 1016,3 hPa 0,0 l/m² 0,0 km/h (0 Bft) NW 323 ° 0 min 49 W/m² 10,3 °C 11,4 °C 0,0 km/h (0 Bft)
20.08.2024 07:19 22,9 °C 11,4 °C 52 % 93 % 1016,3 hPa 0,0 l/m² 0,0 km/h (0 Bft) NW 323 ° 1 min 54 W/m² 10,3 °C 11,4 °C 0,0 km/h (0 Bft)
20.08.2024 07:20 22,9 °C 11,5 °C 52 % 94 % 1016,4 hPa 0,0 l/m² 0,0 km/h (0 Bft) NW 323 ° 1 min 56 W/m² 10,6 °C 11,5 °C 0,0 km/h (0 Bft)
20.08.2024 07:22 22,9 °C 11,6 °C 52 % 94 % 1016,3 hPa 0,0 l/m² 0,0 km/h (0 Bft) NW 323 ° 2 min 62 W/m² 10,7 °C 11,6 °C 0,0 km/h (0 Bft)
20.08.2024 07:24 22,9 °C 11,7 °C 52 % 94 % 1016,3 hPa 0,0 l/m² 0,0 km/h (0 Bft) NW 323 ° 2 min 79 W/m² 10,8 °C 11,7 °C 0,0 km/h (0 Bft)
20.08.2024 07:25 22,9 °C 11,7 °C 52 % 93 % 1016,3 hPa 0,0 l/m² 0,0 km/h (0 Bft) NW 323 ° 1 min 88 W/m² 10,6 °C 11,7 °C 0,0 km/h (0 Bft)
20.08.2024 07:26 22,9 °C 11,7 °C 52 % 93 % 1016,2 hPa 0,0 l/m² 0,1 km/h (0 Bft) NW 323 ° 1 min 95 W/m² 10,6 °C 11,7 °C 1,6 km/h (1 Bft)
20.08.2024 07:27 22,9 °C 11,8 °C 52 % 93 % 1016,3 hPa 0,0 l/m² 0,0 km/h (0 Bft) NW 323 ° 1 min 95 W/m² 10,7 °C 11,8 °C 0,0 km/h (0 Bft)
20.08.2024 07:28 22,9 °C 11,8 °C 52 % 93 % 1016,3 hPa 0,0 l/m² 0,0 km/h (0 Bft) NW 323 ° 1 min 93 W/m² 10,7 °C 11,8 °C 0,0 km/h (0 Bft)
20.08.2024 07:29 22,9 °C 11,9 °C 52 % 94 % 1016,3 hPa 0,0 l/m² 0,0 km/h (0 Bft) NW 323 ° 1 min 93 W/m² 11,0 °C 11,9 °C 0,0 km/h (0 Bft)
20.08.2024 07:30 22,9 °C 11,9 °C 52 % 94 % 1016,3 hPa 0,0 l/m² 0,0 km/h (0 Bft) NW 323 ° 1 min 97 W/m² 11,0 °C 11,9 °C 0,0 km/h (0 Bft)
20.08.2024 07:32 22,9 °C 12,1 °C 53 % 93 % 1016,3 hPa 0,0 l/m² 0,0 km/h (0 Bft) NW 323 ° 2 min 98 W/m² 11,0 °C 12,1 °C 0,0 km/h (0 Bft)
20.08.2024 07:34 22,9 °C 12,1 °C 53 % 93 % 1016,2 hPa 0,0 l/m² 0,0 km/h (0 Bft) NW 323 ° 2 min 100 W/m² 11,0 °C 12,1 °C 0,0 km/h (0 Bft)
20.08.2024 07:35 22,9 °C 12,2 °C 53 % 93 % 1016,3 hPa 0,0 l/m² 0,1 km/h (0 Bft) NW 323 ° 1 min 102 W/m² 11,1 °C 12,2 °C 1,6 km/h (1 Bft)
20.08.2024 07:36 22,9 °C 12,2 °C 53 % 93 % 1016,2 hPa 0,0 l/m² 0,0 km/h (0 Bft) NW 323 ° 1 min 104 W/m² 11,1 °C 12,2 °C 0,0 km/h (0 Bft)
20.08.2024 07:37 22,9 °C 12,2 °C 53 % 93 % 1016,2 hPa 0,0 l/m² 0,0 km/h (0 Bft) NW 323 ° 1 min 105 W/m² 11,1 °C 12,2 °C 0,0 km/h (0 Bft)
20.08.2024 07:38 22,9 °C 12,2 °C 53 % 93 % 1016,2 hPa 0,0 l/m² 0,0 km/h (0 Bft) NW 323 ° 1 min 107 W/m² 11,1 °C 12,2 °C 0,0 km/h (0 Bft)
20.08.2024 07:39 22,9 °C 12,3 °C 53 % 93 % 1016,1 hPa 0,0 l/m² 0,0 km/h (0 Bft) NW 323 ° 1 min 111 W/m² 11,2 °C 12,3 °C 0,0 km/h (0 Bft)
20.08.2024 07:40 22,9 °C 12,3 °C 53 % 93 % 1016,2 hPa 0,0 l/m² 0,0 km/h (0 Bft) NW 323 ° 1 min 113 W/m² 11,2 °C 12,3 °C 0,0 km/h (0 Bft)
20.08.2024 07:42 22,9 °C 12,4 °C 53 % 93 % 1016,2 hPa 0,0 l/m² 0,0 km/h (0 Bft) NW 323 ° 2 min 118 W/m² 11,3 °C 12,4 °C 0,0 km/h (0 Bft)
20.08.2024 07:44 22,9 °C 12,5 °C 53 % 93 % 1016,1 hPa 0,0 l/m² 0,0 km/h (0 Bft) NW 323 ° 2 min 125 W/m² 11,4 °C 12,5 °C 0,0 km/h (0 Bft)
20.08.2024 07:45 22,9 °C 12,5 °C 53 % 93 % 1016,2 hPa 0,0 l/m² 0,0 km/h (0 Bft) NW 323 ° 1 min 130 W/m² 11,4 °C 12,5 °C 0,0 km/h (0 Bft)
20.08.2024 07:46 22,9 °C 12,6 °C 53 % 93 % 1016,1 hPa 0,0 l/m² 0,5 km/h (0 Bft) W-NW 302 ° 1 min 134 W/m² 11,5 °C 12,6 °C 3,2 km/h (1 Bft)
20.08.2024 07:47 22,9 °C 12,7 °C 53 % 93 % 1016,1 hPa 0,0 l/m² 0,7 km/h (0 Bft) W-NW 302 ° 1 min 137 W/m² 11,6 °C 12,7 °C 3,2 km/h (1 Bft)
20.08.2024 07:48 22,9 °C 12,7 °C 53 % 93 % 1016,2 hPa 0,0 l/m² 0,0 km/h (0 Bft) W-NW 302 ° 1 min 139 W/m² 11,6 °C 12,7 °C 0,0 km/h (0 Bft)
20.08.2024 07:49 22,9 °C 12,7 °C 53 % 93 % 1016,2 hPa 0,0 l/m² 0,0 km/h (0 Bft) W-NW 302 ° 1 min 142 W/m² 11,6 °C 12,7 °C 0,0 km/h (0 Bft)
20.08.2024 07:50 22,9 °C 12,8 °C 53 % 93 % 1016,2 hPa 0,0 l/m² 0,0 km/h (0 Bft) W-NW 302 ° 1 min 146 W/m² 11,7 °C 12,8 °C 0,0 km/h (0 Bft)
20.08.2024 07:52 22,9 °C 12,8 °C 53 % 92 % 1016,1 hPa 0,0 l/m² 0,0 km/h (0 Bft) W-NW 302 ° 2 min 153 W/m² 11,5 °C 12,8 °C 0,0 km/h (0 Bft)
20.08.2024 07:54 22,9 °C 12,9 °C 53 % 93 % 1016,1 hPa 0,0 l/m² 0,0 km/h (0 Bft) W-NW 302 ° 2 min 155 W/m² 11,8 °C 12,9 °C 0,0 km/h (0 Bft)
20.08.2024 07:55 22,9 °C 13,0 °C 53 % 92 % 1016,1 hPa 0,0 l/m² 0,0 km/h (0 Bft) W-NW 302 ° 1 min 155 W/m² 11,7 °C 13,0 °C 0,0 km/h (0 Bft)
20.08.2024 07:56 22,9 °C 13,0 °C 53 % 92 % 1016,1 hPa 0,0 l/m² 0,0 km/h (0 Bft) W-NW 302 ° 1 min 155 W/m² 11,7 °C 13,0 °C 0,0 km/h (0 Bft)
20.08.2024 07:57 22,9 °C 13,1 °C 53 % 92 % 1016,1 hPa 0,0 l/m² 0,0 km/h (0 Bft) W-NW 302 ° 1 min 156 W/m² 11,8 °C 13,1 °C 0,0 km/h (0 Bft)
20.08.2024 07:58 22,9 °C 13,1 °C 53 % 92 % 1016,1 hPa 0,0 l/m² 0,0 km/h (0 Bft) W-NW 302 ° 1 min 156 W/m² 11,8 °C 13,1 °C 0,0 km/h (0 Bft)
20.08.2024 07:59 22,9 °C 13,2 °C 53 % 92 % 1016,1 hPa 0,0 l/m² 0,0 km/h (0 Bft) W-NW 302 ° 1 min 158 W/m² 11,9 °C 13,2 °C 0,0 km/h (0 Bft)
20.08.2024 08:00 22,9 °C 13,2 °C 53 % 92 % 1016,2 hPa 0,0 l/m² 0,0 km/h (0 Bft) W-NW 302 ° 1 min 158 W/m² 11,9 °C 13,2 °C 0,0 km/h (0 Bft)
20.08.2024 08:02 22,9 °C 13,3 °C 53 % 91 % 1016,1 hPa 0,0 l/m² 0,0 km/h (0 Bft) W-NW 302 ° 2 min 158 W/m² 11,9 °C 13,3 °C 0,0 km/h (0 Bft)
20.08.2024 08:04 22,9 °C 13,4 °C 53 % 92 % 1016,2 hPa 0,0 l/m² 0,0 km/h (0 Bft) W-NW 302 ° 2 min 160 W/m² 12,1 °C 13,4 °C 0,0 km/h (0 Bft)
20.08.2024 08:05 23,0 °C 13,4 °C 53 % 91 % 1016,1 hPa 0,0 l/m² 0,0 km/h (0 Bft) W-NW 302 ° 1 min 160 W/m² 12,0 °C 13,4 °C 0,0 km/h (0 Bft)
20.08.2024 08:06 22,9 °C 13,6 °C 53 % 91 % 1016,1 hPa 0,0 l/m² 0,0 km/h (0 Bft) W-NW 302 ° 1 min 162 W/m² 12,2 °C 13,6 °C 0,0 km/h (0 Bft)
20.08.2024 08:07 22,9 °C 13,6 °C 53 % 91 % 1016,1 hPa 0,0 l/m² 0,0 km/h (0 Bft) W-NW 302 ° 1 min 163 W/m² 12,2 °C 13,6 °C 0,0 km/h (0 Bft)
20.08.2024 08:08 22,9 °C 13,7 °C 53 % 91 % 1016,1 hPa 0,0 l/m² 0,0 km/h (0 Bft) W-NW 302 ° 1 min 163 W/m² 12,3 °C 13,7 °C 0,0 km/h (0 Bft)
20.08.2024 08:09 22,9 °C 13,7 °C 53 % 91 % 1016,0 hPa 0,0 l/m² 0,0 km/h (0 Bft) W-NW 302 ° 1 min 167 W/m² 12,3 °C 13,7 °C 0,0 km/h (0 Bft)
20.08.2024 08:10 22,9 °C 13,8 °C 53 % 91 % 1016,0 hPa 0,0 l/m² 0,0 km/h (0 Bft) W-NW 302 ° 1 min 169 W/m² 12,4 °C 13,8 °C 0,0 km/h (0 Bft)
20.08.2024 08:12 22,9 °C 13,9 °C 53 % 91 % 1016,0 hPa 0,0 l/m² 0,0 km/h (0 Bft) W-NW 302 ° 2 min 172 W/m² 12,5 °C 13,9 °C 1,6 km/h (1 Bft)
20.08.2024 08:14 22,9 °C 14,1 °C 53 % 91 % 1015,9 hPa 0,0 l/m² 0,0 km/h (0 Bft) W-NW 302 ° 2 min 183 W/m² 12,7 °C 14,1 °C 1,6 km/h (1 Bft)
20.08.2024 08:15 22,9 °C 14,2 °C 53 % 90 % 1015,9 hPa 0,0 l/m² 1,5 km/h (1 Bft) W-NW 294 ° 1 min 186 W/m² 12,6 °C 14,2 °C 3,2 km/h (1 Bft)
20.08.2024 08:16 22,9 °C 14,2 °C 53 % 90 % 1016,0 hPa 0,0 l/m² 0,1 km/h (0 Bft) W-NW 294 ° 1 min 190 W/m² 12,6 °C 14,2 °C 1,6 km/h (1 Bft)
20.08.2024 08:17 22,9 °C 14,3 °C 53 % 90 % 1015,9 hPa 0,0 l/m² 0,0 km/h (0 Bft) W-NW 294 ° 1 min 193 W/m² 12,7 °C 14,3 °C 0,0 km/h (0 Bft)
20.08.2024 08:18 22,9 °C 14,4 °C 53 % 90 % 1016,0 hPa 0,0 l/m² 0,0 km/h (0 Bft) W-NW 294 ° 1 min 199 W/m² 12,8 °C 14,4 °C 0,0 km/h (0 Bft)
20.08.2024 08:19 23,0 °C 14,6 °C 53 % 90 % 1015,9 hPa 0,0 l/m² 0,0 km/h (0 Bft) W-NW 294 ° 1 min 202 W/m² 13,0 °C 14,6 °C 0,0 km/h (0 Bft)
20.08.2024 08:21 23,0 °C 14,7 °C 53 % 89 % 1015,9 hPa 0,0 l/m² 0,0 km/h (0 Bft) W-NW 294 ° 2 min 220 W/m² 12,9 °C 14,7 °C 0,0 km/h (0 Bft)
20.08.2024 08:23 23,0 °C 14,9 °C 53 % 89 % 1015,9 hPa 0,0 l/m² 0,0 km/h (0 Bft) W-NW 294 ° 2 min 232 W/m² 13,1 °C 14,9 °C 0,0 km/h (0 Bft)
20.08.2024 08:24 23,0 °C 15,0 °C 53 % 88 % 1015,9 hPa 0,0 l/m² 0,0 km/h (0 Bft) W-NW 294 ° 1 min 239 W/m² 13,0 °C 15,0 °C 0,0 km/h (0 Bft)
20.08.2024 08:25 23,0 °C 15,1 °C 53 % 88 % 1015,8 hPa 0,0 l/m² 0,0 km/h (0 Bft) W-NW 294 ° 1 min 244 W/m² 13,1 °C 15,1 °C 0,0 km/h (0 Bft)
20.08.2024 08:26 23,0 °C 15,1 °C 53 % 88 % 1015,9 hPa 0,0 l/m² 0,0 km/h (0 Bft) W-NW 294 ° 1 min 258 W/m² 13,1 °C 15,1 °C 0,0 km/h (0 Bft)
20.08.2024 08:27 23,0 °C 15,2 °C 53 % 88 % 1015,9 hPa 0,0 l/m² 0,0 km/h (0 Bft) W-NW 294 ° 1 min 265 W/m² 13,2 °C 15,2 °C 0,0 km/h (0 Bft)
20.08.2024 08:28 23,1 °C 15,3 °C 53 % 88 % 1015,9 hPa 0,0 l/m² 0,0 km/h (0 Bft) W-NW 294 ° 1 min 271 W/m² 13,3 °C 15,3 °C 0,0 km/h (0 Bft)
20.08.2024 08:29 23,1 °C 15,3 °C 54 % 87 % 1015,8 hPa 0,0 l/m² 0,7 km/h (0 Bft) W-NW 295 ° 1 min 278 W/m² 13,1 °C 15,3 °C 1,6 km/h (1 Bft)
20.08.2024 08:31 23,1 °C 15,4 °C 53 % 87 % 1015,9 hPa 0,0 l/m² 1,5 km/h (1 Bft) W-NW 296 ° 2 min 287 W/m² 13,2 °C 15,4 °C 3,2 km/h (1 Bft)
20.08.2024 08:33 23,1 °C 15,6 °C 54 % 86 % 1015,9 hPa 0,0 l/m² 0,2 km/h (0 Bft) W-NW 296 ° 2 min 301 W/m² 13,3 °C 15,6 °C 1,6 km/h (1 Bft)
20.08.2024 08:34 23,1 °C 15,7 °C 54 % 86 % 1015,9 hPa 0,0 l/m² 0,0 km/h (0 Bft) W-NW 302 ° 1 min 302 W/m² 13,4 °C 15,7 °C 0,0 km/h (0 Bft)
20.08.2024 08:35 23,1 °C 15,8 °C 54 % 87 % 1016,0 hPa 0,0 l/m² 0,0 km/h (0 Bft) S-SW 208 ° 1 min 306 W/m² 13,6 °C 15,8 °C 0,0 km/h (0 Bft)
20.08.2024 08:36 23,1 °C 15,9 °C 54 % 86 % 1015,8 hPa 0,0 l/m² 1,7 km/h (1 Bft) SO 144 ° 1 min 308 W/m² 13,6 °C 15,9 °C 4,8 km/h (1 Bft)
20.08.2024 08:37 23,1 °C 16,1 °C 54 % 86 % 1015,9 hPa 0,0 l/m² 1,9 km/h (1 Bft) SO 144 ° 1 min 309 W/m² 13,8 °C 16,1 °C 3,2 km/h (1 Bft)
20.08.2024 08:38 23,1 °C 16,2 °C 54 % 86 % 1015,9 hPa 0,0 l/m² 2,5 km/h (1 Bft) SO 144 ° 1 min 316 W/m² 13,9 °C 16,2 °C 3,2 km/h (1 Bft)
20.08.2024 08:39 23,1 °C 16,2 °C 54 % 85 % 1015,9 hPa 0,0 l/m² 2,7 km/h (1 Bft) SO 144 ° 1 min 320 W/m² 13,7 °C 16,2 °C 3,2 km/h (1 Bft)
20.08.2024 08:41 23,1 °C 16,4 °C 54 % 85 % 1015,8 hPa 0,0 l/m² 1,9 km/h (1 Bft) SO 143 ° 2 min 325 W/m² 13,9 °C 16,4 °C 3,2 km/h (1 Bft)
20.08.2024 08:43 23,1 °C 16,6 °C 54 % 85 % 1015,8 hPa 0,0 l/m² 1,2 km/h (1 Bft) SO 143 ° 2 min 330 W/m² 14,1 °C 16,6 °C 3,2 km/h (1 Bft)
20.08.2024 08:44 23,1 °C 16,7 °C 54 % 84 % 1015,9 hPa 0,0 l/m² 0,5 km/h (0 Bft) SO 143 ° 1 min 336 W/m² 14,0 °C 16,7 °C 1,6 km/h (1 Bft)
20.08.2024 08:45 23,1 °C 16,7 °C 54 % 84 % 1015,9 hPa 0,0 l/m² 1,5 km/h (1 Bft) SO 143 ° 1 min 338 W/m² 14,0 °C 16,7 °C 3,2 km/h (1 Bft)
20.08.2024 08:46 23,1 °C 16,8 °C 54 % 85 % 1015,9 hPa 0,0 l/m² 2,4 km/h (1 Bft) SO 142 ° 1 min 341 W/m² 14,3 °C 16,8 °C 3,2 km/h (1 Bft)
20.08.2024 08:47 23,1 °C 16,9 °C 54 % 84 % 1015,8 hPa 0,0 l/m² 2,7 km/h (1 Bft) SO 142 ° 1 min 345 W/m² 14,2 °C 16,9 °C 4,8 km/h (1 Bft)
20.08.2024 08:48 23,1 °C 16,9 °C 54 % 84 % 1015,9 hPa 0,0 l/m² 1,3 km/h (1 Bft) SO 142 ° 1 min 348 W/m² 14,2 °C 16,9 °C 3,2 km/h (1 Bft)
20.08.2024 08:49 23,1 °C 17,1 °C 54 % 84 % 1015,9 hPa 0,0 l/m² 1,8 km/h (1 Bft) SO 142 ° 1 min 352 W/m² 14,4 °C 17,1 °C 3,2 km/h (1 Bft)
20.08.2024 08:51 23,1 °C 17,3 °C 54 % 83 % 1015,8 hPa 0,0 l/m² 2,5 km/h (1 Bft) SO 141 ° 2 min 359 W/m² 14,4 °C 17,3 °C 4,8 km/h (1 Bft)
20.08.2024 08:53 23,1 °C 17,6 °C 54 % 83 % 1015,9 hPa 0,0 l/m² 2,6 km/h (1 Bft) SO 136 ° 2 min 364 W/m² 14,7 °C 17,6 °C 4,8 km/h (1 Bft)
20.08.2024 08:54 23,1 °C 17,7 °C 54 % 82 % 1015,9 hPa 0,0 l/m² 3,1 km/h (1 Bft) SO 136 ° 1 min 366 W/m² 14,6 °C 17,7 °C 4,8 km/h (1 Bft)
20.08.2024 08:55 23,1 °C 17,8 °C 54 % 82 % 1015,9 hPa 0,0 l/m² 1,3 km/h (1 Bft) SO 136 ° 1 min 371 W/m² 14,7 °C 17,8 °C 3,2 km/h (1 Bft)
20.08.2024 08:56 23,1 °C 17,9 °C 54 % 81 % 1015,8 hPa 0,0 l/m² 2,4 km/h (1 Bft) O 95 ° 1 min 374 W/m² 14,6 °C 17,9 °C 4,8 km/h (1 Bft)
20.08.2024 08:57 23,1 °C 18,0 °C 54 % 82 % 1015,8 hPa 0,0 l/m² 2,3 km/h (1 Bft) O 95 ° 1 min 378 W/m² 14,9 °C 18,0 °C 3,2 km/h (1 Bft)
20.08.2024 08:58 23,1 °C 18,1 °C 54 % 81 % 1015,9 hPa 0,0 l/m² 1,9 km/h (1 Bft) O 95 ° 1 min 378 W/m² 14,8 °C 18,1 °C 4,8 km/h (1 Bft)
20.08.2024 08:59 23,1 °C 18,2 °C 54 % 81 % 1015,8 hPa 0,0 l/m² 1,6 km/h (1 Bft) O 95 ° 1 min 380 W/m² 14,9 °C 18,2 °C 3,2 km/h (1 Bft)
20.08.2024 09:01 23,1 °C 18,3 °C 54 % 79 % 1015,8 hPa 0,0 l/m² 1,9 km/h (1 Bft) O 95 ° 2 min 390 W/m² 14,6 °C 18,3 °C 4,8 km/h (1 Bft)
20.08.2024 09:03 23,1 °C 18,3 °C 54 % 80 % 1015,7 hPa 0,0 l/m² 1,6 km/h (1 Bft) O 95 ° 2 min 394 W/m² 14,8 °C 18,3 °C 4,8 km/h (1 Bft)
20.08.2024 09:04 23,1 °C 18,4 °C 54 % 79 % 1015,8 hPa 0,0 l/m² 3,8 km/h (1 Bft) O 84 ° 1 min 396 W/m² 14,7 °C 18,4 °C 6,4 km/h (2 Bft)
20.08.2024 09:05 23,1 °C 18,5 °C 54 % 79 % 1015,7 hPa 0,0 l/m² 3,7 km/h (1 Bft) O 84 ° 1 min 399 W/m² 14,8 °C 18,5 °C 6,4 km/h (2 Bft)
20.08.2024 09:06 23,1 °C 18,6 °C 54 % 79 % 1015,8 hPa 0,0 l/m² 3,9 km/h (1 Bft) O 83 ° 1 min 403 W/m² 14,9 °C 18,6 °C 4,8 km/h (1 Bft)
20.08.2024 09:07 23,1 °C 18,7 °C 54 % 78 % 1015,7 hPa 0,0 l/m² 2,9 km/h (1 Bft) SO 143 ° 1 min 404 W/m² 14,8 °C 18,7 °C 6,4 km/h (2 Bft)
20.08.2024 09:08 23,1 °C 18,8 °C 54 % 78 % 1015,7 hPa 0,0 l/m² 4,0 km/h (1 Bft) O-SO 103 ° 1 min 410 W/m² 14,9 °C 18,8 °C 6,4 km/h (2 Bft)
20.08.2024 09:09 23,1 °C 19,0 °C 54 % 79 % 1015,7 hPa 0,0 l/m² 3,9 km/h (1 Bft) O-SO 104 ° 1 min 411 W/m² 15,3 °C 19,0 °C 6,4 km/h (2 Bft)
20.08.2024 09:11 23,1 °C 19,3 °C 54 % 76 % 1015,7 hPa 0,0 l/m² 6,3 km/h (2 Bft) SO 131 ° 2 min 415 W/m² 15,0 °C 19,3 °C 11,3 km/h (2 Bft)
20.08.2024 09:13 23,1 °C 19,5 °C 54 % 75 % 1015,6 hPa 0,0 l/m² 6,4 km/h (2 Bft) SO 128 ° 2 min 424 W/m² 14,9 °C 19,5 °C 9,7 km/h (2 Bft)
20.08.2024 09:14 23,1 °C 19,6 °C 54 % 75 % 1015,7 hPa 0,0 l/m² 9,4 km/h (2 Bft) SO 130 ° 1 min 427 W/m² 15,0 °C 18,4 °C 12,9 km/h (3 Bft)
20.08.2024 09:15 23,1 °C 19,7 °C 54 % 75 % 1015,6 hPa 0,0 l/m² 6,4 km/h (2 Bft) SO 126 ° 1 min 429 W/m² 15,1 °C 19,7 °C 11,3 km/h (2 Bft)
20.08.2024 09:16 23,1 °C 19,8 °C 54 % 73 % 1015,6 hPa 0,0 l/m² 5,3 km/h (1 Bft) SO 136 ° 1 min 431 W/m² 14,8 °C 19,8 °C 8,0 km/h (2 Bft)
20.08.2024 09:17 23,1 °C 19,8 °C 54 % 74 % 1015,6 hPa 0,0 l/m² 6,8 km/h (2 Bft) SO 129 ° 1 min 431 W/m² 15,0 °C 19,6 °C 9,7 km/h (2 Bft)
20.08.2024 09:18 23,1 °C 19,9 °C 54 % 73 % 1015,7 hPa 0,0 l/m² 7,0 km/h (2 Bft) SO 130 ° 1 min 432 W/m² 14,9 °C 19,7 °C 11,3 km/h (2 Bft)
20.08.2024 09:19 23,1 °C 19,8 °C 54 % 73 % 1015,7 hPa 0,0 l/m² 6,3 km/h (2 Bft) SO 128 ° 1 min 439 W/m² 14,8 °C 19,8 °C 8,0 km/h (2 Bft)
20.08.2024 09:21 23,1 °C 20,0 °C 54 % 73 % 1015,6 hPa 0,0 l/m² 5,9 km/h (2 Bft) SO 132 ° 2 min 443 W/m² 15,0 °C 20,0 °C 11,3 km/h (2 Bft)
20.08.2024 09:23 23,1 °C 20,1 °C 54 % 73 % 1015,6 hPa 0,0 l/m² 4,3 km/h (1 Bft) O-SO 123 ° 2 min 446 W/m² 15,1 °C 20,1 °C 6,4 km/h (2 Bft)
20.08.2024 09:24 23,1 °C 20,2 °C 54 % 73 % 1015,6 hPa 0,0 l/m² 4,3 km/h (1 Bft) O-SO 121 ° 1 min 450 W/m² 15,2 °C 20,2 °C 6,4 km/h (2 Bft)
20.08.2024 09:25 23,1 °C 20,3 °C 54 % 74 % 1015,6 hPa 0,0 l/m² 8,2 km/h (2 Bft) O 94 ° 1 min 457 W/m² 15,5 °C 19,6 °C 12,9 km/h (3 Bft)
20.08.2024 09:26 23,1 °C 20,4 °C 54 % 73 % 1015,6 hPa 0,0 l/m² 9,9 km/h (2 Bft) O-SO 113 ° 1 min 457 W/m² 15,4 °C 19,1 °C 11,3 km/h (2 Bft)
20.08.2024 09:28 23,1 °C 20,4 °C 54 % 72 % 1015,5 hPa 0,0 l/m² 9,5 km/h (2 Bft) O 96 ° 2 min 462 W/m² 15,2 °C 19,2 °C 14,5 km/h (3 Bft)
20.08.2024 09:29 23,1 °C 20,5 °C 54 % 72 % 1015,5 hPa 0,0 l/m² 12,3 km/h (2 Bft) O 90 ° 1 min 466 W/m² 15,3 °C 18,5 °C 16,1 km/h (3 Bft)
20.08.2024 09:31 23,1 °C 20,7 °C 55 % 71 % 1015,6 hPa 0,0 l/m² 11,0 km/h (2 Bft) O-SO 102 ° 2 min 473 W/m² 15,2 °C 19,1 °C 14,5 km/h (3 Bft)
20.08.2024 09:33 23,1 °C 20,8 °C 55 % 71 % 1015,6 hPa 0,0 l/m² 9,5 km/h (2 Bft) O-SO 105 ° 2 min 476 W/m² 15,3 °C 19,7 °C 12,9 km/h (3 Bft)
20.08.2024 09:34 23,1 °C 20,8 °C 55 % 70 % 1015,6 hPa 0,0 l/m² 6,4 km/h (2 Bft) O 101 ° 1 min 478 W/m² 15,1 °C 20,8 °C 9,7 km/h (2 Bft)
20.08.2024 09:35 23,1 °C 20,8 °C 55 % 71 % 1015,6 hPa 0,0 l/m² 6,8 km/h (2 Bft) O-NO 76 ° 1 min 480 W/m² 15,3 °C 20,7 °C 9,7 km/h (2 Bft)
20.08.2024 09:36 23,1 °C 20,9 °C 55 % 71 % 1015,6 hPa 0,0 l/m² 6,4 km/h (2 Bft) O 98 ° 1 min 482 W/m² 15,4 °C 20,9 °C 11,3 km/h (2 Bft)
20.08.2024 09:37 23,1 °C 20,9 °C 55 % 71 % 1015,6 hPa 0,0 l/m² 9,1 km/h (2 Bft) O-SO 114 ° 1 min 487 W/m² 15,4 °C 19,9 °C 12,9 km/h (3 Bft)
20.08.2024 09:38 23,2 °C 21,0 °C 55 % 70 % 1015,6 hPa 0,0 l/m² 8,2 km/h (2 Bft) O 92 ° 1 min 489 W/m² 15,3 °C 20,3 °C 11,3 km/h (2 Bft)
20.08.2024 09:39 23,1 °C 21,1 °C 55 % 71 % 1015,7 hPa 0,0 l/m² 8,2 km/h (2 Bft) O 88 ° 1 min 492 W/m² 15,6 °C 20,4 °C 11,3 km/h (2 Bft)
20.08.2024 09:41 23,1 °C 21,1 °C 55 % 70 % 1015,7 hPa 0,0 l/m² 5,8 km/h (2 Bft) O 92 ° 2 min 494 W/m² 15,4 °C 21,1 °C 9,7 km/h (2 Bft)
20.08.2024 09:43 23,1 °C 21,2 °C 55 % 69 % 1015,6 hPa 0,0 l/m² 5,5 km/h (2 Bft) S-SO 153 ° 2 min 501 W/m² 15,3 °C 21,2 °C 8,0 km/h (2 Bft)
20.08.2024 09:44 23,1 °C 21,2 °C 55 % 69 % 1015,5 hPa 0,0 l/m² 6,8 km/h (2 Bft) SO 140 ° 1 min 503 W/m² 15,3 °C 21,1 °C 11,3 km/h (2 Bft)
20.08.2024 09:46 23,1 °C 21,2 °C 55 % 69 % 1015,5 hPa 0,0 l/m² 7,2 km/h (2 Bft) SO 130 ° 2 min 508 W/m² 15,3 °C 20,9 °C 11,3 km/h (2 Bft)
20.08.2024 09:47 23,2 °C 21,3 °C 55 % 69 % 1015,5 hPa 0,0 l/m² 5,4 km/h (2 Bft) O-SO 108 ° 1 min 508 W/m² 15,4 °C 21,3 °C 11,3 km/h (2 Bft)
20.08.2024 09:48 23,2 °C 21,3 °C 55 % 69 % 1015,5 hPa 0,0 l/m² 6,8 km/h (2 Bft) O-NO 75 ° 1 min 510 W/m² 15,4 °C 21,2 °C 9,7 km/h (2 Bft)
20.08.2024 09:49 23,2 °C 21,3 °C 55 % 69 % 1015,4 hPa 0,0 l/m² 4,6 km/h (1 Bft) O-NO 76 ° 1 min 512 W/m² 15,4 °C 21,3 °C 6,4 km/h (2 Bft)
20.08.2024 09:51 23,1 °C 21,6 °C 55 % 71 % 1015,4 hPa 0,0 l/m² 6,8 km/h (2 Bft) SO 146 ° 2 min 517 W/m² 16,1 °C 21,5 °C 11,3 km/h (2 Bft)
20.08.2024 09:53 23,1 °C 21,9 °C 55 % 68 % 1015,5 hPa 0,0 l/m² 6,8 km/h (2 Bft) O 95 ° 2 min 519 W/m² 15,7 °C 21,8 °C 9,7 km/h (2 Bft)
20.08.2024 09:54 23,1 °C 22,0 °C 55 % 68 % 1015,5 hPa 0,0 l/m² 10,1 km/h (2 Bft) O 90 ° 1 min 524 W/m² 15,8 °C 20,8 °C 14,5 km/h (3 Bft)
20.08.2024 09:55 23,2 °C 22,1 °C 55 % 67 % 1015,4 hPa 0,0 l/m² 8,7 km/h (2 Bft) SO 138 ° 1 min 524 W/m² 15,7 °C 21,3 °C 11,3 km/h (2 Bft)
20.08.2024 09:56 23,2 °C 22,1 °C 55 % 66 % 1015,5 hPa 0,0 l/m² 7,8 km/h (2 Bft) O-SO 103 ° 1 min 526 W/m² 15,4 °C 21,6 °C 11,3 km/h (2 Bft)
20.08.2024 09:57 23,2 °C 22,0 °C 55 % 66 % 1015,5 hPa 0,0 l/m² 10,3 km/h (2 Bft) O 101 ° 1 min 527 W/m² 15,3 °C 20,8 °C 16,1 km/h (3 Bft)
20.08.2024 09:58 23,2 °C 22,0 °C 55 % 66 % 1015,5 hPa 0,0 l/m² 11,8 km/h (2 Bft) O 96 ° 1 min 529 W/m² 15,3 °C 20,4 °C 14,5 km/h (3 Bft)
20.08.2024 09:59 23,1 °C 22,0 °C 55 % 66 % 1015,5 hPa 0,0 l/m² 10,3 km/h (2 Bft) O 82 ° 1 min 531 W/m² 15,3 °C 20,8 °C 12,9 km/h (3 Bft)
20.08.2024 10:01 23,2 °C 22,1 °C 55 % 66 % 1015,4 hPa 0,0 l/m² 9,2 km/h (2 Bft) SO 138 ° 2 min 536 W/m² 15,4 °C 21,2 °C 14,5 km/h (3 Bft)
20.08.2024 10:03 23,2 °C 22,2 °C 55 % 67 % 1015,4 hPa 0,0 l/m² 9,3 km/h (2 Bft) SO 124 ° 2 min 541 W/m² 15,8 °C 21,3 °C 14,5 km/h (3 Bft)
20.08.2024 10:04 23,2 °C 22,2 °C 55 % 65 % 1015,4 hPa 0,0 l/m² 9,7 km/h (2 Bft) O-SO 111 ° 1 min 543 W/m² 15,3 °C 21,2 °C 12,9 km/h (3 Bft)
20.08.2024 10:05 23,2 °C 22,2 °C 55 % 65 % 1015,4 hPa 0,0 l/m² 10,3 km/h (2 Bft) SO 126 ° 1 min 547 W/m² 15,3 °C 21,0 °C 12,9 km/h (3 Bft)
20.08.2024 10:06 23,1 °C 22,2 °C 55 % 66 % 1015,4 hPa 0,0 l/m² 5,7 km/h (2 Bft) SO 124 ° 1 min 554 W/m² 15,5 °C 22,2 °C 8,0 km/h (2 Bft)
20.08.2024 10:07 23,2 °C 22,3 °C 55 % 65 % 1015,4 hPa 0,0 l/m² 8,6 km/h (2 Bft) O-SO 103 ° 1 min 554 W/m² 15,4 °C 21,6 °C 12,9 km/h (3 Bft)
20.08.2024 10:08 23,2 °C 22,3 °C 55 % 66 % 1015,5 hPa 0,0 l/m² 11,1 km/h (2 Bft) O-SO 122 ° 1 min 557 W/m² 15,6 °C 20,9 °C 14,5 km/h (3 Bft)
20.08.2024 10:09 23,2 °C 22,3 °C 55 % 64 % 1015,4 hPa 0,0 l/m² 4,8 km/h (1 Bft) SO 143 ° 1 min 559 W/m² 15,2 °C 22,3 °C 6,4 km/h (2 Bft)
20.08.2024 10:11 23,2 °C 22,2 °C 55 % 65 % 1015,4 hPa 0,0 l/m² 6,0 km/h (2 Bft) SO 132 ° 2 min 561 W/m² 15,3 °C 22,2 °C 12,9 km/h (3 Bft)
20.08.2024 10:13 23,2 °C 22,3 °C 55 % 65 % 1015,4 hPa 0,0 l/m² 7,6 km/h (2 Bft) SO 141 ° 2 min 566 W/m² 15,4 °C 21,9 °C 11,3 km/h (2 Bft)
20.08.2024 10:14 23,2 °C 22,3 °C 55 % 65 % 1015,4 hPa 0,0 l/m² 6,5 km/h (2 Bft) SO 128 ° 1 min 568 W/m² 15,4 °C 22,3 °C 8,0 km/h (2 Bft)
20.08.2024 10:15 23,2 °C 22,4 °C 55 % 65 % 1015,5 hPa 0,0 l/m² 6,2 km/h (2 Bft) SO 128 ° 1 min 571 W/m² 15,5 °C 22,4 °C 8,0 km/h (2 Bft)
20.08.2024 10:16 23,2 °C 22,4 °C 55 % 65 % 1015,5 hPa 0,0 l/m² 6,2 km/h (2 Bft) S-SO 167 ° 1 min 575 W/m² 15,5 °C 22,4 °C 12,9 km/h (3 Bft)
20.08.2024 10:17 23,2 °C 22,6 °C 55 % 65 % 1015,4 hPa 0,0 l/m² 6,0 km/h (2 Bft) SO 146 ° 1 min 578 W/m² 15,7 °C 22,6 °C 9,7 km/h (2 Bft)
20.08.2024 10:18 23,2 °C 22,6 °C 55 % 64 % 1015,4 hPa 0,0 l/m² 9,1 km/h (2 Bft) S 172 ° 1 min 580 W/m² 15,4 °C 21,8 °C 12,9 km/h (3 Bft)
20.08.2024 10:19 23,2 °C 22,6 °C 55 % 64 % 1015,5 hPa 0,0 l/m² 10,4 km/h (2 Bft) S-SO 168 ° 1 min 582 W/m² 15,4 °C 21,4 °C 16,1 km/h (3 Bft)
20.08.2024 10:21 23,2 °C 22,6 °C 55 % 64 % 1015,4 hPa 0,0 l/m² 8,2 km/h (2 Bft) SO 139 ° 2 min 582 W/m² 15,4 °C 22,0 °C 14,5 km/h (3 Bft)
20.08.2024 10:23 23,2 °C 22,6 °C 55 % 65 % 1015,5 hPa 0,0 l/m² 6,6 km/h (2 Bft) SO 146 ° 2 min 587 W/m² 15,7 °C 22,5 °C 12,9 km/h (3 Bft)
20.08.2024 10:24 23,2 °C 22,7 °C 55 % 65 % 1015,5 hPa 0,0 l/m² 7,8 km/h (2 Bft) S-SO 164 ° 1 min 587 W/m² 15,8 °C 22,2 °C 9,7 km/h (2 Bft)
20.08.2024 10:25 23,2 °C 22,7 °C 55 % 64 % 1015,4 hPa 0,0 l/m² 8,6 km/h (2 Bft) S 184 ° 1 min 591 W/m² 15,5 °C 22,0 °C 11,3 km/h (2 Bft)
20.08.2024 10:26 23,2 °C 22,7 °C 55 % 64 % 1015,4 hPa 0,0 l/m² 3,2 km/h (1 Bft) SO 125 ° 1 min 592 W/m² 15,5 °C 22,7 °C 6,4 km/h (2 Bft)
20.08.2024 10:27 23,2 °C 22,8 °C 55 % 64 % 1015,4 hPa 0,0 l/m² 6,7 km/h (2 Bft) SO 131 ° 1 min 594 W/m² 15,6 °C 22,7 °C 11,3 km/h (2 Bft)
20.08.2024 10:28 23,2 °C 22,8 °C 55 % 65 % 1015,4 hPa 0,0 l/m² 4,8 km/h (1 Bft) SO 126 ° 1 min 589 W/m² 15,9 °C 22,8 °C 6,4 km/h (2 Bft)
20.08.2024 10:29 23,2 °C 22,9 °C 55 % 65 % 1015,5 hPa 0,0 l/m² 7,5 km/h (2 Bft) S 170 ° 1 min 601 W/m² 16,0 °C 22,5 °C 11,3 km/h (2 Bft)
20.08.2024 10:31 23,2 °C 22,9 °C 55 % 64 % 1015,4 hPa 0,0 l/m² 8,1 km/h (2 Bft) S-SO 159 ° 2 min 605 W/m² 15,7 °C 22,4 °C 11,3 km/h (2 Bft)
20.08.2024 10:33 23,2 °C 23,0 °C 55 % 64 % 1015,3 hPa 0,0 l/m² 6,0 km/h (2 Bft) S 173 ° 2 min 610 W/m² 15,8 °C 23,0 °C 9,7 km/h (2 Bft)
20.08.2024 10:34 23,2 °C 23,2 °C 55 % 64 % 1015,4 hPa 0,0 l/m² 7,6 km/h (2 Bft) SO 127 ° 1 min 613 W/m² 16,0 °C 22,8 °C 12,9 km/h (3 Bft)
20.08.2024 10:35 23,2 °C 23,2 °C 55 % 63 % 1015,4 hPa 0,0 l/m² 8,0 km/h (2 Bft) SO 129 ° 1 min 612 W/m² 15,8 °C 22,7 °C 12,9 km/h (3 Bft)
20.08.2024 10:36 23,2 °C 23,2 °C 55 % 63 % 1015,4 hPa 0,0 l/m² 7,2 km/h (2 Bft) S-SO 149 ° 1 min 612 W/m² 15,8 °C 23,0 °C 11,3 km/h (2 Bft)
20.08.2024 10:37 23,2 °C 23,3 °C 55 % 64 % 1015,3 hPa 0,0 l/m² 6,7 km/h (2 Bft) S-SO 166 ° 1 min 615 W/m² 16,1 °C 23,2 °C 11,3 km/h (2 Bft)
20.08.2024 10:38 23,2 °C 23,4 °C 55 % 62 % 1015,3 hPa 0,0 l/m² 7,6 km/h (2 Bft) SO 143 ° 1 min 613 W/m² 15,7 °C 23,0 °C 9,7 km/h (2 Bft)
20.08.2024 10:39 23,2 °C 23,4 °C 55 % 63 % 1015,3 hPa 0,0 l/m² 3,4 km/h (1 Bft) S-SO 160 ° 1 min 615 W/m² 15,9 °C 23,4 °C 8,0 km/h (2 Bft)
20.08.2024 10:41 23,2 °C 23,3 °C 55 % 62 % 1015,3 hPa 0,0 l/m² 6,4 km/h (2 Bft) O-SO 119 ° 2 min 626 W/m² 15,6 °C 23,3 °C 9,7 km/h (2 Bft)
20.08.2024 10:43 23,2 °C 23,3 °C 55 % 63 % 1015,3 hPa 0,0 l/m² 5,8 km/h (2 Bft) O 91 ° 2 min 628 W/m² 15,9 °C 23,3 °C 9,7 km/h (2 Bft)
20.08.2024 10:44 23,2 °C 23,3 °C 55 % 62 % 1015,3 hPa 0,0 l/m² 11,5 km/h (2 Bft) O 91 ° 1 min 629 W/m² 15,6 °C 21,9 °C 14,5 km/h (3 Bft)
20.08.2024 10:45 23,2 °C 23,3 °C 55 % 62 % 1015,2 hPa 0,0 l/m² 10,2 km/h (2 Bft) O-NO 72 ° 1 min 628 W/m² 15,6 °C 22,2 °C 14,5 km/h (3 Bft)
20.08.2024 10:46 23,2 °C 23,5 °C 55 % 63 % 1015,3 hPa 0,0 l/m² 6,7 km/h (2 Bft) N-NO 33 ° 1 min 631 W/m² 16,0 °C 23,4 °C 12,9 km/h (3 Bft)
20.08.2024 10:47 23,2 °C 23,6 °C 55 % 63 % 1015,2 hPa 0,0 l/m² 7,7 km/h (2 Bft) O 101 ° 1 min 635 W/m² 16,1 °C 23,2 °C 11,3 km/h (2 Bft)
20.08.2024 10:48 23,2 °C 23,7 °C 55 % 62 % 1015,3 hPa 0,0 l/m² 11,5 km/h (2 Bft) O 96 ° 1 min 636 W/m² 16,0 °C 22,4 °C 14,5 km/h (3 Bft)
20.08.2024 10:49 23,2 °C 23,7 °C 55 % 62 % 1015,3 hPa 0,0 l/m² 10,6 km/h (2 Bft) O-SO 111 ° 1 min 642 W/m² 16,0 °C 22,6 °C 14,5 km/h (3 Bft)
20.08.2024 10:51 23,2 °C 23,8 °C 55 % 61 % 1015,3 hPa 0,0 l/m² 9,0 km/h (2 Bft) O 90 ° 2 min 649 W/m² 15,8 °C 23,1 °C 16,1 km/h (3 Bft)
20.08.2024 10:53 23,2 °C 23,9 °C 55 % 62 % 1015,2 hPa 0,0 l/m² 9,6 km/h (2 Bft) SO 136 ° 2 min 650 W/m² 16,2 °C 23,0 °C 14,5 km/h (3 Bft)
20.08.2024 10:54 23,2 °C 23,9 °C 55 % 61 % 1015,3 hPa 0,0 l/m² 11,3 km/h (2 Bft) SO 136 ° 1 min 650 W/m² 15,9 °C 22,7 °C 14,5 km/h (3 Bft)
20.08.2024 10:55 23,2 °C 23,9 °C 55 % 60 % 1015,2 hPa 0,0 l/m² 9,3 km/h (2 Bft) SO 134 ° 1 min 656 W/m² 15,7 °C 23,1 °C 14,5 km/h (3 Bft)
20.08.2024 10:56 23,2 °C 23,8 °C 55 % 60 % 1015,1 hPa 0,0 l/m² 4,6 km/h (1 Bft) S-SO 157 ° 1 min 657 W/m² 15,6 °C 23,8 °C 8,0 km/h (2 Bft)
20.08.2024 10:57 23,2 °C 23,7 °C 55 % 61 % 1015,2 hPa 0,0 l/m² 5,2 km/h (1 Bft) S-SO 147 ° 1 min 663 W/m² 15,7 °C 23,7 °C 8,0 km/h (2 Bft)
20.08.2024 10:58 23,2 °C 23,7 °C 55 % 60 % 1015,2 hPa 0,0 l/m² 6,4 km/h (2 Bft) O 86 ° 1 min 661 W/m² 15,5 °C 23,7 °C 8,0 km/h (2 Bft)
20.08.2024 10:59 23,2 °C 23,9 °C 55 % 61 % 1015,2 hPa 0,0 l/m² 8,7 km/h (2 Bft) O-SO 117 ° 1 min 675 W/m² 15,9 °C 23,3 °C 14,5 km/h (3 Bft)
20.08.2024 11:01 23,2 °C 23,9 °C 55 % 60 % 1015,1 hPa 0,0 l/m² 12,1 km/h (2 Bft) O-SO 111 ° 2 min 677 W/m² 15,7 °C 22,5 °C 16,1 km/h (3 Bft)
20.08.2024 11:03 23,2 °C 23,9 °C 55 % 59 % 1015,1 hPa 0,0 l/m² 9,8 km/h (2 Bft) O 99 ° 2 min 679 W/m² 15,4 °C 23,0 °C 14,5 km/h (3 Bft)
20.08.2024 11:04 23,2 °C 23,9 °C 55 % 59 % 1015,2 hPa 0,0 l/m² 10,8 km/h (2 Bft) O-SO 106 ° 1 min 679 W/m² 15,4 °C 22,8 °C 12,9 km/h (3 Bft)
20.08.2024 11:05 23,2 °C 23,9 °C 55 % 60 % 1015,1 hPa 0,0 l/m² 10,6 km/h (2 Bft) SO 145 ° 1 min 476 W/m² 15,7 °C 22,8 °C 17,7 km/h (3 Bft)
20.08.2024 11:06 23,2 °C 23,8 °C 55 % 60 % 1015,1 hPa 0,0 l/m² 9,9 km/h (2 Bft) SO 127 ° 1 min 476 W/m² 15,6 °C 22,9 °C 14,5 km/h (3 Bft)
20.08.2024 11:07 23,2 °C 23,9 °C 55 % 60 % 1015,1 hPa 0,0 l/m² 12,5 km/h (2 Bft) O 97 ° 1 min 700 W/m² 15,7 °C 22,4 °C 16,1 km/h (3 Bft)
20.08.2024 11:08 23,2 °C 24,0 °C 55 % 60 % 1015,1 hPa 0,0 l/m² 10,5 km/h (2 Bft) O-SO 102 ° 1 min 707 W/m² 15,7 °C 22,9 °C 14,5 km/h (3 Bft)
20.08.2024 11:09 23,2 °C 24,1 °C 55 % 58 % 1015,1 hPa 0,0 l/m² 9,8 km/h (2 Bft) O 101 ° 1 min 717 W/m² 15,3 °C 23,2 °C 12,9 km/h (3 Bft)
20.08.2024 11:11 23,2 °C 24,2 °C 55 % 59 % 1015,1 hPa 0,0 l/m² 8,0 km/h (2 Bft) O-SO 112 ° 2 min 726 W/m² 15,7 °C 23,8 °C 14,5 km/h (3 Bft)
20.08.2024 11:13 23,2 °C 24,2 °C 55 % 58 % 1015,1 hPa 0,0 l/m² 11,2 km/h (2 Bft) O 93 ° 2 min 476 W/m² 15,4 °C 23,0 °C 14,5 km/h (3 Bft)
20.08.2024 11:14 23,2 °C 24,2 °C 55 % 57 % 1015,1 hPa 0,0 l/m² 8,3 km/h (2 Bft) O-SO 116 ° 1 min 510 W/m² 15,1 °C 23,7 °C 12,9 km/h (3 Bft)
20.08.2024 11:15 23,2 °C 24,2 °C 55 % 57 % 1015,1 hPa 0,0 l/m² 6,6 km/h (2 Bft) O-SO 123 ° 1 min 501 W/m² 15,1 °C 24,2 °C 9,7 km/h (2 Bft)
20.08.2024 11:16 23,2 °C 24,1 °C 55 % 58 % 1015,1 hPa 0,0 l/m² 8,5 km/h (2 Bft) O-SO 113 ° 1 min 461 W/m² 15,3 °C 23,5 °C 14,5 km/h (3 Bft)
20.08.2024 11:17 23,2 °C 24,1 °C 55 % 59 % 1015,0 hPa 0,0 l/m² 9,4 km/h (2 Bft) SO 144 ° 1 min 480 W/m² 15,6 °C 23,3 °C 14,5 km/h (3 Bft)
20.08.2024 11:18 23,2 °C 23,9 °C 55 % 59 % 1015,1 hPa 0,0 l/m² 7,2 km/h (2 Bft) O 96 ° 1 min 557 W/m² 15,4 °C 23,7 °C 9,7 km/h (2 Bft)
20.08.2024 11:19 23,2 °C 24,0 °C 55 % 59 % 1015,1 hPa 0,0 l/m² 11,4 km/h (2 Bft) O 94 ° 1 min 557 W/m² 15,5 °C 22,8 °C 14,5 km/h (3 Bft)
20.08.2024 11:21 23,2 °C 24,2 °C 55 % 58 % 1015,1 hPa 0,0 l/m² 10,0 km/h (2 Bft) O 90 ° 2 min 557 W/m² 15,4 °C 23,3 °C 14,5 km/h (3 Bft)
20.08.2024 11:23 23,2 °C 24,4 °C 56 % 58 % 1015,0 hPa 0,0 l/m² 8,4 km/h (2 Bft) O 95 ° 2 min 689 W/m² 15,6 °C 23,9 °C 12,9 km/h (3 Bft)
20.08.2024 11:24 23,2 °C 24,4 °C 56 % 57 % 1015,0 hPa 0,0 l/m² 8,9 km/h (2 Bft) O-SO 114 ° 1 min 689 W/m² 15,3 °C 23,7 °C 11,3 km/h (2 Bft)
20.08.2024 11:25 23,2 °C 24,5 °C 55 % 59 % 1015,0 hPa 0,0 l/m² 7,9 km/h (2 Bft) O 84 ° 1 min 689 W/m² 15,9 °C 24,1 °C 16,1 km/h (3 Bft)
20.08.2024 11:26 23,2 °C 24,7 °C 55 % 58 % 1015,0 hPa 0,0 l/m² 12,2 km/h (2 Bft) O 94 ° 1 min 638 W/m² 15,9 °C 23,4 °C 16,1 km/h (3 Bft)
20.08.2024 11:27 23,2 °C 24,8 °C 55 % 57 % 1015,0 hPa 0,0 l/m² 11,9 km/h (2 Bft) SO 136 ° 1 min 638 W/m² 15,7 °C 23,6 °C 14,5 km/h (3 Bft)
20.08.2024 11:28 23,2 °C 24,7 °C 56 % 55 % 1014,9 hPa 0,0 l/m² 7,8 km/h (2 Bft) SO 130 ° 1 min 485 W/m² 15,0 °C 24,3 °C 12,9 km/h (3 Bft)
20.08.2024 11:29 23,2 °C 24,6 °C 56 % 56 % 1014,9 hPa 0,0 l/m² 4,7 km/h (1 Bft) O-SO 122 ° 1 min 461 W/m² 15,2 °C 24,6 °C 9,7 km/h (2 Bft)
20.08.2024 11:31 23,2 °C 24,3 °C 55 % 57 % 1014,9 hPa 0,0 l/m² 6,5 km/h (2 Bft) SO 133 ° 2 min 445 W/m² 15,2 °C 24,3 °C 12,9 km/h (3 Bft)
20.08.2024 11:32 23,2 °C 24,3 °C 55 % 57 % 1014,9 hPa 0,0 l/m² 7,7 km/h (2 Bft) S-SO 150 ° 1 min 424 W/m² 15,2 °C 23,9 °C 11,3 km/h (2 Bft)
20.08.2024 11:33 23,2 °C 24,2 °C 55 % 57 % 1014,9 hPa 0,0 l/m² 6,8 km/h (2 Bft) SO 135 ° 1 min 415 W/m² 15,1 °C 24,1 °C 11,3 km/h (2 Bft)
20.08.2024 11:34 23,2 °C 24,1 °C 55 % 58 % 1014,9 hPa 0,0 l/m² 7,6 km/h (2 Bft) S-SO 148 ° 1 min 425 W/m² 15,3 °C 23,8 °C 12,9 km/h (3 Bft)
20.08.2024 11:35 23,2 °C 24,1 °C 55 % 58 % 1014,9 hPa 0,0 l/m² 10,9 km/h (2 Bft) SO 144 ° 1 min 392 W/m² 15,3 °C 23,0 °C 12,9 km/h (3 Bft)
20.08.2024 11:36 23,2 °C 24,2 °C 55 % 58 % 1014,9 hPa 0,0 l/m² 8,5 km/h (2 Bft) SO 134 ° 1 min 394 W/m² 15,4 °C 23,6 °C 14,5 km/h (3 Bft)
20.08.2024 11:37 23,2 °C 24,1 °C 55 % 58 % 1014,9 hPa 0,0 l/m² 8,4 km/h (2 Bft) SO 130 ° 1 min 390 W/m² 15,3 °C 23,6 °C 12,9 km/h (3 Bft)
20.08.2024 11:38 23,2 °C 24,1 °C 55 % 58 % 1014,9 hPa 0,0 l/m² 6,2 km/h (2 Bft) O-SO 120 ° 1 min 392 W/m² 15,3 °C 24,1 °C 8,0 km/h (2 Bft)
20.08.2024 11:39 23,2 °C 24,1 °C 55 % 59 % 1014,9 hPa 0,0 l/m² 8,0 km/h (2 Bft) S-SO 157 ° 1 min 399 W/m² 15,6 °C 23,7 °C 11,3 km/h (2 Bft)
20.08.2024 11:40 23,2 °C 24,1 °C 56 % 59 % 1014,9 hPa 0,0 l/m² 9,1 km/h (2 Bft) S-SO 147 ° 1 min 399 W/m² 15,6 °C 23,4 °C 11,3 km/h (2 Bft)
20.08.2024 11:41 23,2 °C 24,1 °C 55 % 59 % 1014,8 hPa 0,0 l/m² 5,3 km/h (1 Bft) S-SO 159 ° 1 min 394 W/m² 15,6 °C 24,1 °C 8,0 km/h (2 Bft)
20.08.2024 11:42 23,2 °C 24,0 °C 55 % 59 % 1014,9 hPa 0,0 l/m² 6,9 km/h (2 Bft) S 180 ° 1 min 387 W/m² 15,5 °C 23,9 °C 11,3 km/h (2 Bft)
20.08.2024 11:43 23,2 °C 24,1 °C 56 % 60 % 1014,8 hPa 0,0 l/m² 8,7 km/h (2 Bft) S 175 ° 1 min 385 W/m² 15,8 °C 23,5 °C 12,9 km/h (3 Bft)
20.08.2024 11:44 23,2 °C 24,1 °C 56 % 59 % 1014,8 hPa 0,0 l/m² 9,2 km/h (2 Bft) S 169 ° 1 min 380 W/m² 15,6 °C 23,4 °C 11,3 km/h (2 Bft)
20.08.2024 11:45 23,2 °C 24,1 °C 56 % 59 % 1014,8 hPa 0,0 l/m² 7,8 km/h (2 Bft) SO 146 ° 1 min 352 W/m² 15,6 °C 23,7 °C 9,7 km/h (2 Bft)
20.08.2024 11:46 23,2 °C 24,0 °C 56 % 60 % 1014,9 hPa 0,0 l/m² 4,9 km/h (1 Bft) S-SO 149 ° 1 min 343 W/m² 15,7 °C 24,0 °C 6,4 km/h (2 Bft)
20.08.2024 11:47 23,2 °C 24,1 °C 56 % 61 % 1014,8 hPa 0,0 l/m² 7,3 km/h (2 Bft) S-SO 153 ° 1 min 338 W/m² 16,1 °C 23,8 °C 11,3 km/h (2 Bft)
20.08.2024 11:48 23,2 °C 24,2 °C 56 % 60 % 1014,8 hPa 0,0 l/m² 9,4 km/h (2 Bft) S-SO 155 ° 1 min 339 W/m² 15,9 °C 23,4 °C 14,5 km/h (3 Bft)
20.08.2024 11:49 23,2 °C 24,1 °C 56 % 59 % 1014,8 hPa 0,0 l/m² 6,4 km/h (2 Bft) S-SO 153 ° 1 min 348 W/m² 15,6 °C 24,1 °C 11,3 km/h (2 Bft)
20.08.2024 11:50 23,2 °C 24,1 °C 56 % 60 % 1014,7 hPa 0,0 l/m² 5,7 km/h (2 Bft) S 169 ° 1 min 362 W/m² 15,8 °C 24,1 °C 8,0 km/h (2 Bft)
20.08.2024 11:51 23,2 °C 24,1 °C 56 % 60 % 1014,7 hPa 0,0 l/m² 9,6 km/h (2 Bft) S-SO 155 ° 1 min 401 W/m² 15,8 °C 23,3 °C 11,3 km/h (2 Bft)
20.08.2024 11:52 23,2 °C 24,1 °C 56 % 60 % 1014,8 hPa 0,0 l/m² 10,5 km/h (2 Bft) S-SO 162 ° 1 min 429 W/m² 15,8 °C 23,1 °C 14,5 km/h (3 Bft)
20.08.2024 11:53 23,2 °C 24,2 °C 56 % 60 % 1014,6 hPa 0,0 l/m² 11,7 km/h (2 Bft) S-SO 163 ° 1 min 454 W/m² 15,9 °C 22,9 °C 12,9 km/h (3 Bft)
20.08.2024 11:54 23,2 °C 24,2 °C 56 % 59 % 1014,7 hPa 0,0 l/m² 10,9 km/h (2 Bft) S-SO 157 ° 1 min 483 W/m² 15,7 °C 23,1 °C 12,9 km/h (3 Bft)
20.08.2024 11:55 23,2 °C 24,1 °C 56 % 59 % 1014,6 hPa 0,0 l/m² 9,2 km/h (2 Bft) S-SO 165 ° 1 min 515 W/m² 15,6 °C 23,4 °C 14,5 km/h (3 Bft)
20.08.2024 11:56 23,2 °C 24,1 °C 56 % 59 % 1014,6 hPa 0,0 l/m² 11,8 km/h (2 Bft) S 171 ° 1 min 527 W/m² 15,6 °C 22,8 °C 17,7 km/h (3 Bft)
20.08.2024 11:57 23,2 °C 24,2 °C 56 % 60 % 1014,6 hPa 0,0 l/m² 12,8 km/h (3 Bft) SO 140 ° 1 min 482 W/m² 15,9 °C 22,7 °C 16,1 km/h (3 Bft)
20.08.2024 11:58 23,2 °C 24,2 °C 56 % 59 % 1014,6 hPa 0,0 l/m² 11,2 km/h (2 Bft) O-SO 123 ° 1 min 461 W/m² 15,7 °C 23,0 °C 12,9 km/h (3 Bft)
20.08.2024 11:59 23,2 °C 24,3 °C 56 % 59 % 1014,6 hPa 0,0 l/m² 8,4 km/h (2 Bft) SO 128 ° 1 min 436 W/m² 15,8 °C 23,8 °C 11,3 km/h (2 Bft)
20.08.2024 12:00 23,2 °C 24,2 °C 56 % 59 % 1014,6 hPa 0,0 l/m² 7,9 km/h (2 Bft) SO 144 ° 1 min 425 W/m² 15,7 °C 23,8 °C 11,3 km/h (2 Bft)
20.08.2024 12:01 23,2 °C 24,2 °C 56 % 59 % 1014,6 hPa 0,0 l/m² 5,4 km/h (2 Bft) SO 142 ° 1 min 425 W/m² 15,7 °C 24,2 °C 8,0 km/h (2 Bft)
20.08.2024 12:02 23,2 °C 24,2 °C 56 % 60 % 1014,6 hPa 0,0 l/m² 1,6 km/h (1 Bft) S-SO 165 ° 1 min 350 W/m² 15,9 °C 24,2 °C 3,2 km/h (1 Bft)
20.08.2024 12:03 23,2 °C 24,1 °C 56 % 59 % 1014,6 hPa 0,0 l/m² 6,4 km/h (2 Bft) O-SO 120 ° 1 min 429 W/m² 15,6 °C 24,1 °C 11,3 km/h (2 Bft)
20.08.2024 12:04 23,2 °C 24,1 °C 56 % 60 % 1014,6 hPa 0,0 l/m² 11,1 km/h (2 Bft) SO 136 ° 1 min 441 W/m² 15,8 °C 22,9 °C 14,5 km/h (3 Bft)
20.08.2024 12:05 23,2 °C 24,0 °C 56 % 60 % 1014,5 hPa 0,0 l/m² 7,0 km/h (2 Bft) SO 128 ° 1 min 482 W/m² 15,7 °C 23,8 °C 11,3 km/h (2 Bft)
20.08.2024 12:06 23,2 °C 24,1 °C 56 % 60 % 1014,5 hPa 0,0 l/m² 6,4 km/h (2 Bft) S-SO 162 ° 1 min 482 W/m² 15,8 °C 24,1 °C 9,7 km/h (2 Bft)
20.08.2024 12:07 23,2 °C 24,2 °C 56 % 60 % 1014,5 hPa 0,0 l/m² 10,3 km/h (2 Bft) S 171 ° 1 min 482 W/m² 15,9 °C 23,2 °C 17,7 km/h (3 Bft)
20.08.2024 12:08 23,2 °C 24,3 °C 56 % 58 % 1014,5 hPa 0,0 l/m² 13,8 km/h (3 Bft) S-SO 163 ° 1 min 1041 W/m² 15,5 °C 22,7 °C 19,3 km/h (3 Bft)
20.08.2024 12:09 23,2 °C 24,4 °C 56 % 59 % 1014,5 hPa 0,0 l/m² 8,7 km/h (2 Bft) S 169 ° 1 min 951 W/m² 15,9 °C 23,8 °C 12,9 km/h (3 Bft)
20.08.2024 12:10 23,2 °C 24,4 °C 56 % 57 % 1014,5 hPa 0,0 l/m² 3,4 km/h (1 Bft) S 178 ° 1 min 916 W/m² 15,3 °C 24,4 °C 8,0 km/h (2 Bft)
20.08.2024 12:11 23,2 °C 24,6 °C 56 % 59 % 1014,5 hPa 0,0 l/m² 4,3 km/h (1 Bft) S-SW 203 ° 1 min 879 W/m² 16,0 °C 24,6 °C 4,8 km/h (1 Bft)
20.08.2024 12:12 23,2 °C 24,7 °C 56 % 58 % 1014,6 hPa 0,0 l/m² 9,5 km/h (2 Bft) S 185 ° 1 min 849 W/m² 15,9 °C 23,9 °C 12,9 km/h (3 Bft)
20.08.2024 12:13 23,2 °C 24,8 °C 56 % 57 % 1014,4 hPa 0,0 l/m² 12,1 km/h (2 Bft) S-SO 166 ° 1 min 826 W/m² 15,7 °C 23,5 °C 16,1 km/h (3 Bft)
20.08.2024 12:14 23,2 °C 24,9 °C 56 % 56 % 1014,4 hPa 0,0 l/m² 8,7 km/h (2 Bft) S-SO 157 ° 1 min 809 W/m² 15,5 °C 24,3 °C 11,3 km/h (2 Bft)
20.08.2024 12:15 23,2 °C 24,9 °C 56 % 57 % 1014,5 hPa 0,0 l/m² 7,2 km/h (2 Bft) O-SO 116 ° 1 min 779 W/m² 15,8 °C 24,7 °C 9,7 km/h (2 Bft)
20.08.2024 12:16 23,2 °C 25,1 °C 56 % 57 % 1014,4 hPa 0,0 l/m² 8,0 km/h (2 Bft) S-SO 150 ° 1 min 775 W/m² 16,0 °C 24,7 °C 11,3 km/h (2 Bft)
20.08.2024 12:18 23,2 °C 25,2 °C 56 % 56 % 1014,4 hPa 0,0 l/m² 6,8 km/h (2 Bft) S-SO 147 ° 2 min 766 W/m² 15,8 °C 25,1 °C 14,5 km/h (3 Bft)
20.08.2024 12:19 23,2 °C 25,3 °C 56 % 55 % 1014,4 hPa 0,0 l/m² 7,7 km/h (2 Bft) SO 142 ° 1 min 765 W/m² 15,6 °C 25,0 °C 11,3 km/h (2 Bft)
20.08.2024 12:20 23,2 °C 25,1 °C 56 % 56 % 1014,4 hPa 0,0 l/m² 8,9 km/h (2 Bft) S-SO 158 ° 1 min 768 W/m² 15,7 °C 24,5 °C 12,9 km/h (3 Bft)
20.08.2024 12:21 23,2 °C 25,1 °C 56 % 56 % 1014,4 hPa 0,0 l/m² 10,5 km/h (2 Bft) S-SO 152 ° 1 min 775 W/m² 15,7 °C 24,2 °C 12,9 km/h (3 Bft)
20.08.2024 12:22 23,2 °C 25,2 °C 56 % 56 % 1014,4 hPa 0,0 l/m² 12,9 km/h (3 Bft) S-SO 160 ° 1 min 775 W/m² 15,8 °C 23,9 °C 16,1 km/h (3 Bft)
20.08.2024 12:23 23,2 °C 25,3 °C 56 % 55 % 1014,4 hPa 0,0 l/m² 9,9 km/h (2 Bft) S-SO 154 ° 1 min 772 W/m² 15,6 °C 24,5 °C 12,9 km/h (3 Bft)
20.08.2024 12:24 23,2 °C 25,2 °C 56 % 54 % 1014,3 hPa 0,0 l/m² 4,8 km/h (1 Bft) S-SO 150 ° 1 min 766 W/m² 15,2 °C 25,2 °C 8,0 km/h (2 Bft)
20.08.2024 12:25 23,2 °C 25,1 °C 56 % 55 % 1014,4 hPa 0,0 l/m² 1,9 km/h (1 Bft) S 186 ° 1 min 763 W/m² 15,4 °C 25,1 °C 8,0 km/h (2 Bft)
20.08.2024 12:26 23,2 °C 25,1 °C 56 % 56 % 1014,3 hPa 0,0 l/m² 9,1 km/h (2 Bft) S 178 ° 1 min 772 W/m² 15,7 °C 24,5 °C 12,9 km/h (3 Bft)
20.08.2024 12:27 23,2 °C 25,2 °C 56 % 55 % 1014,3 hPa 0,0 l/m² 3,4 km/h (1 Bft) S 188 ° 1 min 773 W/m² 15,5 °C 25,2 °C 8,0 km/h (2 Bft)
20.08.2024 12:28 23,2 °C 25,1 °C 56 % 55 % 1014,1 hPa 0,0 l/m² 6,2 km/h (2 Bft) O-SO 119 ° 1 min 775 W/m² 15,4 °C 25,1 °C 11,3 km/h (2 Bft)
20.08.2024 12:29 23,2 °C 25,1 °C 56 % 57 % 1014,1 hPa 0,0 l/m² 8,2 km/h (2 Bft) SO 128 ° 1 min 779 W/m² 16,0 °C 24,7 °C 12,9 km/h (3 Bft)
20.08.2024 12:30 23,2 °C 25,2 °C 56 % 55 % 1014,1 hPa 0,0 l/m² 10,4 km/h (2 Bft) SO 146 ° 1 min 775 W/m² 15,5 °C 24,3 °C 16,1 km/h (3 Bft)
20.08.2024 12:31 23,2 °C 25,2 °C 56 % 55 % 1014,2 hPa 0,0 l/m² 10,8 km/h (2 Bft) S-SO 159 ° 1 min 777 W/m² 15,5 °C 24,2 °C 12,9 km/h (3 Bft)
20.08.2024 12:32 23,2 °C 25,2 °C 56 % 55 % 1014,1 hPa 0,0 l/m² 9,4 km/h (2 Bft) S 175 ° 1 min 780 W/m² 15,5 °C 24,5 °C 12,9 km/h (3 Bft)
20.08.2024 12:33 23,2 °C 25,3 °C 56 % 55 % 1014,1 hPa 0,0 l/m² 10,4 km/h (2 Bft) S-SO 157 ° 1 min 782 W/m² 15,6 °C 24,4 °C 17,7 km/h (3 Bft)
20.08.2024 12:34 23,2 °C 25,3 °C 56 % 55 % 1014,1 hPa 0,0 l/m² 8,3 km/h (2 Bft) S-SW 194 ° 1 min 782 W/m² 15,6 °C 24,8 °C 11,3 km/h (2 Bft)
20.08.2024 12:35 23,2 °C 25,3 °C 56 % 54 % 1014,1 hPa 0,0 l/m² 5,7 km/h (2 Bft) S-SW 193 ° 1 min 779 W/m² 15,3 °C 25,3 °C 8,0 km/h (2 Bft)
20.08.2024 12:36 23,2 °C 25,3 °C 56 % 55 % 1014,0 hPa 0,0 l/m² 8,7 km/h (2 Bft) S 177 ° 1 min 782 W/m² 15,6 °C 24,8 °C 14,5 km/h (3 Bft)
20.08.2024 12:37 23,2 °C 25,1 °C 56 % 54 % 1014,1 hPa 0,0 l/m² 5,0 km/h (1 Bft) S 178 ° 1 min 779 W/m² 15,1 °C 25,1 °C 12,9 km/h (3 Bft)
20.08.2024 12:38 23,2 °C 25,1 °C 56 % 55 % 1014,0 hPa 0,0 l/m² 5,3 km/h (1 Bft) SO 138 ° 1 min 782 W/m² 15,4 °C 25,1 °C 12,9 km/h (3 Bft)
20.08.2024 12:39 23,2 °C 25,1 °C 56 % 55 % 1014,0 hPa 0,0 l/m² 11,4 km/h (2 Bft) S-SO 163 ° 1 min 782 W/m² 15,4 °C 24,0 °C 14,5 km/h (3 Bft)
20.08.2024 12:40 23,2 °C 25,1 °C 56 % 55 % 1014,1 hPa 0,0 l/m² 9,4 km/h (2 Bft) S-SO 159 ° 1 min 782 W/m² 15,4 °C 24,4 °C 14,5 km/h (3 Bft)
20.08.2024 12:41 23,2 °C 25,2 °C 56 % 56 % 1014,1 hPa 0,0 l/m² 8,0 km/h (2 Bft) S-SO 158 ° 1 min 784 W/m² 15,8 °C 24,8 °C 9,7 km/h (2 Bft)
20.08.2024 12:42 23,2 °C 25,3 °C 56 % 56 % 1014,1 hPa 0,0 l/m² 7,2 km/h (2 Bft) S-SO 167 ° 1 min 780 W/m² 15,9 °C 25,1 °C 11,3 km/h (2 Bft)
20.08.2024 12:43 23,2 °C 25,6 °C 56 % 54 % 1014,1 hPa 0,0 l/m² 5,5 km/h (2 Bft) S-SO 159 ° 1 min 788 W/m² 15,6 °C 25,6 °C 8,0 km/h (2 Bft)
20.08.2024 12:44 23,2 °C 25,6 °C 56 % 54 % 1014,0 hPa 0,0 l/m² 8,0 km/h (2 Bft) S 178 ° 1 min 788 W/m² 15,6 °C 25,2 °C 12,9 km/h (3 Bft)
20.08.2024 12:46 23,2 °C 25,7 °C 56 % 55 % 1014,0 hPa 0,0 l/m² 3,6 km/h (1 Bft) S 188 ° 2 min 784 W/m² 16,0 °C 25,7 °C 9,7 km/h (2 Bft)
20.08.2024 12:47 23,2 °C 25,8 °C 56 % 53 % 1014,0 hPa 0,0 l/m² 7,2 km/h (2 Bft) S-SO 157 ° 1 min 784 W/m² 15,5 °C 25,6 °C 12,9 km/h (3 Bft)
20.08.2024 12:48 23,2 °C 25,9 °C 56 % 53 % 1013,9 hPa 0,0 l/m² 10,1 km/h (2 Bft) SO 142 ° 1 min 786 W/m² 15,6 °C 25,1 °C 12,9 km/h (3 Bft)
20.08.2024 12:49 23,2 °C 26,0 °C 56 % 53 % 1014,0 hPa 0,0 l/m² 10,7 km/h (2 Bft) SO 138 ° 1 min 784 W/m² 15,7 °C 25,1 °C 16,1 km/h (3 Bft)
20.08.2024 12:50 23,2 °C 25,9 °C 56 % 53 % 1014,0 hPa 0,0 l/m² 5,6 km/h (2 Bft) SO 126 ° 1 min 788 W/m² 15,6 °C 25,9 °C 6,4 km/h (2 Bft)
20.08.2024 12:51 23,2 °C 25,7 °C 56 % 53 % 1014,0 hPa 0,0 l/m² 4,5 km/h (1 Bft) O-SO 119 ° 1 min 789 W/m² 15,4 °C 25,7 °C 6,4 km/h (2 Bft)
20.08.2024 12:52 23,2 °C 25,5 °C 56 % 53 % 1014,0 hPa 0,0 l/m² 7,1 km/h (2 Bft) SO 132 ° 1 min 789 W/m² 15,2 °C 25,3 °C 12,9 km/h (3 Bft)
20.08.2024 12:53 23,2 °C 25,6 °C 56 % 54 % 1013,9 hPa 0,0 l/m² 4,7 km/h (1 Bft) S-SO 159 ° 1 min 788 W/m² 15,6 °C 25,6 °C 8,0 km/h (2 Bft)
20.08.2024 12:54 23,2 °C 25,7 °C 56 % 53 % 1013,9 hPa 0,0 l/m² 4,7 km/h (1 Bft) S-SO 163 ° 1 min 788 W/m² 15,4 °C 25,7 °C 8,0 km/h (2 Bft)
20.08.2024 12:55 23,2 °C 25,7 °C 56 % 54 % 1013,9 hPa 0,0 l/m² 3,8 km/h (1 Bft) SO 134 ° 1 min 786 W/m² 15,7 °C 25,7 °C 6,4 km/h (2 Bft)
20.08.2024 12:56 23,2 °C 25,8 °C 56 % 54 % 1013,9 hPa 0,0 l/m² 4,2 km/h (1 Bft) SO 139 ° 1 min 789 W/m² 15,8 °C 25,8 °C 6,4 km/h (2 Bft)
20.08.2024 12:58 23,2 °C 25,7 °C 56 % 53 % 1013,9 hPa 0,0 l/m² 5,6 km/h (2 Bft) O 97 ° 2 min 786 W/m² 15,4 °C 25,7 °C 11,3 km/h (2 Bft)
20.08.2024 12:59 23,2 °C 25,9 °C 56 % 56 % 1013,9 hPa 0,0 l/m² 3,7 km/h (1 Bft) O-NO 71 ° 1 min 784 W/m² 16,4 °C 25,9 °C 6,4 km/h (2 Bft)
20.08.2024 13:00 23,2 °C 26,0 °C 56 % 54 % 1013,9 hPa 0,0 l/m² 1,5 km/h (1 Bft) O-NO 71 ° 1 min 786 W/m² 16,0 °C 26,0 °C 3,2 km/h (1 Bft)
20.08.2024 13:02 23,2 °C 26,2 °C 56 % 55 % 1013,9 hPa 0,0 l/m² 4,0 km/h (1 Bft) O-NO 65 ° 2 min 793 W/m² 16,4 °C 26,2 °C 8,0 km/h (2 Bft)
20.08.2024 13:03 23,2 °C 26,4 °C 56 % 57 % 1013,9 hPa 0,0 l/m² 4,4 km/h (1 Bft) O 86 ° 1 min 793 W/m² 17,2 °C 26,4 °C 6,4 km/h (2 Bft)
20.08.2024 13:04 23,2 °C 26,4 °C 56 % 54 % 1013,8 hPa 0,0 l/m² 5,8 km/h (2 Bft) O-NO 78 ° 1 min 795 W/m² 16,3 °C 26,4 °C 9,7 km/h (2 Bft)
20.08.2024 13:05 23,2 °C 26,5 °C 56 % 55 % 1013,7 hPa 0,0 l/m² 10,6 km/h (2 Bft) O 88 ° 1 min 793 W/m² 16,7 °C 25,7 °C 17,7 km/h (3 Bft)
20.08.2024 13:06 23,2 °C 26,7 °C 56 % 54 % 1013,9 hPa 0,0 l/m² 8,0 km/h (2 Bft) NO 50 ° 1 min 788 W/m² 16,6 °C 26,4 °C 14,5 km/h (3 Bft)
20.08.2024 13:07 23,2 °C 26,8 °C 56 % 54 % 1013,9 hPa 0,0 l/m² 4,0 km/h (1 Bft) O-SO 105 ° 1 min 793 W/m² 16,7 °C 26,8 °C 6,4 km/h (2 Bft)
20.08.2024 13:08 23,2 °C 26,8 °C 56 % 52 % 1013,8 hPa 0,0 l/m² 8,1 km/h (2 Bft) S-SO 164 ° 1 min 791 W/m² 16,1 °C 26,5 °C 9,7 km/h (2 Bft)
20.08.2024 13:09 23,2 °C 26,8 °C 56 % 52 % 1013,8 hPa 0,0 l/m² 12,5 km/h (2 Bft) S-SO 148 ° 1 min 795 W/m² 16,1 °C 25,8 °C 14,5 km/h (3 Bft)
20.08.2024 13:10 23,2 °C 26,7 °C 56 % 52 % 1013,9 hPa 0,0 l/m² 10,2 km/h (2 Bft) S 179 ° 1 min 816 W/m² 16,0 °C 26,0 °C 12,9 km/h (3 Bft)
20.08.2024 13:12 23,2 °C 26,2 °C 56 % 54 % 1013,8 hPa 0,0 l/m² 3,9 km/h (1 Bft) S 179 ° 2 min 789 W/m² 16,1 °C 26,2 °C 9,7 km/h (2 Bft)
20.08.2024 13:13 23,2 °C 26,2 °C 56 % 54 % 1013,8 hPa 0,0 l/m² 4,7 km/h (1 Bft) S-SW 213 ° 1 min 789 W/m² 16,1 °C 26,2 °C 8,0 km/h (2 Bft)
20.08.2024 13:14 23,2 °C 26,1 °C 56 % 54 % 1013,8 hPa 0,0 l/m² 5,6 km/h (2 Bft) S-SW 201 ° 1 min 786 W/m² 16,0 °C 26,1 °C 8,0 km/h (2 Bft)
20.08.2024 13:15 23,2 °C 26,1 °C 56 % 53 % 1013,7 hPa 0,0 l/m² 4,4 km/h (1 Bft) S-SW 206 ° 1 min 784 W/m² 15,8 °C 26,1 °C 6,4 km/h (2 Bft)
20.08.2024 13:16 23,2 °C 26,1 °C 56 % 55 % 1013,7 hPa 0,0 l/m² 2,9 km/h (1 Bft) S-SW 203 ° 1 min 782 W/m² 16,3 °C 26,1 °C 4,8 km/h (1 Bft)
20.08.2024 13:17 23,2 °C 26,0 °C 56 % 54 % 1013,6 hPa 0,0 l/m² 3,2 km/h (1 Bft) SO 142 ° 1 min 780 W/m² 16,0 °C 26,0 °C 6,4 km/h (2 Bft)
20.08.2024 13:18 23,2 °C 26,0 °C 56 % 55 % 1013,6 hPa 0,0 l/m² 2,8 km/h (1 Bft) SO 142 ° 1 min 780 W/m² 16,2 °C 26,0 °C 3,2 km/h (1 Bft)
20.08.2024 13:19 23,2 °C 26,1 °C 56 % 54 % 1013,6 hPa 0,0 l/m² 0,9 km/h (0 Bft) SO 142 ° 1 min 788 W/m² 16,0 °C 26,1 °C 3,2 km/h (1 Bft)
20.08.2024 13:20 23,2 °C 26,2 °C 56 % 54 % 1013,5 hPa 0,0 l/m² 1,4 km/h (1 Bft) SO 142 ° 1 min 788 W/m² 16,1 °C 26,2 °C 3,2 km/h (1 Bft)
20.08.2024 13:21 23,2 °C 26,2 °C 56 % 55 % 1013,6 hPa 0,0 l/m² 1,9 km/h (1 Bft) O-SO 117 ° 1 min 789 W/m² 16,4 °C 26,2 °C 6,4 km/h (2 Bft)
20.08.2024 13:22 23,2 °C 26,3 °C 56 % 54 % 1013,6 hPa 0,0 l/m² 4,0 km/h (1 Bft) O-SO 103 ° 1 min 789 W/m² 16,2 °C 26,3 °C 6,4 km/h (2 Bft)
20.08.2024 13:23 23,2 °C 26,5 °C 56 % 55 % 1013,6 hPa 0,0 l/m² 1,6 km/h (1 Bft) S-SO 162 ° 1 min 789 W/m² 16,7 °C 26,5 °C 4,8 km/h (1 Bft)
20.08.2024 13:24 23,2 °C 26,7 °C 56 % 54 % 1013,6 hPa 0,0 l/m² 3,5 km/h (1 Bft) S-SO 148 ° 1 min 791 W/m² 16,6 °C 26,7 °C 9,7 km/h (2 Bft)
20.08.2024 13:25 23,2 °C 26,7 °C 56 % 53 % 1013,6 hPa 0,0 l/m² 6,9 km/h (2 Bft) S 184 ° 1 min 793 W/m² 16,3 °C 26,6 °C 11,3 km/h (2 Bft)
20.08.2024 13:26 23,2 °C 26,7 °C 56 % 53 % 1013,5 hPa 0,0 l/m² 7,7 km/h (2 Bft) S 180 ° 1 min 788 W/m² 16,3 °C 26,4 °C 11,3 km/h (2 Bft)
20.08.2024 13:27 23,2 °C 26,7 °C 56 % 53 % 1013,5 hPa 0,0 l/m² 5,7 km/h (2 Bft) SO 146 ° 1 min 791 W/m² 16,3 °C 26,7 °C 8,0 km/h (2 Bft)
20.08.2024 13:28 23,2 °C 26,7 °C 56 % 53 % 1013,6 hPa 0,0 l/m² 5,4 km/h (2 Bft) O 96 ° 1 min 786 W/m² 16,3 °C 26,7 °C 9,7 km/h (2 Bft)
20.08.2024 13:29 23,2 °C 26,8 °C 56 % 54 % 1013,5 hPa 0,0 l/m² 9,5 km/h (2 Bft) O-NO 73 ° 1 min 786 W/m² 16,7 °C 26,2 °C 14,5 km/h (3 Bft)
20.08.2024 13:30 23,2 °C 26,9 °C 56 % 54 % 1013,5 hPa 0,0 l/m² 9,9 km/h (2 Bft) O-NO 78 ° 1 min 784 W/m² 16,8 °C 26,3 °C 14,5 km/h (3 Bft)
20.08.2024 13:31 23,2 °C 26,9 °C 56 % 54 % 1013,4 hPa 0,0 l/m² 9,5 km/h (2 Bft) O-SO 117 ° 1 min 784 W/m² 16,8 °C 26,3 °C 14,5 km/h (3 Bft)
20.08.2024 13:32 23,2 °C 26,9 °C 56 % 52 % 1013,5 hPa 0,0 l/m² 8,4 km/h (2 Bft) O-SO 119 ° 1 min 788 W/m² 16,2 °C 26,5 °C 11,3 km/h (2 Bft)
20.08.2024 13:33 23,2 °C 26,8 °C 56 % 52 % 1013,5 hPa 0,0 l/m² 5,3 km/h (1 Bft) O-SO 115 ° 1 min 786 W/m² 16,1 °C 26,8 °C 9,7 km/h (2 Bft)
20.08.2024 13:34 23,2 °C 26,6 °C 56 % 52 % 1013,4 hPa 0,0 l/m² 4,6 km/h (1 Bft) O-SO 119 ° 1 min 786 W/m² 15,9 °C 26,6 °C 6,4 km/h (2 Bft)
20.08.2024 13:35 23,2 °C 26,4 °C 56 % 53 % 1013,4 hPa 0,0 l/m² 1,0 km/h (0 Bft) O-SO 119 ° 1 min 789 W/m² 16,0 °C 26,4 °C 3,2 km/h (1 Bft)
20.08.2024 13:36 23,2 °C 26,3 °C 56 % 55 % 1013,4 hPa 0,0 l/m² 3,4 km/h (1 Bft) O 88 ° 1 min 789 W/m² 16,5 °C 26,3 °C 6,4 km/h (2 Bft)
20.08.2024 13:38 23,2 °C 26,4 °C 56 % 53 % 1013,3 hPa 0,0 l/m² 5,1 km/h (1 Bft) NO 45 ° 2 min 786 W/m² 16,0 °C 26,4 °C 9,7 km/h (2 Bft)
20.08.2024 13:39 23,2 °C 26,7 °C 56 % 55 % 1013,4 hPa 0,0 l/m² 13,3 km/h (3 Bft) SO 138 ° 1 min 789 W/m² 16,9 °C 25,6 °C 20,9 km/h (4 Bft)
20.08.2024 13:40 23,2 °C 26,8 °C 56 % 53 % 1013,4 hPa 0,0 l/m² 11,4 km/h (2 Bft) O-SO 116 ° 1 min 789 W/m² 16,4 °C 25,9 °C 17,7 km/h (3 Bft)
20.08.2024 13:41 23,2 °C 26,8 °C 56 % 52 % 1013,4 hPa 0,0 l/m² 11,1 km/h (2 Bft) SO 129 ° 1 min 793 W/m² 16,1 °C 26,0 °C 14,5 km/h (3 Bft)
20.08.2024 13:42 23,2 °C 26,8 °C 56 % 53 % 1013,4 hPa 0,0 l/m² 8,7 km/h (2 Bft) SO 138 ° 1 min 796 W/m² 16,4 °C 26,4 °C 12,9 km/h (3 Bft)
20.08.2024 13:43 23,2 °C 26,8 °C 56 % 52 % 1013,5 hPa 0,0 l/m² 8,6 km/h (2 Bft) SO 134 ° 1 min 791 W/m² 16,1 °C 26,4 °C 12,9 km/h (3 Bft)
20.08.2024 13:45 23,2 °C 26,8 °C 56 % 53 % 1013,4 hPa 0,0 l/m² 8,8 km/h (2 Bft) S-SO 161 ° 2 min 791 W/m² 16,4 °C 26,3 °C 14,5 km/h (3 Bft)
20.08.2024 13:46 23,2 °C 26,7 °C 56 % 52 % 1013,4 hPa 0,0 l/m² 2,0 km/h (1 Bft) S-SO 161 ° 1 min 791 W/m² 16,0 °C 26,7 °C 6,4 km/h (2 Bft)
20.08.2024 13:47 23,2 °C 26,6 °C 56 % 54 % 1013,4 hPa 0,0 l/m² 1,3 km/h (1 Bft) SO 138 ° 1 min 791 W/m² 16,5 °C 26,6 °C 4,8 km/h (1 Bft)
20.08.2024 13:48 23,2 °C 26,6 °C 56 % 53 % 1013,3 hPa 0,0 l/m² 5,6 km/h (2 Bft) SO 128 ° 1 min 768 W/m² 16,2 °C 26,6 °C 11,3 km/h (2 Bft)
20.08.2024 13:49 23,2 °C 26,5 °C 56 % 53 % 1013,3 hPa 0,0 l/m² 8,2 km/h (2 Bft) SO 133 ° 1 min 759 W/m² 16,1 °C 26,1 °C 11,3 km/h (2 Bft)
20.08.2024 13:50 23,2 °C 26,5 °C 56 % 53 % 1013,3 hPa 0,0 l/m² 5,4 km/h (2 Bft) O-SO 113 ° 1 min 763 W/m² 16,1 °C 26,5 °C 11,3 km/h (2 Bft)
20.08.2024 13:51 23,2 °C 26,4 °C 56 % 53 % 1013,3 hPa 0,0 l/m² 2,3 km/h (1 Bft) O-SO 107 ° 1 min 777 W/m² 16,0 °C 26,4 °C 6,4 km/h (2 Bft)
20.08.2024 13:52 23,2 °C 26,3 °C 56 % 53 % 1013,2 hPa 0,0 l/m² 0,6 km/h (0 Bft) O-SO 107 ° 1 min 777 W/m² 15,9 °C 26,3 °C 3,2 km/h (1 Bft)
20.08.2024 13:53 23,2 °C 26,4 °C 56 % 56 % 1013,2 hPa 0,0 l/m² 0,3 km/h (0 Bft) O-SO 107 ° 1 min 775 W/m² 16,9 °C 26,4 °C 1,6 km/h (1 Bft)
20.08.2024 13:54 23,2 °C 26,4 °C 56 % 54 % 1013,2 hPa 0,0 l/m² 2,1 km/h (1 Bft) O 94 ° 1 min 775 W/m² 16,3 °C 26,4 °C 9,7 km/h (2 Bft)
20.08.2024 13:55 23,2 °C 26,6 °C 56 % 54 % 1013,2 hPa 0,0 l/m² 3,7 km/h (1 Bft) O 98 ° 1 min 773 W/m² 16,5 °C 26,6 °C 6,4 km/h (2 Bft)
20.08.2024 13:56 23,2 °C 26,7 °C 56 % 55 % 1013,2 hPa 0,0 l/m² 1,2 km/h (1 Bft) O 92 ° 1 min 780 W/m² 16,9 °C 26,7 °C 9,7 km/h (2 Bft)
20.08.2024 13:57 23,2 °C 26,9 °C 56 % 55 % 1013,2 hPa 0,0 l/m² 8,3 km/h (2 Bft) S-SO 148 ° 1 min 786 W/m² 17,1 °C 26,5 °C 14,5 km/h (3 Bft)
20.08.2024 13:58 23,2 °C 27,2 °C 56 % 53 % 1013,2 hPa 0,0 l/m² 9,3 km/h (2 Bft) O 100 ° 1 min 782 W/m² 16,8 °C 26,7 °C 12,9 km/h (3 Bft)
20.08.2024 13:59 23,2 °C 27,3 °C 56 % 53 % 1013,1 hPa 0,0 l/m² 10,3 km/h (2 Bft) O 101 ° 1 min 780 W/m² 16,9 °C 26,7 °C 12,9 km/h (3 Bft)
20.08.2024 14:00 23,2 °C 27,4 °C 56 % 52 % 1013,1 hPa 0,0 l/m² 7,8 km/h (2 Bft) SO 132 ° 1 min 779 W/m² 16,7 °C 27,2 °C 11,3 km/h (2 Bft)
20.08.2024 14:01 23,2 °C 27,3 °C 56 % 51 % 1013,1 hPa 0,0 l/m² 8,0 km/h (2 Bft) S-SW 195 ° 1 min 775 W/m² 16,3 °C 27,0 °C 11,3 km/h (2 Bft)
20.08.2024 14:02 23,2 °C 27,2 °C 56 % 52 % 1013,2 hPa 0,0 l/m² 6,4 km/h (2 Bft) S 186 ° 1 min 768 W/m² 16,5 °C 27,2 °C 8,0 km/h (2 Bft)
20.08.2024 14:03 23,2 °C 27,1 °C 56 % 52 % 1013,1 hPa 0,0 l/m² 12,8 km/h (3 Bft) S 179 ° 1 min 745 W/m² 16,4 °C 26,1 °C 17,7 km/h (3 Bft)
20.08.2024 14:04 23,2 °C 27,1 °C 56 % 52 % 1013,2 hPa 0,0 l/m² 8,7 km/h (2 Bft) S 175 ° 1 min 759 W/m² 16,4 °C 26,7 °C 12,9 km/h (3 Bft)
20.08.2024 14:05 23,2 °C 27,0 °C 56 % 52 % 1013,1 hPa 0,0 l/m² 5,8 km/h (2 Bft) S 184 ° 1 min 756 W/m² 16,3 °C 27,0 °C 9,7 km/h (2 Bft)
20.08.2024 14:06 23,2 °C 26,8 °C 56 % 52 % 1013,1 hPa 0,0 l/m² 3,2 km/h (1 Bft) O-SO 117 ° 1 min 758 W/m² 16,1 °C 26,8 °C 4,8 km/h (1 Bft)
20.08.2024 14:07 23,2 °C 26,8 °C 56 % 54 % 1013,1 hPa 0,0 l/m² 5,7 km/h (2 Bft) S 171 ° 1 min 754 W/m² 16,7 °C 26,8 °C 9,7 km/h (2 Bft)
20.08.2024 14:08 23,2 °C 26,8 °C 56 % 53 % 1013,1 hPa 0,0 l/m² 7,7 km/h (2 Bft) S-SW 192 ° 1 min 758 W/m² 16,4 °C 26,5 °C 11,3 km/h (2 Bft)
20.08.2024 14:09 23,2 °C 26,8 °C 56 % 53 % 1013,1 hPa 0,0 l/m² 7,3 km/h (2 Bft) S-SO 159 ° 1 min 761 W/m² 16,4 °C 26,6 °C 11,3 km/h (2 Bft)
20.08.2024 14:10 23,2 °C 26,9 °C 56 % 53 % 1013,1 hPa 0,0 l/m² 4,2 km/h (1 Bft) S-SW 208 ° 1 min 763 W/m² 16,5 °C 26,9 °C 6,4 km/h (2 Bft)
20.08.2024 14:11 23,2 °C 26,9 °C 56 % 53 % 1013,1 hPa 0,0 l/m² 6,3 km/h (2 Bft) S-SO 161 ° 1 min 772 W/m² 16,5 °C 26,9 °C 11,3 km/h (2 Bft)
20.08.2024 14:12 23,2 °C 27,0 °C 56 % 53 % 1013,1 hPa 0,0 l/m² 6,9 km/h (2 Bft) SO 125 ° 1 min 772 W/m² 16,6 °C 26,9 °C 9,7 km/h (2 Bft)
20.08.2024 14:13 23,2 °C 27,0 °C 56 % 52 % 1013,0 hPa 0,0 l/m² 9,0 km/h (2 Bft) O-SO 111 ° 1 min 770 W/m² 16,3 °C 26,5 °C 12,9 km/h (3 Bft)
20.08.2024 14:14 23,2 °C 27,1 °C 56 % 53 % 1013,1 hPa 0,0 l/m² 11,2 km/h (2 Bft) O-SO 115 ° 1 min 763 W/m² 16,7 °C 26,3 °C 16,1 km/h (3 Bft)
20.08.2024 14:15 23,2 °C 27,2 °C 56 % 53 % 1013,0 hPa 0,0 l/m² 11,3 km/h (2 Bft) S-SO 147 ° 1 min 758 W/m² 16,8 °C 26,4 °C 16,1 km/h (3 Bft)
20.08.2024 14:16 23,2 °C 27,4 °C 56 % 52 % 1013,0 hPa 0,0 l/m² 7,9 km/h (2 Bft) SO 132 ° 1 min 731 W/m² 16,7 °C 27,1 °C 11,3 km/h (2 Bft)
20.08.2024 14:17 23,2 °C 27,6 °C 56 % 52 % 1013,0 hPa 0,0 l/m² 8,9 km/h (2 Bft) O 96 ° 1 min 758 W/m² 16,8 °C 27,2 °C 14,5 km/h (3 Bft)
20.08.2024 14:18 23,2 °C 27,7 °C 56 % 52 % 1013,0 hPa 0,0 l/m² 4,8 km/h (1 Bft) O-SO 103 ° 1 min 773 W/m² 16,9 °C 27,7 °C 9,7 km/h (2 Bft)
20.08.2024 14:19 23,2 °C 27,7 °C 56 % 51 % 1012,9 hPa 0,0 l/m² 7,7 km/h (2 Bft) SO 126 ° 1 min 772 W/m² 16,6 °C 27,5 °C 11,3 km/h (2 Bft)
20.08.2024 14:20 23,2 °C 27,5 °C 56 % 51 % 1012,9 hPa 0,0 l/m² 4,6 km/h (1 Bft) S-SO 157 ° 1 min 768 W/m² 16,4 °C 27,5 °C 8,0 km/h (2 Bft)
20.08.2024 14:21 23,2 °C 27,4 °C 56 % 52 % 1013,0 hPa 0,0 l/m² 11,7 km/h (2 Bft) S-SO 148 ° 1 min 770 W/m² 16,7 °C 26,6 °C 16,1 km/h (3 Bft)
20.08.2024 14:22 23,2 °C 27,4 °C 56 % 52 % 1013,0 hPa 0,0 l/m² 14,0 km/h (3 Bft) S-SO 153 ° 1 min 770 W/m² 16,7 °C 26,3 °C 16,1 km/h (3 Bft)
20.08.2024 14:23 23,2 °C 27,5 °C 56 % 52 % 1013,0 hPa 0,0 l/m² 11,7 km/h (2 Bft) S 186 ° 1 min 770 W/m² 16,7 °C 26,7 °C 14,5 km/h (3 Bft)
20.08.2024 14:24 23,2 °C 27,5 °C 56 % 51 % 1012,9 hPa 0,0 l/m² 11,1 km/h (2 Bft) S 180 ° 1 min 759 W/m² 16,4 °C 26,8 °C 12,9 km/h (3 Bft)
20.08.2024 14:25 23,2 °C 27,6 °C 56 % 51 % 1012,9 hPa 0,0 l/m² 11,9 km/h (2 Bft) S 190 ° 1 min 761 W/m² 16,5 °C 26,8 °C 16,1 km/h (3 Bft)
20.08.2024 14:26 23,2 °C 27,7 °C 56 % 51 % 1012,9 hPa 0,0 l/m² 16,0 km/h (3 Bft) S-SO 167 ° 1 min 765 W/m² 16,6 °C 26,5 °C 17,7 km/h (3 Bft)
20.08.2024 14:27 23,2 °C 27,7 °C 56 % 51 % 1012,9 hPa 0,0 l/m² 9,5 km/h (2 Bft) S-SO 149 ° 1 min 765 W/m² 16,6 °C 27,2 °C 17,7 km/h (3 Bft)
20.08.2024 14:28 23,2 °C 27,5 °C 56 % 51 % 1012,9 hPa 0,0 l/m² 4,3 km/h (1 Bft) SO 144 ° 1 min 763 W/m² 16,4 °C 27,5 °C 6,4 km/h (2 Bft)
20.08.2024 14:29 23,2 °C 27,4 °C 56 % 51 % 1012,9 hPa 0,0 l/m² 6,8 km/h (2 Bft) S-SO 150 ° 1 min 758 W/m² 16,3 °C 27,3 °C 9,7 km/h (2 Bft)
20.08.2024 14:31 23,2 °C 27,6 °C 56 % 52 % 1012,8 hPa 0,0 l/m² 10,0 km/h (2 Bft) O 95 ° 2 min 745 W/m² 16,8 °C 27,0 °C 22,5 km/h (4 Bft)
20.08.2024 14:32 23,2 °C 27,6 °C 56 % 51 % 1012,8 hPa 0,0 l/m² 12,3 km/h (2 Bft) O 91 ° 1 min 738 W/m² 16,5 °C 26,7 °C 16,1 km/h (3 Bft)
20.08.2024 14:33 23,2 °C 27,7 °C 56 % 52 % 1012,8 hPa 0,0 l/m² 10,1 km/h (2 Bft) O 85 ° 1 min 735 W/m² 16,9 °C 27,1 °C 16,1 km/h (3 Bft)
20.08.2024 14:34 23,2 °C 27,7 °C 56 % 51 % 1012,9 hPa 0,0 l/m² 4,4 km/h (1 Bft) SO 138 ° 1 min 738 W/m² 16,6 °C 27,7 °C 6,4 km/h (2 Bft)
20.08.2024 14:35 23,2 °C 27,7 °C 56 % 51 % 1012,9 hPa 0,0 l/m² 6,4 km/h (2 Bft) SW 221 ° 1 min 740 W/m² 16,6 °C 27,7 °C 9,7 km/h (2 Bft)
20.08.2024 14:36 23,2 °C 27,7 °C 56 % 51 % 1012,8 hPa 0,0 l/m² 6,8 km/h (2 Bft) SW 229 ° 1 min 747 W/m² 16,6 °C 27,6 °C 9,7 km/h (2 Bft)
20.08.2024 14:37 23,2 °C 27,7 °C 56 % 51 % 1012,8 hPa 0,0 l/m² 4,4 km/h (1 Bft) S 186 ° 1 min 745 W/m² 16,6 °C 27,7 °C 9,7 km/h (2 Bft)
20.08.2024 14:38 23,2 °C 27,6 °C 56 % 51 % 1012,8 hPa 0,0 l/m² 8,6 km/h (2 Bft) S-SO 167 ° 1 min 751 W/m² 16,5 °C 27,2 °C 11,3 km/h (2 Bft)
20.08.2024 14:39 23,2 °C 27,5 °C 56 % 51 % 1012,9 hPa 0,0 l/m² 7,2 km/h (2 Bft) S-SW 197 ° 1 min 745 W/m² 16,4 °C 27,4 °C 9,7 km/h (2 Bft)
20.08.2024 14:40 23,2 °C 27,4 °C 56 % 52 % 1012,8 hPa 0,0 l/m² 9,5 km/h (2 Bft) S-SW 197 ° 1 min 744 W/m² 16,7 °C 26,9 °C 12,9 km/h (3 Bft)
20.08.2024 14:41 23,2 °C 27,6 °C 56 % 52 % 1012,8 hPa 0,0 l/m² 10,8 km/h (2 Bft) S-SO 163 ° 1 min 740 W/m² 16,8 °C 26,9 °C 14,5 km/h (3 Bft)
20.08.2024 14:42 23,2 °C 27,6 °C 56 % 51 % 1012,8 hPa 0,0 l/m² 6,9 km/h (2 Bft) SO 137 ° 1 min 738 W/m² 16,5 °C 27,5 °C 11,3 km/h (2 Bft)
20.08.2024 14:43 23,2 °C 27,5 °C 56 % 51 % 1012,8 hPa 0,0 l/m² 5,7 km/h (2 Bft) O-SO 120 ° 1 min 737 W/m² 16,4 °C 27,5 °C 8,0 km/h (2 Bft)
20.08.2024 14:44 23,2 °C 27,4 °C 56 % 51 % 1012,8 hPa 0,0 l/m² 4,3 km/h (1 Bft) SO 139 ° 1 min 731 W/m² 16,3 °C 27,4 °C 6,4 km/h (2 Bft)
20.08.2024 14:45 23,2 °C 27,4 °C 56 % 52 % 1012,8 hPa 0,0 l/m² 7,6 km/h (2 Bft) O 92 ° 1 min 729 W/m² 16,7 °C 27,2 °C 14,5 km/h (3 Bft)
20.08.2024 14:46 23,2 °C 27,6 °C 56 % 52 % 1012,7 hPa 0,0 l/m² 6,6 km/h (2 Bft) O 84 ° 1 min 726 W/m² 16,8 °C 27,6 °C 12,9 km/h (3 Bft)
20.08.2024 14:47 23,2 °C 27,6 °C 56 % 51 % 1012,7 hPa 0,0 l/m² 4,8 km/h (1 Bft) S-SW 205 ° 1 min 724 W/m² 16,5 °C 27,6 °C 8,0 km/h (2 Bft)
20.08.2024 14:48 23,2 °C 27,7 °C 56 % 52 % 1012,7 hPa 0,0 l/m² 5,6 km/h (2 Bft) SO 138 ° 1 min 719 W/m² 16,9 °C 27,7 °C 9,7 km/h (2 Bft)
20.08.2024 14:49 23,2 °C 27,7 °C 56 % 51 % 1012,7 hPa 0,0 l/m² 9,3 km/h (2 Bft) SO 131 ° 1 min 719 W/m² 16,6 °C 27,2 °C 14,5 km/h (3 Bft)
20.08.2024 14:50 23,2 °C 27,6 °C 56 % 50 % 1012,7 hPa 0,0 l/m² 2,6 km/h (1 Bft) S-SO 160 ° 1 min 714 W/m² 16,2 °C 27,6 °C 8,0 km/h (2 Bft)
20.08.2024 14:51 23,2 °C 27,6 °C 56 % 51 % 1012,7 hPa 0,0 l/m² 4,4 km/h (1 Bft) S 176 ° 1 min 719 W/m² 16,5 °C 27,6 °C 6,4 km/h (2 Bft)
20.08.2024 14:53 23,2 °C 27,7 °C 56 % 51 % 1012,6 hPa 0,0 l/m² 7,7 km/h (2 Bft) O 87 ° 2 min 715 W/m² 16,6 °C 27,5 °C 16,1 km/h (3 Bft)
20.08.2024 14:54 23,2 °C 27,8 °C 56 % 53 % 1012,6 hPa 0,0 l/m² 16,9 km/h (3 Bft) O-SO 102 ° 1 min 717 W/m² 17,3 °C 26,5 °C 24,1 km/h (4 Bft)
20.08.2024 14:55 23,2 °C 27,8 °C 56 % 51 % 1012,6 hPa 0,0 l/m² 15,2 km/h (3 Bft) O 86 ° 1 min 715 W/m² 16,7 °C 26,7 °C 20,9 km/h (4 Bft)
20.08.2024 14:56 23,2 °C 27,8 °C 56 % 52 % 1012,5 hPa 0,0 l/m² 16,4 km/h (3 Bft) O 84 ° 1 min 715 W/m² 17,0 °C 26,6 °C 19,3 km/h (3 Bft)
20.08.2024 14:58 23,2 °C 27,8 °C 56 % 51 % 1012,5 hPa 0,0 l/m² 8,5 km/h (2 Bft) SO 128 ° 2 min 707 W/m² 16,7 °C 27,5 °C 19,3 km/h (3 Bft)
20.08.2024 14:59 23,2 °C 27,8 °C 56 % 51 % 1012,5 hPa 0,0 l/m² 10,2 km/h (2 Bft) SO 136 ° 1 min 708 W/m² 16,7 °C 27,2 °C 12,9 km/h (3 Bft)
20.08.2024 15:00 23,2 °C 27,8 °C 56 % 51 % 1012,5 hPa 0,0 l/m² 13,3 km/h (3 Bft) S-SO 161 ° 1 min 710 W/m² 16,7 °C 26,9 °C 17,7 km/h (3 Bft)
20.08.2024 15:01 23,3 °C 27,7 °C 56 % 50 % 1012,6 hPa 0,0 l/m² 12,1 km/h (2 Bft) SO 137 ° 1 min 712 W/m² 16,3 °C 26,9 °C 17,7 km/h (3 Bft)
20.08.2024 15:02 23,2 °C 27,8 °C 56 % 51 % 1012,4 hPa 0,0 l/m² 14,0 km/h (3 Bft) S 169 ° 1 min 708 W/m² 16,7 °C 26,8 °C 20,9 km/h (4 Bft)
20.08.2024 15:03 23,2 °C 27,8 °C 56 % 51 % 1012,5 hPa 0,0 l/m² 11,6 km/h (2 Bft) SW 221 ° 1 min 708 W/m² 16,7 °C 27,1 °C 16,1 km/h (3 Bft)
20.08.2024 15:04 23,2 °C 27,9 °C 56 % 51 % 1012,5 hPa 0,0 l/m² 5,7 km/h (2 Bft) SW 227 ° 1 min 708 W/m² 16,8 °C 27,9 °C 9,7 km/h (2 Bft)
20.08.2024 15:05 23,2 °C 27,9 °C 56 % 52 % 1012,5 hPa 0,0 l/m² 1,7 km/h (1 Bft) SW 227 ° 1 min 710 W/m² 17,1 °C 27,9 °C 4,8 km/h (1 Bft)
20.08.2024 15:06 23,2 °C 28,0 °C 56 % 50 % 1012,5 hPa 0,0 l/m² 5,1 km/h (1 Bft) S 178 ° 1 min 708 W/m² 16,6 °C 28,0 °C 8,0 km/h (2 Bft)
20.08.2024 15:07 23,2 °C 28,0 °C 56 % 50 % 1012,4 hPa 0,0 l/m² 5,2 km/h (1 Bft) O 89 ° 1 min 705 W/m² 16,6 °C 28,0 °C 8,0 km/h (2 Bft)
20.08.2024 15:08 23,2 °C 28,1 °C 56 % 50 % 1012,4 hPa 0,0 l/m² 8,1 km/h (2 Bft) SO 132 ° 1 min 701 W/m² 16,7 °C 27,8 °C 11,3 km/h (2 Bft)
20.08.2024 15:09 23,2 °C 28,3 °C 56 % 51 % 1012,4 hPa 0,0 l/m² 6,6 km/h (2 Bft) O-SO 103 ° 1 min 700 W/m² 17,2 °C 28,3 °C 11,3 km/h (2 Bft)
20.08.2024 15:10 23,2 °C 28,4 °C 56 % 52 % 1012,5 hPa 0,0 l/m² 8,2 km/h (2 Bft) O 85 ° 1 min 694 W/m² 17,6 °C 28,1 °C 12,9 km/h (3 Bft)
20.08.2024 15:11 23,2 °C 28,5 °C 56 % 50 % 1012,4 hPa 0,0 l/m² 10,1 km/h (2 Bft) O-NO 70 ° 1 min 700 W/m² 17,0 °C 28,0 °C 12,9 km/h (3 Bft)
20.08.2024 15:12 23,2 °C 28,4 °C 56 % 50 % 1012,4 hPa 0,0 l/m² 9,7 km/h (2 Bft) O 84 ° 1 min 698 W/m² 17,0 °C 28,0 °C 12,9 km/h (3 Bft)
20.08.2024 15:13 23,2 °C 28,4 °C 56 % 50 % 1012,3 hPa 0,0 l/m² 7,3 km/h (2 Bft) O-NO 57 ° 1 min 698 W/m² 17,0 °C 28,3 °C 11,3 km/h (2 Bft)
20.08.2024 15:14 23,2 °C 28,4 °C 56 % 50 % 1012,3 hPa 0,0 l/m² 11,3 km/h (2 Bft) O 97 ° 1 min 693 W/m² 17,0 °C 27,8 °C 14,5 km/h (3 Bft)
20.08.2024 15:15 23,2 °C 28,2 °C 56 % 50 % 1012,3 hPa 0,0 l/m² 5,8 km/h (2 Bft) O 93 ° 1 min 696 W/m² 16,8 °C 28,2 °C 9,7 km/h (2 Bft)
20.08.2024 15:16 23,2 °C 28,1 °C 56 % 50 % 1012,3 hPa 0,0 l/m² 4,0 km/h (1 Bft) O-NO 74 ° 1 min 701 W/m² 16,7 °C 28,1 °C 6,4 km/h (2 Bft)
20.08.2024 15:17 23,2 °C 28,0 °C 56 % 51 % 1012,2 hPa 0,0 l/m² 5,2 km/h (1 Bft) O-NO 65 ° 1 min 701 W/m² 16,9 °C 28,0 °C 9,7 km/h (2 Bft)
20.08.2024 15:18 23,3 °C 28,1 °C 56 % 52 % 1012,3 hPa 0,0 l/m² 11,4 km/h (2 Bft) O-SO 123 ° 1 min 691 W/m² 17,3 °C 27,4 °C 16,1 km/h (3 Bft)
20.08.2024 15:19 23,2 °C 28,3 °C 56 % 51 % 1012,2 hPa 0,0 l/m² 9,3 km/h (2 Bft) O-SO 119 ° 1 min 679 W/m² 17,2 °C 27,9 °C 12,9 km/h (3 Bft)
20.08.2024 15:20 23,2 °C 28,4 °C 56 % 50 % 1012,3 hPa 0,0 l/m² 12,2 km/h (2 Bft) SO 141 ° 1 min 675 W/m² 17,0 °C 27,7 °C 16,1 km/h (3 Bft)
20.08.2024 15:21 23,3 °C 28,6 °C 56 % 50 % 1012,3 hPa 0,0 l/m² 10,7 km/h (2 Bft) SO 130 ° 1 min 675 W/m² 17,1 °C 28,1 °C 14,5 km/h (3 Bft)
20.08.2024 15:22 23,2 °C 28,5 °C 56 % 50 % 1012,3 hPa 0,0 l/m² 10,3 km/h (2 Bft) SO 137 ° 1 min 675 W/m² 17,0 °C 28,0 °C 14,5 km/h (3 Bft)
20.08.2024 15:23 23,2 °C 28,4 °C 56 % 50 % 1012,3 hPa 0,0 l/m² 6,5 km/h (2 Bft) SO 144 ° 1 min 671 W/m² 17,0 °C 28,4 °C 11,3 km/h (2 Bft)
20.08.2024 15:24 23,2 °C 28,2 °C 56 % 49 % 1012,3 hPa 0,0 l/m² 7,1 km/h (2 Bft) S 171 ° 1 min 670 W/m² 16,5 °C 28,1 °C 14,5 km/h (3 Bft)
20.08.2024 15:25 23,3 °C 28,1 °C 57 % 49 % 1012,2 hPa 0,0 l/m² 3,5 km/h (1 Bft) S 185 ° 1 min 668 W/m² 16,4 °C 28,1 °C 8,0 km/h (2 Bft)
20.08.2024 15:26 23,3 °C 28,1 °C 57 % 50 % 1012,1 hPa 0,0 l/m² 3,7 km/h (1 Bft) SO 126 ° 1 min 666 W/m² 16,7 °C 28,1 °C 8,0 km/h (2 Bft)
20.08.2024 15:27 23,3 °C 28,0 °C 56 % 50 % 1012,2 hPa 0,0 l/m² 5,3 km/h (1 Bft) S 175 ° 1 min 659 W/m² 16,6 °C 28,0 °C 12,9 km/h (3 Bft)
20.08.2024 15:28 23,2 °C 28,1 °C 56 % 51 % 1012,1 hPa 0,0 l/m² 9,2 km/h (2 Bft) S-SO 159 ° 1 min 654 W/m² 17,0 °C 27,7 °C 12,9 km/h (3 Bft)
20.08.2024 15:29 23,3 °C 28,0 °C 56 % 50 % 1012,1 hPa 0,0 l/m² 8,5 km/h (2 Bft) S-SO 162 ° 1 min 656 W/m² 16,6 °C 27,7 °C 12,9 km/h (3 Bft)
20.08.2024 15:30 23,3 °C 28,1 °C 56 % 50 % 1012,1 hPa 0,0 l/m² 7,4 km/h (2 Bft) S-SO 157 ° 1 min 657 W/m² 16,7 °C 27,9 °C 11,3 km/h (2 Bft)
20.08.2024 15:31 23,3 °C 28,1 °C 56 % 51 % 1012,0 hPa 0,0 l/m² 8,2 km/h (2 Bft) S 190 ° 1 min 659 W/m² 17,0 °C 27,8 °C 11,3 km/h (2 Bft)
20.08.2024 15:32 23,3 °C 28,2 °C 56 % 51 % 1012,1 hPa 0,0 l/m² 14,3 km/h (3 Bft) S 177 ° 1 min 663 W/m² 17,1 °C 27,2 °C 17,7 km/h (3 Bft)
20.08.2024 15:33 23,3 °C 28,3 °C 56 % 50 % 1012,0 hPa 0,0 l/m² 9,9 km/h (2 Bft) S-SO 151 ° 1 min 657 W/m² 16,9 °C 27,8 °C 14,5 km/h (3 Bft)
20.08.2024 15:34 23,3 °C 28,2 °C 56 % 49 % 1012,0 hPa 0,0 l/m² 7,9 km/h (2 Bft) O-SO 111 ° 1 min 659 W/m² 16,5 °C 28,0 °C 14,5 km/h (3 Bft)
20.08.2024 15:35 23,3 °C 28,0 °C 56 % 50 % 1012,0 hPa 0,0 l/m² 7,3 km/h (2 Bft) SO 140 ° 1 min 657 W/m² 16,6 °C 27,9 °C 12,9 km/h (3 Bft)
20.08.2024 15:36 23,3 °C 27,9 °C 56 % 51 % 1012,0 hPa 0,0 l/m² 6,0 km/h (2 Bft) S-SO 165 ° 1 min 659 W/m² 16,8 °C 27,9 °C 8,0 km/h (2 Bft)
20.08.2024 15:37 23,3 °C 27,8 °C 56 % 50 % 1012,0 hPa 0,0 l/m² 1,1 km/h (1 Bft) S-SO 165 ° 1 min 661 W/m² 16,4 °C 27,8 °C 3,2 km/h (1 Bft)
20.08.2024 15:38 23,3 °C 27,8 °C 56 % 52 % 1012,0 hPa 0,0 l/m² 2,9 km/h (1 Bft) S-SW 196 ° 1 min 661 W/m² 17,0 °C 27,8 °C 8,0 km/h (2 Bft)
20.08.2024 15:39 23,2 °C 27,9 °C 56 % 51 % 1011,9 hPa 0,0 l/m² 10,5 km/h (2 Bft) S-SO 163 ° 1 min 661 W/m² 16,8 °C 27,3 °C 12,9 km/h (3 Bft)
20.08.2024 15:40 23,3 °C 28,0 °C 57 % 50 % 1012,0 hPa 0,0 l/m² 7,8 km/h (2 Bft) S-SO 147 ° 1 min 656 W/m² 16,6 °C 27,8 °C 9,7 km/h (2 Bft)
20.08.2024 15:41 23,3 °C 28,2 °C 57 % 51 % 1012,0 hPa 0,0 l/m² 7,3 km/h (2 Bft) S 182 ° 1 min 647 W/m² 17,1 °C 28,1 °C 11,3 km/h (2 Bft)
20.08.2024 15:42 23,3 °C 28,3 °C 57 % 50 % 1011,9 hPa 0,0 l/m² 4,9 km/h (1 Bft) S 191 ° 1 min 647 W/m² 16,9 °C 28,3 °C 9,7 km/h (2 Bft)
20.08.2024 15:43 23,3 °C 28,2 °C 57 % 50 % 1012,0 hPa 0,0 l/m² 1,2 km/h (1 Bft) S-SW 193 ° 1 min 647 W/m² 16,8 °C 28,2 °C 4,8 km/h (1 Bft)
20.08.2024 15:44 23,3 °C 28,1 °C 57 % 50 % 1011,9 hPa 0,0 l/m² 5,5 km/h (2 Bft) SW 229 ° 1 min 635 W/m² 16,7 °C 28,1 °C 11,3 km/h (2 Bft)
20.08.2024 15:46 23,3 °C 28,2 °C 57 % 51 % 1011,8 hPa 0,0 l/m² 5,4 km/h (2 Bft) SW 235 ° 2 min 645 W/m² 17,1 °C 28,2 °C 12,9 km/h (3 Bft)
20.08.2024 15:47 23,3 °C 28,3 °C 57 % 51 % 1011,9 hPa 0,0 l/m² 3,5 km/h (1 Bft) W-SW 237 ° 1 min 636 W/m² 17,2 °C 28,3 °C 6,4 km/h (2 Bft)
20.08.2024 15:48 23,3 °C 28,4 °C 56 % 51 % 1011,8 hPa 0,0 l/m² 1,0 km/h (0 Bft) SW 223 ° 1 min 621 W/m² 17,3 °C 28,4 °C 3,2 km/h (1 Bft)
20.08.2024 15:49 23,3 °C 28,4 °C 57 % 50 % 1011,8 hPa 0,0 l/m² 0,7 km/h (0 Bft) SW 215 ° 1 min 622 W/m² 17,0 °C 28,4 °C 3,2 km/h (1 Bft)
20.08.2024 15:50 23,3 °C 28,4 °C 57 % 50 % 1011,7 hPa 0,0 l/m² 1,0 km/h (0 Bft) O-SO 117 ° 1 min 621 W/m² 17,0 °C 28,4 °C 3,2 km/h (1 Bft)
20.08.2024 15:51 23,3 °C 28,3 °C 57 % 50 % 1011,8 hPa 0,0 l/m² 5,8 km/h (2 Bft) SO 126 ° 1 min 621 W/m² 16,9 °C 28,3 °C 9,7 km/h (2 Bft)
20.08.2024 15:52 23,3 °C 28,5 °C 57 % 50 % 1011,8 hPa 0,0 l/m² 10,0 km/h (2 Bft) O 89 ° 1 min 613 W/m² 17,0 °C 28,0 °C 16,1 km/h (3 Bft)
20.08.2024 15:53 23,3 °C 28,6 °C 57 % 50 % 1011,6 hPa 0,0 l/m² 10,3 km/h (2 Bft) O 89 ° 1 min 615 W/m² 17,1 °C 28,1 °C 16,1 km/h (3 Bft)
20.08.2024 15:54 23,3 °C 28,6 °C 57 % 51 % 1011,8 hPa 0,0 l/m² 11,9 km/h (2 Bft) O-NO 62 ° 1 min 598 W/m² 17,4 °C 27,9 °C 14,5 km/h (3 Bft)
20.08.2024 15:55 23,3 °C 28,6 °C 57 % 51 % 1011,8 hPa 0,0 l/m² 5,9 km/h (2 Bft) O 93 ° 1 min 596 W/m² 17,4 °C 28,6 °C 11,3 km/h (2 Bft)
20.08.2024 15:56 23,3 °C 28,4 °C 57 % 49 % 1011,7 hPa 0,0 l/m² 6,0 km/h (2 Bft) SO 144 ° 1 min 603 W/m² 16,6 °C 28,4 °C 11,3 km/h (2 Bft)
20.08.2024 15:57 23,3 °C 28,3 °C 57 % 50 % 1011,7 hPa 0,0 l/m² 6,1 km/h (2 Bft) O 98 ° 1 min 610 W/m² 16,9 °C 28,3 °C 11,3 km/h (2 Bft)
20.08.2024 15:58 23,3 °C 28,2 °C 57 % 50 % 1011,7 hPa 0,0 l/m² 3,2 km/h (1 Bft) O-SO 114 ° 1 min 613 W/m² 16,8 °C 28,2 °C 4,8 km/h (1 Bft)
20.08.2024 15:59 23,3 °C 28,1 °C 57 % 50 % 1011,7 hPa 0,0 l/m² 2,3 km/h (1 Bft) SO 134 ° 1 min 613 W/m² 16,7 °C 28,1 °C 6,4 km/h (2 Bft)
20.08.2024 16:00 23,3 °C 28,0 °C 57 % 50 % 1011,6 hPa 0,0 l/m² 4,4 km/h (1 Bft) S 173 ° 1 min 612 W/m² 16,6 °C 28,0 °C 9,7 km/h (2 Bft)
20.08.2024 16:01 23,3 °C 27,9 °C 57 % 51 % 1011,6 hPa 0,0 l/m² 3,3 km/h (1 Bft) S-SO 150 ° 1 min 612 W/m² 16,8 °C 27,9 °C 8,0 km/h (2 Bft)
20.08.2024 16:02 23,3 °C 27,9 °C 57 % 51 % 1011,6 hPa 0,0 l/m² 5,4 km/h (2 Bft) SO 134 ° 1 min 617 W/m² 16,8 °C 27,9 °C 11,3 km/h (2 Bft)
20.08.2024 16:03 23,3 °C 27,8 °C 57 % 50 % 1011,6 hPa 0,0 l/m² 3,0 km/h (1 Bft) SO 131 ° 1 min 621 W/m² 16,4 °C 27,8 °C 4,8 km/h (1 Bft)
20.08.2024 16:04 23,3 °C 27,7 °C 57 % 51 % 1011,5 hPa 0,0 l/m² 0,1 km/h (0 Bft) SO 130 ° 1 min 608 W/m² 16,6 °C 27,7 °C 1,6 km/h (1 Bft)
20.08.2024 16:05 23,3 °C 27,7 °C 57 % 51 % 1011,5 hPa 0,0 l/m² 0,0 km/h (0 Bft) SO 130 ° 1 min 598 W/m² 16,6 °C 27,7 °C 0,0 km/h (0 Bft)
20.08.2024 16:06 23,3 °C 27,8 °C 57 % 51 % 1011,4 hPa 0,0 l/m² 0,1 km/h (0 Bft) SO 130 ° 1 min 594 W/m² 16,7 °C 27,8 °C 1,6 km/h (1 Bft)
20.08.2024 16:07 23,3 °C 27,9 °C 57 % 52 % 1011,5 hPa 0,0 l/m² 3,6 km/h (1 Bft) O-SO 107 ° 1 min 603 W/m² 17,1 °C 27,9 °C 6,4 km/h (2 Bft)
20.08.2024 16:08 23,3 °C 28,2 °C 57 % 51 % 1011,4 hPa 0,0 l/m² 7,8 km/h (2 Bft) O-SO 107 ° 1 min 612 W/m² 17,1 °C 28,0 °C 9,7 km/h (2 Bft)
20.08.2024 16:09 23,3 °C 28,3 °C 57 % 50 % 1011,4 hPa 0,0 l/m² 7,8 km/h (2 Bft) O 84 ° 1 min 617 W/m² 16,9 °C 28,1 °C 9,7 km/h (2 Bft)
20.08.2024 16:10 23,3 °C 28,6 °C 57 % 51 % 1011,4 hPa 0,0 l/m² 9,7 km/h (2 Bft) O 92 ° 1 min 615 W/m² 17,4 °C 28,2 °C 12,9 km/h (3 Bft)
20.08.2024 16:11 23,3 °C 28,6 °C 57 % 50 % 1011,4 hPa 0,0 l/m² 8,7 km/h (2 Bft) O 87 ° 1 min 610 W/m² 17,1 °C 28,3 °C 11,3 km/h (2 Bft)
20.08.2024 16:12 23,3 °C 28,6 °C 57 % 50 % 1011,4 hPa 0,0 l/m² 5,1 km/h (1 Bft) O-NO 65 ° 1 min 606 W/m² 17,1 °C 28,6 °C 8,0 km/h (2 Bft)
20.08.2024 16:13 23,3 °C 28,5 °C 57 % 50 % 1011,3 hPa 0,0 l/m² 5,8 km/h (2 Bft) O-SO 121 ° 1 min 596 W/m² 17,0 °C 28,5 °C 9,7 km/h (2 Bft)
20.08.2024 16:14 23,3 °C 28,4 °C 57 % 50 % 1011,4 hPa 0,0 l/m² 5,8 km/h (2 Bft) S-SO 165 ° 1 min 596 W/m² 17,0 °C 28,4 °C 8,0 km/h (2 Bft)
20.08.2024 16:15 23,3 °C 28,4 °C 57 % 50 % 1011,3 hPa 0,0 l/m² 9,0 km/h (2 Bft) S-SO 149 ° 1 min 592 W/m² 17,0 °C 28,0 °C 12,9 km/h (3 Bft)
20.08.2024 16:16 23,3 °C 28,3 °C 57 % 50 % 1011,3 hPa 0,0 l/m² 5,1 km/h (1 Bft) S-SO 148 ° 1 min 580 W/m² 16,9 °C 28,3 °C 9,7 km/h (2 Bft)
20.08.2024 16:17 23,3 °C 28,3 °C 57 % 50 % 1011,3 hPa 0,0 l/m² 8,6 km/h (2 Bft) S 177 ° 1 min 554 W/m² 16,9 °C 28,0 °C 12,9 km/h (3 Bft)
20.08.2024 16:18 23,3 °C 28,2 °C 57 % 50 % 1011,2 hPa 0,0 l/m² 5,5 km/h (2 Bft) S-SO 159 ° 1 min 538 W/m² 16,8 °C 28,2 °C 9,7 km/h (2 Bft)
20.08.2024 16:19 23,3 °C 28,2 °C 57 % 51 % 1011,3 hPa 0,0 l/m² 7,1 km/h (2 Bft) S 190 ° 1 min 501 W/m² 17,1 °C 28,1 °C 11,3 km/h (2 Bft)
20.08.2024 16:20 23,3 °C 28,2 °C 57 % 50 % 1011,2 hPa 0,0 l/m² 3,4 km/h (1 Bft) S 190 ° 1 min 519 W/m² 16,8 °C 28,2 °C 4,8 km/h (1 Bft)
20.08.2024 16:21 23,3 °C 28,1 °C 57 % 50 % 1011,2 hPa 0,0 l/m² 3,8 km/h (1 Bft) SO 126 ° 1 min 527 W/m² 16,7 °C 28,1 °C 6,4 km/h (2 Bft)
20.08.2024 16:22 23,3 °C 28,0 °C 57 % 50 % 1011,2 hPa 0,0 l/m² 5,1 km/h (1 Bft) SO 140 ° 1 min 527 W/m² 16,6 °C 28,0 °C 6,4 km/h (2 Bft)
20.08.2024 16:23 23,3 °C 27,9 °C 57 % 50 % 1011,2 hPa 0,0 l/m² 1,9 km/h (1 Bft) SO 144 ° 1 min 527 W/m² 16,5 °C 27,9 °C 3,2 km/h (1 Bft)
20.08.2024 16:24 23,3 °C 27,9 °C 57 % 52 % 1011,2 hPa 0,0 l/m² 1,8 km/h (1 Bft) S-SO 150 ° 1 min 541 W/m² 17,1 °C 27,9 °C 3,2 km/h (1 Bft)
20.08.2024 16:25 23,3 °C 28,0 °C 57 % 52 % 1011,1 hPa 0,0 l/m² 3,7 km/h (1 Bft) O-NO 70 ° 1 min 541 W/m² 17,2 °C 28,0 °C 6,4 km/h (2 Bft)
20.08.2024 16:26 23,3 °C 28,0 °C 57 % 51 % 1011,1 hPa 0,0 l/m² 3,6 km/h (1 Bft) O 97 ° 1 min 541 W/m² 16,9 °C 28,0 °C 6,4 km/h (2 Bft)
20.08.2024 16:27 23,3 °C 28,1 °C 57 % 51 % 1011,2 hPa 0,0 l/m² 5,0 km/h (1 Bft) O-SO 121 ° 1 min 540 W/m² 17,0 °C 28,1 °C 9,7 km/h (2 Bft)
20.08.2024 16:28 23,3 °C 28,2 °C 57 % 52 % 1011,2 hPa 0,0 l/m² 4,8 km/h (1 Bft) O 88 ° 1 min 527 W/m² 17,4 °C 28,2 °C 8,0 km/h (2 Bft)
20.08.2024 16:29 23,3 °C 28,2 °C 57 % 50 % 1011,1 hPa 0,0 l/m² 2,2 km/h (1 Bft) O 88 ° 1 min 522 W/m² 16,8 °C 28,2 °C 3,2 km/h (1 Bft)
20.08.2024 16:30 23,3 °C 28,2 °C 57 % 50 % 1011,1 hPa 0,0 l/m² 0,4 km/h (0 Bft) O-SO 117 ° 1 min 524 W/m² 16,8 °C 28,2 °C 3,2 km/h (1 Bft)
20.08.2024 16:31 23,3 °C 28,2 °C 57 % 51 % 1011,1 hPa 0,0 l/m² 0,8 km/h (0 Bft) SO 127 ° 1 min 526 W/m² 17,1 °C 28,2 °C 3,2 km/h (1 Bft)
20.08.2024 16:32 23,3 °C 28,3 °C 57 % 51 % 1011,0 hPa 0,0 l/m² 9,1 km/h (2 Bft) SO 134 ° 1 min 541 W/m² 17,2 °C 27,9 °C 19,3 km/h (3 Bft)
20.08.2024 16:33 23,3 °C 28,3 °C 57 % 51 % 1011,0 hPa 0,0 l/m² 9,4 km/h (2 Bft) O-SO 123 ° 1 min 547 W/m² 17,2 °C 27,9 °C 14,5 km/h (3 Bft)
20.08.2024 16:34 23,3 °C 28,4 °C 57 % 51 % 1011,1 hPa 0,0 l/m² 9,9 km/h (2 Bft) O 95 ° 1 min 554 W/m² 17,3 °C 27,9 °C 16,1 km/h (3 Bft)
20.08.2024 16:35 23,3 °C 28,5 °C 57 % 52 % 1011,1 hPa 0,0 l/m² 12,3 km/h (2 Bft) O 89 ° 1 min 554 W/m² 17,7 °C 27,8 °C 16,1 km/h (3 Bft)
20.08.2024 16:36 23,3 °C 28,6 °C 57 % 50 % 1011,0 hPa 0,0 l/m² 9,0 km/h (2 Bft) NO 42 ° 1 min 540 W/m² 17,1 °C 28,3 °C 12,9 km/h (3 Bft)
20.08.2024 16:37 23,3 °C 28,5 °C 57 % 51 % 1011,0 hPa 0,0 l/m² 3,4 km/h (1 Bft) O-NO 67 ° 1 min 538 W/m² 17,4 °C 28,5 °C 6,4 km/h (2 Bft)
20.08.2024 16:38 23,3 °C 28,6 °C 57 % 52 % 1011,1 hPa 0,0 l/m² 1,9 km/h (1 Bft) O 81 ° 1 min 520 W/m² 17,8 °C 28,6 °C 6,4 km/h (2 Bft)
20.08.2024 16:39 23,3 °C 28,6 °C 57 % 50 % 1011,1 hPa 0,0 l/m² 8,1 km/h (2 Bft) O-SO 109 ° 1 min 515 W/m² 17,1 °C 28,4 °C 12,9 km/h (3 Bft)
20.08.2024 16:40 23,3 °C 28,6 °C 57 % 50 % 1011,1 hPa 0,0 l/m² 4,6 km/h (1 Bft) O 96 ° 1 min 501 W/m² 17,1 °C 28,6 °C 6,4 km/h (2 Bft)
20.08.2024 16:41 23,3 °C 28,7 °C 57 % 50 % 1011,0 hPa 0,0 l/m² 7,2 km/h (2 Bft) O-SO 119 ° 1 min 473 W/m² 17,2 °C 28,6 °C 12,9 km/h (3 Bft)
20.08.2024 16:42 23,3 °C 28,7 °C 57 % 50 % 1010,9 hPa 0,0 l/m² 12,7 km/h (3 Bft) SO 128 ° 1 min 427 W/m² 17,2 °C 28,0 °C 17,7 km/h (3 Bft)
20.08.2024 16:43 23,3 °C 28,6 °C 57 % 50 % 1011,0 hPa 0,0 l/m² 7,5 km/h (2 Bft) S-SO 148 ° 1 min 438 W/m² 17,1 °C 28,4 °C 14,5 km/h (3 Bft)
20.08.2024 16:44 23,3 °C 28,6 °C 57 % 50 % 1011,0 hPa 0,0 l/m² 7,3 km/h (2 Bft) S-SO 154 ° 1 min 452 W/m² 17,1 °C 28,5 °C 11,3 km/h (2 Bft)
20.08.2024 16:45 23,3 °C 28,5 °C 57 % 50 % 1011,0 hPa 0,0 l/m² 9,3 km/h (2 Bft) S 175 ° 1 min 434 W/m² 17,0 °C 28,1 °C 11,3 km/h (2 Bft)
20.08.2024 16:46 23,3 °C 28,4 °C 57 % 50 % 1010,9 hPa 0,0 l/m² 8,5 km/h (2 Bft) S-SO 154 ° 1 min 438 W/m² 17,0 °C 28,1 °C 11,3 km/h (2 Bft)
20.08.2024 16:47 23,3 °C 28,4 °C 57 % 50 % 1010,9 hPa 0,0 l/m² 9,9 km/h (2 Bft) SO 139 ° 1 min 422 W/m² 17,0 °C 27,9 °C 16,1 km/h (3 Bft)
20.08.2024 16:48 23,3 °C 28,6 °C 57 % 50 % 1010,9 hPa 0,0 l/m² 9,0 km/h (2 Bft) S 187 ° 1 min 417 W/m² 17,1 °C 28,3 °C 12,9 km/h (3 Bft)
20.08.2024 16:49 23,3 °C 28,4 °C 57 % 50 % 1011,0 hPa 0,0 l/m² 6,7 km/h (2 Bft) S-SW 207 ° 1 min 429 W/m² 17,0 °C 28,4 °C 9,7 km/h (2 Bft)
20.08.2024 16:50 23,4 °C 28,3 °C 57 % 50 % 1010,9 hPa 0,0 l/m² 6,7 km/h (2 Bft) S 186 ° 1 min 144 W/m² 16,9 °C 28,3 °C 9,7 km/h (2 Bft)
20.08.2024 16:51 23,3 °C 28,2 °C 57 % 50 % 1010,9 hPa 0,0 l/m² 7,8 km/h (2 Bft) S-SO 156 ° 1 min 144 W/m² 16,8 °C 28,0 °C 9,7 km/h (2 Bft)
20.08.2024 16:52 23,3 °C 28,1 °C 57 % 50 % 1010,8 hPa 0,0 l/m² 5,6 km/h (2 Bft) S-SO 162 ° 1 min 144 W/m² 16,7 °C 28,1 °C 8,0 km/h (2 Bft)
20.08.2024 16:53 23,3 °C 27,9 °C 57 % 51 % 1010,8 hPa 0,0 l/m² 4,3 km/h (1 Bft) S-SO 157 ° 1 min 383 W/m² 16,8 °C 27,9 °C 6,4 km/h (2 Bft)
20.08.2024 16:54 23,3 °C 27,9 °C 57 % 51 % 1010,9 hPa 0,0 l/m² 5,8 km/h (2 Bft) O 90 ° 1 min 352 W/m² 16,8 °C 27,9 °C 12,9 km/h (3 Bft)
20.08.2024 16:55 23,3 °C 28,0 °C 57 % 52 % 1010,9 hPa 0,0 l/m² 9,4 km/h (2 Bft) O-NO 64 ° 1 min 371 W/m² 17,2 °C 27,6 °C 14,5 km/h (3 Bft)
20.08.2024 16:56 23,3 °C 28,1 °C 57 % 52 % 1010,8 hPa 0,0 l/m² 12,1 km/h (2 Bft) O-SO 112 ° 1 min 374 W/m² 17,3 °C 27,3 °C 16,1 km/h (3 Bft)
20.08.2024 16:57 23,3 °C 28,0 °C 57 % 51 % 1010,8 hPa 0,0 l/m² 10,7 km/h (2 Bft) O-SO 108 ° 1 min 360 W/m² 16,9 °C 27,4 °C 14,5 km/h (3 Bft)
20.08.2024 16:58 23,3 °C 28,1 °C 57 % 51 % 1010,8 hPa 0,0 l/m² 4,8 km/h (1 Bft) O-NO 78 ° 1 min 387 W/m² 17,0 °C 28,1 °C 6,4 km/h (2 Bft)
20.08.2024 16:59 23,3 °C 28,1 °C 57 % 51 % 1010,7 hPa 0,0 l/m² 3,7 km/h (1 Bft) SO 126 ° 1 min 417 W/m² 17,0 °C 28,1 °C 6,4 km/h (2 Bft)
20.08.2024 17:00 23,3 °C 28,1 °C 57 % 51 % 1010,7 hPa 0,0 l/m² 8,2 km/h (2 Bft) O 96 ° 1 min 410 W/m² 17,0 °C 27,8 °C 11,3 km/h (2 Bft)
20.08.2024 17:01 23,4 °C 28,2 °C 57 % 51 % 1010,7 hPa 0,0 l/m² 10,5 km/h (2 Bft) O 92 ° 1 min 418 W/m² 17,1 °C 27,6 °C 12,9 km/h (3 Bft)
20.08.2024 17:02 23,3 °C 28,2 °C 57 % 52 % 1010,7 hPa 0,0 l/m² 8,2 km/h (2 Bft) O-NO 59 ° 1 min 380 W/m² 17,4 °C 27,9 °C 12,9 km/h (3 Bft)
20.08.2024 17:03 23,4 °C 28,3 °C 57 % 52 % 1010,7 hPa 0,0 l/m² 6,4 km/h (2 Bft) O 86 ° 1 min 350 W/m² 17,5 °C 28,3 °C 9,7 km/h (2 Bft)
20.08.2024 17:04 23,3 °C 28,3 °C 57 % 52 % 1010,7 hPa 0,0 l/m² 8,6 km/h (2 Bft) O-SO 109 ° 1 min 406 W/m² 17,5 °C 28,0 °C 11,3 km/h (2 Bft)
20.08.2024 17:05 23,4 °C 28,3 °C 57 % 51 % 1010,7 hPa 0,0 l/m² 6,6 km/h (2 Bft) O-SO 106 ° 1 min 417 W/m² 17,2 °C 28,3 °C 11,3 km/h (2 Bft)
20.08.2024 17:06 23,3 °C 28,3 °C 57 % 52 % 1010,7 hPa 0,0 l/m² 9,9 km/h (2 Bft) O-SO 105 ° 1 min 422 W/m² 17,5 °C 27,8 °C 16,1 km/h (3 Bft)
20.08.2024 17:07 23,4 °C 28,4 °C 57 % 51 % 1010,6 hPa 0,0 l/m² 8,0 km/h (2 Bft) O 97 ° 1 min 469 W/m² 17,3 °C 28,2 °C 12,9 km/h (3 Bft)
20.08.2024 17:08 23,4 °C 28,4 °C 57 % 51 % 1010,6 hPa 0,0 l/m² 7,5 km/h (2 Bft) O-SO 108 ° 1 min 462 W/m² 17,3 °C 28,2 °C 9,7 km/h (2 Bft)
20.08.2024 17:09 23,3 °C 28,3 °C 57 % 51 % 1010,6 hPa 0,0 l/m² 9,5 km/h (2 Bft) O 98 ° 1 min 448 W/m² 17,2 °C 27,9 °C 12,9 km/h (3 Bft)
20.08.2024 17:10 23,4 °C 28,4 °C 57 % 51 % 1010,6 hPa 0,0 l/m² 9,9 km/h (2 Bft) O 97 ° 1 min 448 W/m² 17,3 °C 27,9 °C 14,5 km/h (3 Bft)
20.08.2024 17:11 23,3 °C 28,5 °C 57 % 50 % 1010,7 hPa 0,0 l/m² 10,1 km/h (2 Bft) O 100 ° 1 min 450 W/m² 17,0 °C 28,0 °C 12,9 km/h (3 Bft)
20.08.2024 17:12 23,4 °C 28,4 °C 57 % 50 % 1010,6 hPa 0,0 l/m² 9,9 km/h (2 Bft) O-SO 117 ° 1 min 441 W/m² 17,0 °C 27,9 °C 14,5 km/h (3 Bft)
20.08.2024 17:13 23,4 °C 28,3 °C 57 % 50 % 1010,6 hPa 0,0 l/m² 6,4 km/h (2 Bft) SO 138 ° 1 min 429 W/m² 16,9 °C 28,3 °C 8,0 km/h (2 Bft)
20.08.2024 17:14 23,4 °C 28,3 °C 57 % 51 % 1010,6 hPa 0,0 l/m² 8,9 km/h (2 Bft) O 96 ° 1 min 369 W/m² 17,2 °C 27,9 °C 16,1 km/h (3 Bft)
20.08.2024 17:15 23,4 °C 28,4 °C 57 % 51 % 1010,5 hPa 0,0 l/m² 15,0 km/h (3 Bft) O 99 ° 1 min 360 W/m² 17,3 °C 27,4 °C 17,7 km/h (3 Bft)
20.08.2024 17:16 23,4 °C 28,4 °C 57 % 51 % 1010,5 hPa 0,0 l/m² 10,7 km/h (2 Bft) O 95 ° 1 min 367 W/m² 17,3 °C 27,8 °C 14,5 km/h (3 Bft)
20.08.2024 17:17 23,4 °C 28,5 °C 57 % 50 % 1010,6 hPa 0,0 l/m² 9,5 km/h (2 Bft) O-SO 119 ° 1 min 362 W/m² 17,0 °C 28,1 °C 12,9 km/h (3 Bft)
20.08.2024 17:18 23,4 °C 28,5 °C 57 % 51 % 1010,5 hPa 0,0 l/m² 5,5 km/h (2 Bft) O 100 ° 1 min 381 W/m² 17,4 °C 28,5 °C 6,4 km/h (2 Bft)
20.08.2024 17:19 23,4 °C 28,4 °C 57 % 50 % 1010,5 hPa 0,0 l/m² 3,5 km/h (1 Bft) O-SO 112 ° 1 min 434 W/m² 17,0 °C 28,4 °C 8,0 km/h (2 Bft)
20.08.2024 17:20 23,4 °C 28,4 °C 57 % 51 % 1010,5 hPa 0,0 l/m² 6,8 km/h (2 Bft) SO 129 ° 1 min 441 W/m² 17,3 °C 28,3 °C 9,7 km/h (2 Bft)
20.08.2024 17:21 23,4 °C 28,4 °C 57 % 50 % 1010,5 hPa 0,0 l/m² 7,0 km/h (2 Bft) S 174 ° 1 min 446 W/m² 17,0 °C 28,3 °C 11,3 km/h (2 Bft)
20.08.2024 17:22 23,4 °C 28,6 °C 57 % 51 % 1010,5 hPa 0,0 l/m² 10,1 km/h (2 Bft) S-SO 153 ° 1 min 446 W/m² 17,4 °C 28,1 °C 14,5 km/h (3 Bft)
20.08.2024 17:23 23,4 °C 28,6 °C 57 % 50 % 1010,5 hPa 0,0 l/m² 8,5 km/h (2 Bft) S-SO 165 ° 1 min 418 W/m² 17,1 °C 28,3 °C 11,3 km/h (2 Bft)
20.08.2024 17:24 23,4 °C 28,4 °C 57 % 50 % 1010,5 hPa 0,0 l/m² 7,6 km/h (2 Bft) S 190 ° 1 min 346 W/m² 17,0 °C 28,2 °C 9,7 km/h (2 Bft)
20.08.2024 17:25 23,4 °C 28,4 °C 57 % 50 % 1010,5 hPa 0,0 l/m² 10,9 km/h (2 Bft) S 187 ° 1 min 311 W/m² 17,0 °C 27,8 °C 12,9 km/h (3 Bft)
20.08.2024 17:26 23,4 °C 28,3 °C 57 % 50 % 1010,4 hPa 0,0 l/m² 7,9 km/h (2 Bft) S 181 ° 1 min 274 W/m² 16,9 °C 28,1 °C 11,3 km/h (2 Bft)
20.08.2024 17:27 23,4 °C 28,3 °C 57 % 50 % 1010,4 hPa 0,0 l/m² 7,0 km/h (2 Bft) S 169 ° 1 min 221 W/m² 16,9 °C 28,2 °C 8,0 km/h (2 Bft)
20.08.2024 17:28 23,4 °C 28,3 °C 57 % 50 % 1010,5 hPa 0,0 l/m² 6,0 km/h (2 Bft) S 186 ° 1 min 192 W/m² 16,9 °C 28,3 °C 8,0 km/h (2 Bft)
20.08.2024 17:29 23,4 °C 28,3 °C 57 % 50 % 1010,4 hPa 0,0 l/m² 8,0 km/h (2 Bft) S 183 ° 1 min 234 W/m² 16,9 °C 28,1 °C 11,3 km/h (2 Bft)
20.08.2024 17:30 23,4 °C 28,3 °C 57 % 51 % 1010,4 hPa 0,0 l/m² 9,9 km/h (2 Bft) O 101 ° 1 min 214 W/m² 17,2 °C 27,8 °C 16,1 km/h (3 Bft)
20.08.2024 17:31 23,4 °C 28,2 °C 57 % 51 % 1010,4 hPa 0,0 l/m² 10,4 km/h (2 Bft) O-SO 116 ° 1 min 257 W/m² 17,1 °C 27,7 °C 14,5 km/h (3 Bft)
20.08.2024 17:32 23,4 °C 28,1 °C 57 % 51 % 1010,5 hPa 0,0 l/m² 8,3 km/h (2 Bft) SO 133 ° 1 min 264 W/m² 17,0 °C 27,8 °C 11,3 km/h (2 Bft)
20.08.2024 17:33 23,4 °C 28,1 °C 57 % 51 % 1010,4 hPa 0,0 l/m² 6,2 km/h (2 Bft) S-SO 163 ° 1 min 353 W/m² 17,0 °C 28,1 °C 9,7 km/h (2 Bft)
20.08.2024 17:34 23,4 °C 28,0 °C 57 % 51 % 1010,4 hPa 0,0 l/m² 3,9 km/h (1 Bft) O 93 ° 1 min 283 W/m² 16,9 °C 28,0 °C 6,4 km/h (2 Bft)
20.08.2024 17:35 23,4 °C 28,0 °C 57 % 52 % 1010,4 hPa 0,0 l/m² 6,4 km/h (2 Bft) O-SO 109 ° 1 min 276 W/m² 17,2 °C 28,0 °C 11,3 km/h (2 Bft)
20.08.2024 17:36 23,4 °C 28,0 °C 57 % 51 % 1010,3 hPa 0,0 l/m² 5,4 km/h (2 Bft) SO 124 ° 1 min 276 W/m² 16,9 °C 28,0 °C 9,7 km/h (2 Bft)
20.08.2024 17:37 23,4 °C 27,9 °C 57 % 51 % 1010,4 hPa 0,0 l/m² 8,4 km/h (2 Bft) O-SO 112 ° 1 min 160 W/m² 16,8 °C 27,6 °C 14,5 km/h (3 Bft)
20.08.2024 17:38 23,4 °C 27,9 °C 57 % 52 % 1010,3 hPa 0,0 l/m² 7,0 km/h (2 Bft) SO 137 ° 1 min 163 W/m² 17,1 °C 27,8 °C 9,7 km/h (2 Bft)
20.08.2024 17:39 23,5 °C 27,9 °C 57 % 52 % 1010,3 hPa 0,0 l/m² 7,2 km/h (2 Bft) SO 140 ° 1 min 163 W/m² 17,1 °C 27,8 °C 11,3 km/h (2 Bft)
20.08.2024 17:40 23,5 °C 27,8 °C 57 % 52 % 1010,3 hPa 0,0 l/m² 5,0 km/h (1 Bft) S-SO 165 ° 1 min 162 W/m² 17,0 °C 27,8 °C 6,4 km/h (2 Bft)
20.08.2024 17:41 23,5 °C 27,8 °C 57 % 52 % 1010,2 hPa 0,0 l/m² 7,7 km/h (2 Bft) S 188 ° 1 min 192 W/m² 17,0 °C 27,6 °C 11,3 km/h (2 Bft)
20.08.2024 17:42 23,5 °C 27,9 °C 57 % 52 % 1010,3 hPa 0,0 l/m² 7,2 km/h (2 Bft) SO 143 ° 1 min 243 W/m² 17,1 °C 27,8 °C 11,3 km/h (2 Bft)
20.08.2024 17:43 23,6 °C 27,9 °C 57 % 52 % 1010,2 hPa 0,0 l/m² 8,9 km/h (2 Bft) S 171 ° 1 min 165 W/m² 17,1 °C 27,5 °C 12,9 km/h (3 Bft)
20.08.2024 17:44 23,6 °C 27,9 °C 57 % 52 % 1010,2 hPa 0,0 l/m² 11,2 km/h (2 Bft) S-SO 159 ° 1 min 156 W/m² 17,1 °C 27,2 °C 16,1 km/h (3 Bft)
20.08.2024 17:45 23,6 °C 27,9 °C 57 % 52 % 1010,3 hPa 0,0 l/m² 13,5 km/h (3 Bft) S-SO 165 ° 1 min 158 W/m² 17,1 °C 27,0 °C 16,1 km/h (3 Bft)
20.08.2024 17:46 23,6 °C 27,9 °C 57 % 52 % 1010,2 hPa 0,0 l/m² 10,5 km/h (2 Bft) SO 140 ° 1 min 156 W/m² 17,1 °C 27,3 °C 14,5 km/h (3 Bft)
20.08.2024 17:47 23,6 °C 27,9 °C 57 % 52 % 1010,2 hPa 0,0 l/m² 11,5 km/h (2 Bft) SO 140 ° 1 min 156 W/m² 17,1 °C 27,2 °C 14,5 km/h (3 Bft)
20.08.2024 17:48 23,6 °C 27,8 °C 57 % 52 % 1010,2 hPa 0,0 l/m² 11,1 km/h (2 Bft) O-SO 115 ° 1 min 153 W/m² 17,0 °C 27,1 °C 14,5 km/h (3 Bft)
20.08.2024 17:49 23,6 °C 27,8 °C 57 % 52 % 1010,3 hPa 0,0 l/m² 9,8 km/h (2 Bft) SO 139 ° 1 min 146 W/m² 17,0 °C 27,3 °C 14,5 km/h (3 Bft)
20.08.2024 17:50 23,6 °C 27,7 °C 57 % 52 % 1010,3 hPa 0,0 l/m² 8,9 km/h (2 Bft) S-SO 150 ° 1 min 146 W/m² 16,9 °C 27,3 °C 12,9 km/h (3 Bft)
20.08.2024 17:51 23,6 °C 27,7 °C 57 % 52 % 1010,3 hPa 0,0 l/m² 10,7 km/h (2 Bft) SO 144 ° 1 min 146 W/m² 16,9 °C 27,1 °C 14,5 km/h (3 Bft)
20.08.2024 17:52 23,6 °C 27,7 °C 57 % 52 % 1010,2 hPa 0,0 l/m² 9,5 km/h (2 Bft) SO 124 ° 1 min 141 W/m² 16,9 °C 27,2 °C 11,3 km/h (2 Bft)
20.08.2024 17:53 23,6 °C 27,6 °C 57 % 53 % 1010,3 hPa 0,0 l/m² 11,0 km/h (2 Bft) SO 136 ° 1 min 139 W/m² 17,1 °C 26,9 °C 14,5 km/h (3 Bft)
20.08.2024 17:54 23,6 °C 27,6 °C 57 % 53 % 1010,2 hPa 0,0 l/m² 6,2 km/h (2 Bft) S-SO 155 ° 1 min 139 W/m² 17,1 °C 27,6 °C 11,3 km/h (2 Bft)
20.08.2024 17:55 23,6 °C 27,6 °C 57 % 53 % 1010,2 hPa 0,0 l/m² 9,1 km/h (2 Bft) S-SO 168 ° 1 min 144 W/m² 17,1 °C 27,2 °C 11,3 km/h (2 Bft)
20.08.2024 17:56 23,6 °C 27,6 °C 57 % 52 % 1010,1 hPa 0,0 l/m² 7,7 km/h (2 Bft) SO 138 ° 1 min 148 W/m² 16,8 °C 27,4 °C 14,5 km/h (3 Bft)
20.08.2024 17:57 23,6 °C 27,6 °C 56 % 52 % 1010,2 hPa 0,0 l/m² 8,4 km/h (2 Bft) S-SO 163 ° 1 min 146 W/m² 16,8 °C 27,3 °C 12,9 km/h (3 Bft)
20.08.2024 17:58 23,6 °C 27,6 °C 57 % 53 % 1010,2 hPa 0,0 l/m² 9,1 km/h (2 Bft) S-SO 155 ° 1 min 142 W/m² 17,1 °C 27,2 °C 11,3 km/h (2 Bft)
20.08.2024 17:59 23,6 °C 27,6 °C 56 % 54 % 1010,1 hPa 0,0 l/m² 7,8 km/h (2 Bft) S-SO 151 ° 1 min 135 W/m² 17,4 °C 27,4 °C 11,3 km/h (2 Bft)
20.08.2024 18:00 23,6 °C 27,6 °C 57 % 53 % 1010,1 hPa 0,0 l/m² 7,9 km/h (2 Bft) SO 134 ° 1 min 125 W/m² 17,1 °C 27,3 °C 11,3 km/h (2 Bft)
20.08.2024 18:01 23,6 °C 27,6 °C 56 % 53 % 1010,1 hPa 0,0 l/m² 10,2 km/h (2 Bft) SO 139 ° 1 min 120 W/m² 17,1 °C 27,0 °C 12,9 km/h (3 Bft)
20.08.2024 18:02 23,6 °C 27,5 °C 56 % 53 % 1010,2 hPa 0,0 l/m² 11,1 km/h (2 Bft) SO 138 ° 1 min 120 W/m² 17,0 °C 26,8 °C 12,9 km/h (3 Bft)
20.08.2024 18:03 23,6 °C 27,4 °C 56 % 53 % 1010,1 hPa 0,0 l/m² 8,5 km/h (2 Bft) S-SO 151 ° 1 min 120 W/m² 17,0 °C 27,0 °C 12,9 km/h (3 Bft)
20.08.2024 18:04 23,6 °C 27,4 °C 56 % 53 % 1010,1 hPa 0,0 l/m² 6,4 km/h (2 Bft) S-SO 154 ° 1 min 118 W/m² 17,0 °C 27,4 °C 9,7 km/h (2 Bft)
20.08.2024 18:05 23,6 °C 27,4 °C 56 % 53 % 1010,1 hPa 0,0 l/m² 6,9 km/h (2 Bft) S-SO 153 ° 1 min 116 W/m² 17,0 °C 27,3 °C 8,0 km/h (2 Bft)
20.08.2024 18:06 23,6 °C 27,4 °C 56 % 53 % 1010,0 hPa 0,0 l/m² 8,9 km/h (2 Bft) S-SO 159 ° 1 min 116 W/m² 17,0 °C 27,0 °C 12,9 km/h (3 Bft)
20.08.2024 18:07 23,6 °C 27,4 °C 56 % 53 % 1010,0 hPa 0,0 l/m² 9,4 km/h (2 Bft) SO 140 ° 1 min 118 W/m² 17,0 °C 26,9 °C 12,9 km/h (3 Bft)
20.08.2024 18:08 23,6 °C 27,4 °C 57 % 53 % 1010,1 hPa 0,0 l/m² 9,1 km/h (2 Bft) SO 129 ° 1 min 121 W/m² 17,0 °C 26,9 °C 12,9 km/h (3 Bft)
20.08.2024 18:09 23,6 °C 27,3 °C 56 % 53 % 1010,1 hPa 0,0 l/m² 6,8 km/h (2 Bft) S-SO 165 ° 1 min 121 W/m² 16,9 °C 27,2 °C 8,0 km/h (2 Bft)
20.08.2024 18:10 23,6 °C 27,4 °C 56 % 53 % 1010,0 hPa 0,0 l/m² 7,1 km/h (2 Bft) SO 138 ° 1 min 120 W/m² 17,0 °C 27,3 °C 8,0 km/h (2 Bft)
20.08.2024 18:11 23,6 °C 27,4 °C 57 % 53 % 1010,1 hPa 0,0 l/m² 7,9 km/h (2 Bft) SO 134 ° 1 min 114 W/m² 17,0 °C 27,1 °C 12,9 km/h (3 Bft)
20.08.2024 18:12 23,6 °C 27,4 °C 57 % 54 % 1010,0 hPa 0,0 l/m² 7,9 km/h (2 Bft) O-SO 116 ° 1 min 97 W/m² 17,3 °C 27,1 °C 11,3 km/h (2 Bft)
20.08.2024 18:13 23,6 °C 27,3 °C 57 % 53 % 1010,0 hPa 0,0 l/m² 7,2 km/h (2 Bft) S-SO 155 ° 1 min 90 W/m² 16,9 °C 27,2 °C 11,3 km/h (2 Bft)
20.08.2024 18:14 23,6 °C 27,3 °C 57 % 54 % 1010,0 hPa 0,0 l/m² 6,6 km/h (2 Bft) S-SO 158 ° 1 min 84 W/m² 17,2 °C 27,3 °C 8,0 km/h (2 Bft)
20.08.2024 18:15 23,6 °C 27,3 °C 57 % 53 % 1010,0 hPa 0,0 l/m² 5,5 km/h (2 Bft) SO 137 ° 1 min 83 W/m² 16,9 °C 27,3 °C 8,0 km/h (2 Bft)
20.08.2024 18:17 23,6 °C 27,3 °C 56 % 54 % 1009,9 hPa 0,0 l/m² 6,3 km/h (2 Bft) O-SO 111 ° 2 min 83 W/m² 17,2 °C 27,3 °C 12,9 km/h (3 Bft)
20.08.2024 18:18 23,6 °C 27,3 °C 56 % 54 % 1009,9 hPa 0,0 l/m² 9,1 km/h (2 Bft) SO 136 ° 1 min 83 W/m² 17,2 °C 26,8 °C 12,9 km/h (3 Bft)
20.08.2024 18:19 23,6 °C 27,3 °C 57 % 54 % 1009,9 hPa 0,0 l/m² 7,8 km/h (2 Bft) O 92 ° 1 min 84 W/m² 17,2 °C 27,0 °C 11,3 km/h (2 Bft)
20.08.2024 18:20 23,6 °C 27,3 °C 57 % 54 % 1009,9 hPa 0,0 l/m² 6,9 km/h (2 Bft) O-SO 116 ° 1 min 84 W/m² 17,2 °C 27,2 °C 9,7 km/h (2 Bft)
20.08.2024 18:21 23,6 °C 27,2 °C 57 % 54 % 1009,9 hPa 0,0 l/m² 4,7 km/h (1 Bft) SO 133 ° 1 min 86 W/m² 17,1 °C 27,2 °C 6,4 km/h (2 Bft)
20.08.2024 18:22 23,6 °C 27,2 °C 57 % 54 % 1009,9 hPa 0,0 l/m² 3,6 km/h (1 Bft) SO 130 ° 1 min 88 W/m² 17,1 °C 27,2 °C 6,4 km/h (2 Bft)
20.08.2024 18:23 23,6 °C 27,2 °C 57 % 54 % 1009,9 hPa 0,0 l/m² 3,6 km/h (1 Bft) O-SO 121 ° 1 min 90 W/m² 17,1 °C 27,2 °C 4,8 km/h (1 Bft)
20.08.2024 18:24 23,6 °C 27,2 °C 57 % 54 % 1009,9 hPa 0,0 l/m² 3,2 km/h (1 Bft) SO 142 ° 1 min 93 W/m² 17,1 °C 27,2 °C 4,8 km/h (1 Bft)
20.08.2024 18:25 23,6 °C 27,2 °C 57 % 54 % 1009,8 hPa 0,0 l/m² 2,9 km/h (1 Bft) SO 137 ° 1 min 91 W/m² 17,1 °C 27,2 °C 4,8 km/h (1 Bft)
20.08.2024 18:27 23,6 °C 27,2 °C 57 % 55 % 1009,9 hPa 0,0 l/m² 5,5 km/h (2 Bft) S-SO 163 ° 2 min 81 W/m² 17,4 °C 27,2 °C 9,7 km/h (2 Bft)
20.08.2024 18:28 23,6 °C 27,2 °C 57 % 55 % 1009,9 hPa 0,0 l/m² 6,7 km/h (2 Bft) SO 146 ° 1 min 76 W/m² 17,4 °C 27,1 °C 8,0 km/h (2 Bft)
20.08.2024 18:29 23,6 °C 27,2 °C 57 % 55 % 1009,9 hPa 0,0 l/m² 5,9 km/h (2 Bft) SO 127 ° 1 min 72 W/m² 17,4 °C 27,2 °C 8,0 km/h (2 Bft)
20.08.2024 18:30 23,6 °C 27,2 °C 57 % 55 % 1009,9 hPa 0,0 l/m² 4,6 km/h (1 Bft) SO 136 ° 1 min 70 W/m² 17,4 °C 27,2 °C 6,4 km/h (2 Bft)
20.08.2024 18:31 23,6 °C 27,2 °C 57 % 55 % 1009,8 hPa 0,0 l/m² 6,7 km/h (2 Bft) SO 142 ° 1 min 72 W/m² 17,4 °C 27,1 °C 11,3 km/h (2 Bft)
20.08.2024 18:32 23,6 °C 27,2 °C 57 % 55 % 1009,9 hPa 0,0 l/m² 6,7 km/h (2 Bft) SO 136 ° 1 min 72 W/m² 17,4 °C 27,1 °C 11,3 km/h (2 Bft)
20.08.2024 18:33 23,6 °C 27,2 °C 57 % 54 % 1009,8 hPa 0,0 l/m² 7,7 km/h (2 Bft) SO 132 ° 1 min 72 W/m² 17,1 °C 27,0 °C 12,9 km/h (3 Bft)
20.08.2024 18:34 23,6 °C 27,1 °C 57 % 55 % 1009,8 hPa 0,0 l/m² 7,2 km/h (2 Bft) SO 128 ° 1 min 72 W/m² 17,3 °C 27,0 °C 11,3 km/h (2 Bft)
20.08.2024 18:35 23,6 °C 27,1 °C 57 % 55 % 1009,9 hPa 0,0 l/m² 7,0 km/h (2 Bft) SO 126 ° 1 min 72 W/m² 17,3 °C 27,0 °C 11,3 km/h (2 Bft)
20.08.2024 18:36 23,6 °C 27,1 °C 57 % 55 % 1009,8 hPa 0,0 l/m² 7,0 km/h (2 Bft) O-SO 121 ° 1 min 74 W/m² 17,3 °C 27,0 °C 11,3 km/h (2 Bft)
20.08.2024 18:37 23,6 °C 27,1 °C 57 % 55 % 1009,8 hPa 0,0 l/m² 6,2 km/h (2 Bft) O-SO 114 ° 1 min 74 W/m² 17,3 °C 27,1 °C 8,0 km/h (2 Bft)
20.08.2024 18:38 23,6 °C 27,1 °C 57 % 55 % 1009,7 hPa 0,0 l/m² 7,2 km/h (2 Bft) O-SO 120 ° 1 min 72 W/m² 17,3 °C 27,0 °C 11,3 km/h (2 Bft)
20.08.2024 18:39 23,6 °C 27,1 °C 57 % 55 % 1009,7 hPa 0,0 l/m² 5,2 km/h (1 Bft) O-SO 121 ° 1 min 70 W/m² 17,3 °C 27,1 °C 6,4 km/h (2 Bft)
20.08.2024 18:40 23,6 °C 27,1 °C 57 % 55 % 1009,7 hPa 0,0 l/m² 4,2 km/h (1 Bft) O-SO 123 ° 1 min 70 W/m² 17,3 °C 27,1 °C 6,4 km/h (2 Bft)
20.08.2024 18:41 23,6 °C 27,1 °C 57 % 56 % 1009,7 hPa 0,0 l/m² 5,2 km/h (1 Bft) O-SO 121 ° 1 min 72 W/m² 17,5 °C 27,1 °C 8,0 km/h (2 Bft)
20.08.2024 18:42 23,6 °C 27,0 °C 57 % 55 % 1009,7 hPa 0,0 l/m² 7,0 km/h (2 Bft) O-SO 117 ° 1 min 74 W/m² 17,2 °C 26,9 °C 9,7 km/h (2 Bft)
20.08.2024 18:43 23,6 °C 27,0 °C 57 % 56 % 1009,7 hPa 0,0 l/m² 8,1 km/h (2 Bft) O-SO 112 ° 1 min 77 W/m² 17,5 °C 26,7 °C 9,7 km/h (2 Bft)
20.08.2024 18:44 23,6 °C 26,9 °C 57 % 56 % 1009,7 hPa 0,0 l/m² 8,0 km/h (2 Bft) SO 126 ° 1 min 79 W/m² 17,4 °C 26,6 °C 11,3 km/h (2 Bft)
20.08.2024 18:46 23,6 °C 27,0 °C 57 % 57 % 1009,7 hPa 0,0 l/m² 5,0 km/h (1 Bft) O-SO 102 ° 2 min 81 W/m² 17,7 °C 27,0 °C 9,7 km/h (2 Bft)
20.08.2024 18:47 23,6 °C 27,0 °C 57 % 56 % 1009,7 hPa 0,0 l/m² 6,8 km/h (2 Bft) O-SO 120 ° 1 min 81 W/m² 17,5 °C 26,9 °C 9,7 km/h (2 Bft)
20.08.2024 18:48 23,6 °C 26,9 °C 57 % 56 % 1009,7 hPa 0,0 l/m² 4,1 km/h (1 Bft) O-SO 110 ° 1 min 83 W/m² 17,4 °C 26,9 °C 4,8 km/h (1 Bft)
20.08.2024 18:49 23,6 °C 26,9 °C 57 % 56 % 1009,6 hPa 0,0 l/m² 5,0 km/h (1 Bft) O-SO 104 ° 1 min 81 W/m² 17,4 °C 26,9 °C 6,4 km/h (2 Bft)
20.08.2024 18:50 23,6 °C 26,9 °C 57 % 56 % 1009,5 hPa 0,0 l/m² 3,4 km/h (1 Bft) O-SO 111 ° 1 min 76 W/m² 17,4 °C 26,9 °C 4,8 km/h (1 Bft)
20.08.2024 18:51 23,6 °C 26,9 °C 57 % 56 % 1009,6 hPa 0,0 l/m² 6,0 km/h (2 Bft) O-SO 120 ° 1 min 70 W/m² 17,4 °C 26,9 °C 8,0 km/h (2 Bft)
20.08.2024 18:52 23,6 °C 26,9 °C 57 % 56 % 1009,6 hPa 0,0 l/m² 5,3 km/h (1 Bft) SO 132 ° 1 min 63 W/m² 17,4 °C 26,9 °C 8,0 km/h (2 Bft)
20.08.2024 18:53 23,6 °C 26,9 °C 57 % 56 % 1009,6 hPa 0,0 l/m² 4,8 km/h (1 Bft) SO 135 ° 1 min 54 W/m² 17,4 °C 26,9 °C 6,4 km/h (2 Bft)
20.08.2024 18:54 23,6 °C 26,9 °C 57 % 56 % 1009,5 hPa 0,0 l/m² 4,4 km/h (1 Bft) O-SO 117 ° 0 min 51 W/m² 17,4 °C 26,9 °C 6,4 km/h (2 Bft)
20.08.2024 18:55 23,6 °C 26,9 °C 57 % 56 % 1009,7 hPa 0,0 l/m² 4,1 km/h (1 Bft) SO 128 ° 0 min 49 W/m² 17,4 °C 26,9 °C 4,8 km/h (1 Bft)
20.08.2024 18:56 23,6 °C 26,9 °C 57 % 56 % 1009,6 hPa 0,0 l/m² 4,2 km/h (1 Bft) SO 132 ° 0 min 47 W/m² 17,4 °C 26,9 °C 6,4 km/h (2 Bft)
20.08.2024 18:57 23,6 °C 26,8 °C 57 % 56 % 1009,6 hPa 0,0 l/m² 2,9 km/h (1 Bft) SO 130 ° 0 min 46 W/m² 17,3 °C 26,8 °C 4,8 km/h (1 Bft)
20.08.2024 18:58 23,6 °C 26,9 °C 57 % 56 % 1009,6 hPa 0,0 l/m² 3,9 km/h (1 Bft) SO 144 ° 0 min 44 W/m² 17,4 °C 26,9 °C 4,8 km/h (1 Bft)
20.08.2024 18:59 23,6 °C 26,8 °C 57 % 56 % 1009,6 hPa 0,0 l/m² 3,8 km/h (1 Bft) O-SO 105 ° 0 min 42 W/m² 17,3 °C 26,8 °C 6,4 km/h (2 Bft)
20.08.2024 19:00 23,6 °C 26,8 °C 57 % 57 % 1009,5 hPa 0,0 l/m² 4,0 km/h (1 Bft) SO 130 ° 0 min 40 W/m² 17,6 °C 26,8 °C 6,4 km/h (2 Bft)
20.08.2024 19:02 23,6 °C 26,8 °C 57 % 57 % 1009,6 hPa 0,0 l/m² 2,6 km/h (1 Bft) SO 132 ° 0 min 40 W/m² 17,6 °C 26,8 °C 4,8 km/h (1 Bft)
20.08.2024 19:03 23,6 °C 26,8 °C 57 % 57 % 1009,6 hPa 0,0 l/m² 3,1 km/h (1 Bft) SO 132 ° 0 min 42 W/m² 17,6 °C 26,8 °C 4,8 km/h (1 Bft)
20.08.2024 19:04 23,6 °C 26,7 °C 57 % 58 % 1009,6 hPa 0,0 l/m² 1,1 km/h (1 Bft) SO 132 ° 0 min 42 W/m² 17,7 °C 26,7 °C 3,2 km/h (1 Bft)
20.08.2024 19:05 23,6 °C 26,7 °C 57 % 58 % 1009,6 hPa 0,0 l/m² 2,5 km/h (1 Bft) SO 132 ° 0 min 44 W/m² 17,7 °C 26,7 °C 4,8 km/h (1 Bft)
20.08.2024 19:06 23,6 °C 26,7 °C 57 % 57 % 1009,5 hPa 0,0 l/m² 2,2 km/h (1 Bft) SO 132 ° 0 min 46 W/m² 17,5 °C 26,7 °C 3,2 km/h (1 Bft)
20.08.2024 19:07 23,6 °C 26,7 °C 57 % 57 % 1009,6 hPa 0,0 l/m² 2,5 km/h (1 Bft) SO 132 ° 0 min 46 W/m² 17,5 °C 26,7 °C 3,2 km/h (1 Bft)
20.08.2024 19:08 23,6 °C 26,7 °C 58 % 58 % 1009,6 hPa 0,0 l/m² 1,7 km/h (1 Bft) SO 132 ° 0 min 47 W/m² 17,7 °C 26,7 °C 3,2 km/h (1 Bft)
20.08.2024 19:09 23,6 °C 26,7 °C 57 % 58 % 1009,6 hPa 0,0 l/m² 2,4 km/h (1 Bft) SO 132 ° 0 min 47 W/m² 17,7 °C 26,7 °C 3,2 km/h (1 Bft)
20.08.2024 19:10 23,6 °C 26,7 °C 58 % 57 % 1009,6 hPa 0,0 l/m² 2,8 km/h (1 Bft) SO 132 ° 0 min 49 W/m² 17,5 °C 26,7 °C 4,8 km/h (1 Bft)
20.08.2024 19:12 23,6 °C 26,6 °C 58 % 58 % 1009,5 hPa 0,0 l/m² 3,3 km/h (1 Bft) O-SO 121 ° 0 min 49 W/m² 17,6 °C 26,6 °C 4,8 km/h (1 Bft)
20.08.2024 19:13 23,6 °C 26,6 °C 58 % 58 % 1009,5 hPa 0,0 l/m² 4,1 km/h (1 Bft) S-SO 148 ° 0 min 47 W/m² 17,6 °C 26,6 °C 6,4 km/h (2 Bft)
20.08.2024 19:14 23,6 °C 26,6 °C 58 % 58 % 1009,5 hPa 0,0 l/m² 3,0 km/h (1 Bft) SO 144 ° 0 min 46 W/m² 17,6 °C 26,6 °C 4,8 km/h (1 Bft)
20.08.2024 19:15 23,6 °C 26,6 °C 58 % 58 % 1009,6 hPa 0,0 l/m² 2,5 km/h (1 Bft) SO 133 ° 0 min 42 W/m² 17,6 °C 26,6 °C 4,8 km/h (1 Bft)
20.08.2024 19:16 23,6 °C 26,6 °C 58 % 58 % 1009,5 hPa 0,0 l/m² 2,1 km/h (1 Bft) SO 133 ° 0 min 37 W/m² 17,6 °C 26,6 °C 4,8 km/h (1 Bft)
20.08.2024 19:17 23,6 °C 26,6 °C 58 % 58 % 1009,5 hPa 0,0 l/m² 1,7 km/h (1 Bft) SO 133 ° 0 min 35 W/m² 17,6 °C 26,6 °C 3,2 km/h (1 Bft)
20.08.2024 19:18 23,6 °C 26,5 °C 58 % 59 % 1009,6 hPa 0,0 l/m² 3,5 km/h (1 Bft) SO 132 ° 0 min 33 W/m² 17,8 °C 26,5 °C 4,8 km/h (1 Bft)
20.08.2024 19:19 23,6 °C 26,6 °C 58 % 58 % 1009,5 hPa 0,0 l/m² 3,6 km/h (1 Bft) SO 130 ° 0 min 32 W/m² 17,6 °C 26,6 °C 4,8 km/h (1 Bft)
20.08.2024 19:20 23,6 °C 26,5 °C 58 % 58 % 1009,6 hPa 0,0 l/m² 3,2 km/h (1 Bft) SO 135 ° 0 min 32 W/m² 17,5 °C 26,5 °C 4,8 km/h (1 Bft)
20.08.2024 19:21 23,6 °C 26,5 °C 58 % 59 % 1009,6 hPa 0,0 l/m² 3,4 km/h (1 Bft) SO 134 ° 0 min 32 W/m² 17,8 °C 26,5 °C 4,8 km/h (1 Bft)
20.08.2024 19:22 23,6 °C 26,4 °C 58 % 58 % 1009,6 hPa 0,0 l/m² 2,2 km/h (1 Bft) SO 134 ° 0 min 32 W/m² 17,5 °C 26,4 °C 3,2 km/h (1 Bft)
20.08.2024 19:23 23,6 °C 26,5 °C 58 % 58 % 1009,6 hPa 0,0 l/m² 2,6 km/h (1 Bft) SO 134 ° 0 min 32 W/m² 17,5 °C 26,5 °C 3,2 km/h (1 Bft)
20.08.2024 19:24 23,6 °C 26,4 °C 58 % 59 % 1009,5 hPa 0,0 l/m² 2,5 km/h (1 Bft) O 101 ° 0 min 32 W/m² 17,7 °C 26,4 °C 3,2 km/h (1 Bft)
20.08.2024 19:25 23,6 °C 26,4 °C 58 % 59 % 1009,6 hPa 0,0 l/m² 2,6 km/h (1 Bft) O 101 ° 0 min 30 W/m² 17,7 °C 26,4 °C 4,8 km/h (1 Bft)
20.08.2024 19:26 23,6 °C 26,4 °C 58 % 59 % 1009,6 hPa 0,0 l/m² 2,8 km/h (1 Bft) O 101 ° 0 min 30 W/m² 17,7 °C 26,4 °C 3,2 km/h (1 Bft)
20.08.2024 19:27 23,7 °C 26,4 °C 58 % 59 % 1009,6 hPa 0,0 l/m² 3,0 km/h (1 Bft) O 101 ° 0 min 30 W/m² 17,7 °C 26,4 °C 4,8 km/h (1 Bft)
20.08.2024 19:28 23,6 °C 26,3 °C 58 % 59 % 1009,6 hPa 0,0 l/m² 3,2 km/h (1 Bft) O-SO 105 ° 0 min 28 W/m² 17,6 °C 26,3 °C 4,8 km/h (1 Bft)
20.08.2024 19:29 23,6 °C 26,3 °C 58 % 59 % 1009,6 hPa 0,0 l/m² 2,3 km/h (1 Bft) O-SO 105 ° 0 min 28 W/m² 17,6 °C 26,3 °C 3,2 km/h (1 Bft)
20.08.2024 19:30 23,6 °C 26,3 °C 58 % 59 % 1009,6 hPa 0,0 l/m² 1,2 km/h (1 Bft) O-SO 105 ° 0 min 26 W/m² 17,6 °C 26,3 °C 3,2 km/h (1 Bft)
20.08.2024 19:31 23,7 °C 26,3 °C 58 % 60 % 1009,6 hPa 0,0 l/m² 1,5 km/h (1 Bft) O-SO 105 ° 0 min 26 W/m² 17,9 °C 26,3 °C 3,2 km/h (1 Bft)
20.08.2024 19:32 23,6 °C 26,3 °C 58 % 59 % 1009,6 hPa 0,0 l/m² 1,4 km/h (1 Bft) O-SO 105 ° 0 min 25 W/m² 17,6 °C 26,3 °C 3,2 km/h (1 Bft)
20.08.2024 19:33 23,6 °C 26,3 °C 58 % 60 % 1009,7 hPa 0,0 l/m² 0,9 km/h (0 Bft) O-SO 105 ° 0 min 25 W/m² 17,9 °C 26,3 °C 1,6 km/h (1 Bft)
20.08.2024 19:34 23,7 °C 26,3 °C 58 % 60 % 1009,7 hPa 0,0 l/m² 1,9 km/h (1 Bft) O-SO 106 ° 0 min 23 W/m² 17,9 °C 26,3 °C 3,2 km/h (1 Bft)
20.08.2024 19:35 23,7 °C 26,2 °C 58 % 60 % 1009,7 hPa 0,0 l/m² 1,7 km/h (1 Bft) O-SO 106 ° 0 min 23 W/m² 17,8 °C 26,2 °C 3,2 km/h (1 Bft)
20.08.2024 19:36 23,7 °C 26,2 °C 58 % 60 % 1009,6 hPa 0,0 l/m² 1,7 km/h (1 Bft) O-SO 106 ° 0 min 23 W/m² 17,8 °C 26,2 °C 3,2 km/h (1 Bft)
20.08.2024 19:37 23,7 °C 26,2 °C 58 % 60 % 1009,7 hPa 0,0 l/m² 1,2 km/h (1 Bft) O-SO 106 ° 0 min 23 W/m² 17,8 °C 26,2 °C 1,6 km/h (1 Bft)
20.08.2024 19:38 23,7 °C 26,2 °C 58 % 61 % 1009,7 hPa 0,0 l/m² 1,7 km/h (1 Bft) O-SO 106 ° 0 min 23 W/m² 18,1 °C 26,2 °C 3,2 km/h (1 Bft)
20.08.2024 19:39 23,7 °C 26,1 °C 58 % 61 % 1009,6 hPa 0,0 l/m² 2,0 km/h (1 Bft) O-SO 106 ° 0 min 23 W/m² 18,0 °C 26,1 °C 3,2 km/h (1 Bft)
20.08.2024 19:40 23,7 °C 26,1 °C 58 % 61 % 1009,6 hPa 0,0 l/m² 1,5 km/h (1 Bft) O-SO 106 ° 0 min 23 W/m² 18,0 °C 26,1 °C 3,2 km/h (1 Bft)
20.08.2024 19:41 23,7 °C 26,1 °C 58 % 62 % 1009,7 hPa 0,0 l/m² 2,0 km/h (1 Bft) O-SO 106 ° 0 min 23 W/m² 18,2 °C 26,1 °C 3,2 km/h (1 Bft)
20.08.2024 19:42 23,7 °C 26,0 °C 58 % 62 % 1009,7 hPa 0,0 l/m² 2,3 km/h (1 Bft) O-SO 106 ° 0 min 25 W/m² 18,1 °C 26,0 °C 3,2 km/h (1 Bft)
20.08.2024 19:43 23,7 °C 25,9 °C 58 % 62 % 1009,6 hPa 0,0 l/m² 2,1 km/h (1 Bft) O-SO 106 ° 0 min 26 W/m² 18,0 °C 25,9 °C 3,2 km/h (1 Bft)
20.08.2024 19:44 23,7 °C 25,9 °C 58 % 62 % 1009,7 hPa 0,0 l/m² 2,7 km/h (1 Bft) O-SO 106 ° 0 min 26 W/m² 18,0 °C 25,9 °C 3,2 km/h (1 Bft)
20.08.2024 19:45 23,7 °C 25,9 °C 58 % 62 % 1009,6 hPa 0,0 l/m² 2,4 km/h (1 Bft) O-SO 106 ° 0 min 26 W/m² 18,0 °C 25,9 °C 3,2 km/h (1 Bft)
20.08.2024 19:46 23,7 °C 25,8 °C 58 % 62 % 1009,7 hPa 0,0 l/m² 2,1 km/h (1 Bft) O-SO 106 ° 0 min 26 W/m² 18,0 °C 25,8 °C 3,2 km/h (1 Bft)
20.08.2024 19:47 23,7 °C 25,8 °C 58 % 62 % 1009,7 hPa 0,0 l/m² 2,5 km/h (1 Bft) O-SO 106 ° 0 min 26 W/m² 18,0 °C 25,8 °C 3,2 km/h (1 Bft)
20.08.2024 19:48 23,7 °C 25,8 °C 58 % 62 % 1009,7 hPa 0,0 l/m² 2,1 km/h (1 Bft) O-SO 106 ° 0 min 26 W/m² 18,0 °C 25,8 °C 3,2 km/h (1 Bft)
20.08.2024 19:49 23,7 °C 25,7 °C 58 % 63 % 1009,7 hPa 0,0 l/m² 2,1 km/h (1 Bft) O-SO 106 ° 0 min 26 W/m² 18,1 °C 25,7 °C 3,2 km/h (1 Bft)
20.08.2024 19:50 23,7 °C 25,7 °C 58 % 63 % 1009,7 hPa 0,0 l/m² 2,5 km/h (1 Bft) O-SO 106 ° 0 min 26 W/m² 18,1 °C 25,7 °C 3,2 km/h (1 Bft)
20.08.2024 19:51 23,7 °C 25,7 °C 58 % 64 % 1009,7 hPa 0,0 l/m² 3,0 km/h (1 Bft) O-SO 106 ° 0 min 25 W/m² 18,4 °C 25,7 °C 3,2 km/h (1 Bft)
20.08.2024 19:52 23,7 °C 25,7 °C 58 % 64 % 1009,7 hPa 0,0 l/m² 3,4 km/h (1 Bft) O-SO 105 ° 0 min 23 W/m² 18,4 °C 25,7 °C 4,8 km/h (1 Bft)
20.08.2024 19:53 23,7 °C 25,6 °C 58 % 64 % 1009,7 hPa 0,0 l/m² 4,1 km/h (1 Bft) O-SO 103 ° 0 min 23 W/m² 18,3 °C 25,6 °C 4,8 km/h (1 Bft)
20.08.2024 19:54 23,7 °C 25,6 °C 58 % 63 % 1009,7 hPa 0,0 l/m² 3,6 km/h (1 Bft) O-SO 107 ° 0 min 21 W/m² 18,0 °C 25,6 °C 4,8 km/h (1 Bft)
20.08.2024 19:55 23,7 °C 25,6 °C 58 % 64 % 1009,7 hPa 0,0 l/m² 3,4 km/h (1 Bft) O-SO 107 ° 0 min 21 W/m² 18,3 °C 25,6 °C 4,8 km/h (1 Bft)
20.08.2024 19:56 23,7 °C 25,5 °C 58 % 64 % 1009,7 hPa 0,0 l/m² 3,3 km/h (1 Bft) O-SO 107 ° 0 min 19 W/m² 18,2 °C 25,5 °C 4,8 km/h (1 Bft)
20.08.2024 19:57 23,7 °C 25,5 °C 59 % 64 % 1009,7 hPa 0,0 l/m² 3,5 km/h (1 Bft) O-SO 107 ° 0 min 18 W/m² 18,2 °C 25,5 °C 4,8 km/h (1 Bft)
20.08.2024 19:58 23,7 °C 25,5 °C 59 % 64 % 1009,6 hPa 0,0 l/m² 3,7 km/h (1 Bft) O-SO 107 ° 0 min 16 W/m² 18,2 °C 25,5 °C 4,8 km/h (1 Bft)
20.08.2024 19:59 23,7 °C 25,5 °C 59 % 63 % 1009,7 hPa 0,0 l/m² 3,2 km/h (1 Bft) O-SO 107 ° 0 min 16 W/m² 17,9 °C 25,5 °C 4,8 km/h (1 Bft)
20.08.2024 20:00 23,7 °C 25,4 °C 59 % 63 % 1009,7 hPa 0,0 l/m² 3,6 km/h (1 Bft) O-SO 105 ° 0 min 14 W/m² 17,8 °C 25,4 °C 4,8 km/h (1 Bft)
20.08.2024 20:01 23,7 °C 25,5 °C 59 % 63 % 1009,7 hPa 0,0 l/m² 3,4 km/h (1 Bft) O-SO 104 ° 0 min 14 W/m² 17,9 °C 25,5 °C 4,8 km/h (1 Bft)
20.08.2024 20:02 23,7 °C 25,4 °C 59 % 63 % 1009,7 hPa 0,0 l/m² 4,2 km/h (1 Bft) O-SO 103 ° 0 min 14 W/m² 17,8 °C 25,4 °C 4,8 km/h (1 Bft)
20.08.2024 20:03 23,7 °C 25,4 °C 59 % 64 % 1009,7 hPa 0,0 l/m² 3,8 km/h (1 Bft) O 101 ° 0 min 12 W/m² 18,1 °C 25,4 °C 4,8 km/h (1 Bft)
20.08.2024 20:04 23,7 °C 25,4 °C 59 % 64 % 1009,6 hPa 0,0 l/m² 3,9 km/h (1 Bft) O 101 ° 0 min 12 W/m² 18,1 °C 25,4 °C 4,8 km/h (1 Bft)
20.08.2024 20:05 23,7 °C 25,4 °C 59 % 64 % 1009,6 hPa 0,0 l/m² 4,3 km/h (1 Bft) O 101 ° 0 min 12 W/m² 18,1 °C 25,4 °C 4,8 km/h (1 Bft)
20.08.2024 20:06 23,7 °C 25,4 °C 59 % 65 % 1009,6 hPa 0,0 l/m² 3,8 km/h (1 Bft) O 101 ° 0 min 11 W/m² 18,3 °C 25,4 °C 4,8 km/h (1 Bft)
20.08.2024 20:07 23,7 °C 25,3 °C 59 % 66 % 1009,6 hPa 0,0 l/m² 3,7 km/h (1 Bft) O 101 ° 0 min 11 W/m² 18,5 °C 25,3 °C 4,8 km/h (1 Bft)
20.08.2024 20:08 23,7 °C 25,3 °C 59 % 67 % 1009,6 hPa 0,0 l/m² 3,8 km/h (1 Bft) O 101 ° 0 min 11 W/m² 18,7 °C 25,3 °C 4,8 km/h (1 Bft)
20.08.2024 20:09 23,7 °C 25,2 °C 59 % 67 % 1009,6 hPa 0,0 l/m² 3,5 km/h (1 Bft) O 101 ° 0 min 9 W/m² 18,6 °C 25,2 °C 4,8 km/h (1 Bft)
20.08.2024 20:10 23,7 °C 25,2 °C 59 % 67 % 1009,6 hPa 0,0 l/m² 4,1 km/h (1 Bft) O 101 ° 0 min 9 W/m² 18,6 °C 25,2 °C 4,8 km/h (1 Bft)
20.08.2024 20:11 23,7 °C 25,1 °C 59 % 67 % 1009,7 hPa 0,0 l/m² 4,3 km/h (1 Bft) O 101 ° 0 min 7 W/m² 18,5 °C 25,1 °C 4,8 km/h (1 Bft)
20.08.2024 20:12 23,7 °C 25,1 °C 59 % 67 % 1009,6 hPa 0,0 l/m² 4,0 km/h (1 Bft) O 101 ° 0 min 7 W/m² 18,5 °C 25,1 °C 4,8 km/h (1 Bft)
20.08.2024 20:13 23,8 °C 25,1 °C 59 % 66 % 1009,6 hPa 0,0 l/m² 3,3 km/h (1 Bft) O 101 ° 0 min 7 W/m² 18,3 °C 25,1 °C 4,8 km/h (1 Bft)
20.08.2024 20:14 23,7 °C 25,1 °C 59 % 66 % 1009,6 hPa 0,0 l/m² 3,1 km/h (1 Bft) O 101 ° 0 min 7 W/m² 18,3 °C 25,1 °C 4,8 km/h (1 Bft)
20.08.2024 20:15 23,8 °C 25,0 °C 59 % 67 % 1009,7 hPa 0,0 l/m² 3,0 km/h (1 Bft) O 101 ° 0 min 5 W/m² 18,4 °C 25,0 °C 4,8 km/h (1 Bft)
20.08.2024 20:17 23,8 °C 25,0 °C 59 % 67 % 1009,6 hPa 0,0 l/m² 3,3 km/h (1 Bft) O 101 ° 0 min 5 W/m² 18,4 °C 25,0 °C 4,8 km/h (1 Bft)
20.08.2024 20:18 23,8 °C 24,9 °C 59 % 67 % 1009,6 hPa 0,0 l/m² 3,2 km/h (1 Bft) O 101 ° 0 min 5 W/m² 18,3 °C 24,9 °C 4,8 km/h (1 Bft)
20.08.2024 20:19 23,7 °C 25,0 °C 59 % 67 % 1009,6 hPa 0,0 l/m² 2,6 km/h (1 Bft) O 101 ° 0 min 5 W/m² 18,4 °C 25,0 °C 3,2 km/h (1 Bft)
20.08.2024 20:20 23,7 °C 24,9 °C 59 % 67 % 1009,7 hPa 0,0 l/m² 3,3 km/h (1 Bft) O 101 ° 0 min 5 W/m² 18,3 °C 24,9 °C 4,8 km/h (1 Bft)
20.08.2024 20:21 23,7 °C 24,9 °C 59 % 67 % 1009,6 hPa 0,0 l/m² 3,9 km/h (1 Bft) O 101 ° 0 min 5 W/m² 18,3 °C 24,9 °C 4,8 km/h (1 Bft)
20.08.2024 20:22 23,7 °C 24,9 °C 59 % 67 % 1009,6 hPa 0,0 l/m² 3,6 km/h (1 Bft) O 101 ° 0 min 0 W/m² 18,3 °C 24,9 °C 4,8 km/h (1 Bft)
20.08.2024 20:23 23,7 °C 24,8 °C 59 % 67 % 1009,5 hPa 0,0 l/m² 4,0 km/h (1 Bft) O 101 ° 0 min 0 W/m² 18,2 °C 24,8 °C 4,8 km/h (1 Bft)
20.08.2024 20:24 23,7 °C 24,8 °C 59 % 68 % 1009,6 hPa 0,0 l/m² 4,3 km/h (1 Bft) O 101 ° 0 min 0 W/m² 18,5 °C 24,8 °C 4,8 km/h (1 Bft)
20.08.2024 20:25 23,7 °C 24,8 °C 59 % 68 % 1009,6 hPa 0,0 l/m² 3,5 km/h (1 Bft) O 101 ° 0 min 0 W/m² 18,5 °C 24,8 °C 4,8 km/h (1 Bft)
20.08.2024 20:26 23,7 °C 24,8 °C 59 % 68 % 1009,6 hPa 0,0 l/m² 4,0 km/h (1 Bft) O 101 ° 0 min 0 W/m² 18,5 °C 24,8 °C 4,8 km/h (1 Bft)
20.08.2024 20:27 23,7 °C 24,7 °C 59 % 68 % 1009,7 hPa 0,0 l/m² 3,6 km/h (1 Bft) O 101 ° 0 min 0 W/m² 18,4 °C 24,7 °C 4,8 km/h (1 Bft)
20.08.2024 20:28 23,7 °C 24,7 °C 59 % 68 % 1009,6 hPa 0,0 l/m² 3,5 km/h (1 Bft) O 101 ° 0 min 0 W/m² 18,4 °C 24,7 °C 4,8 km/h (1 Bft)
20.08.2024 20:29 23,7 °C 24,6 °C 59 % 69 % 1009,6 hPa 0,0 l/m² 3,6 km/h (1 Bft) O 101 ° 0 min 0 W/m² 18,5 °C 24,6 °C 4,8 km/h (1 Bft)
20.08.2024 20:30 23,7 °C 24,6 °C 59 % 69 % 1009,5 hPa 0,0 l/m² 3,5 km/h (1 Bft) O 101 ° 0 min 0 W/m² 18,5 °C 24,6 °C 4,8 km/h (1 Bft)
20.08.2024 20:31 23,7 °C 24,6 °C 59 % 69 % 1009,6 hPa 0,0 l/m² 3,1 km/h (1 Bft) O 101 ° 0 min 0 W/m² 18,5 °C 24,6 °C 3,2 km/h (1 Bft)
20.08.2024 20:32 23,7 °C 24,5 °C 59 % 70 % 1009,6 hPa 0,0 l/m² 2,7 km/h (1 Bft) O 101 ° 0 min 0 W/m² 18,7 °C 24,5 °C 3,2 km/h (1 Bft)
20.08.2024 20:33 23,7 °C 24,4 °C 59 % 70 % 1009,6 hPa 0,0 l/m² 2,7 km/h (1 Bft) O 101 ° 0 min 0 W/m² 18,6 °C 24,4 °C 3,2 km/h (1 Bft)
20.08.2024 20:34 23,7 °C 24,4 °C 59 % 70 % 1009,6 hPa 0,0 l/m² 2,7 km/h (1 Bft) O 101 ° 0 min 0 W/m² 18,6 °C 24,4 °C 3,2 km/h (1 Bft)
20.08.2024 20:35 23,7 °C 24,3 °C 59 % 71 % 1009,7 hPa 0,0 l/m² 3,0 km/h (1 Bft) O 101 ° 0 min 0 W/m² 18,7 °C 24,3 °C 3,2 km/h (1 Bft)
20.08.2024 20:36 23,7 °C 24,3 °C 59 % 71 % 1009,6 hPa 0,0 l/m² 2,6 km/h (1 Bft) O 101 ° 0 min 0 W/m² 18,7 °C 24,3 °C 3,2 km/h (1 Bft)
20.08.2024 20:37 23,7 °C 24,3 °C 59 % 71 % 1009,6 hPa 0,0 l/m² 2,1 km/h (1 Bft) O 101 ° 0 min 0 W/m² 18,7 °C 24,3 °C 3,2 km/h (1 Bft)
20.08.2024 20:38 23,7 °C 24,2 °C 59 % 71 % 1009,6 hPa 0,0 l/m² 1,9 km/h (1 Bft) O 101 ° 0 min 0 W/m² 18,6 °C 24,2 °C 3,2 km/h (1 Bft)
20.08.2024 20:39 23,7 °C 24,2 °C 59 % 72 % 1009,5 hPa 0,0 l/m² 2,4 km/h (1 Bft) O 101 ° 0 min 0 W/m² 18,8 °C 24,2 °C 3,2 km/h (1 Bft)
20.08.2024 20:40 23,7 °C 24,2 °C 59 % 72 % 1009,5 hPa 0,0 l/m² 2,9 km/h (1 Bft) O 101 ° 0 min 0 W/m² 18,8 °C 24,2 °C 3,2 km/h (1 Bft)
20.08.2024 20:41 23,7 °C 24,1 °C 59 % 72 % 1009,6 hPa 0,0 l/m² 2,4 km/h (1 Bft) O 101 ° 0 min 0 W/m² 18,7 °C 24,1 °C 3,2 km/h (1 Bft)
20.08.2024 20:42 23,7 °C 24,1 °C 59 % 72 % 1009,6 hPa 0,0 l/m² 2,7 km/h (1 Bft) O 101 ° 0 min 0 W/m² 18,7 °C 24,1 °C 3,2 km/h (1 Bft)
20.08.2024 20:43 23,7 °C 24,1 °C 59 % 73 % 1009,6 hPa 0,0 l/m² 2,2 km/h (1 Bft) O 101 ° 0 min 0 W/m² 18,9 °C 24,1 °C 3,2 km/h (1 Bft)
20.08.2024 20:44 23,7 °C 24,0 °C 59 % 73 % 1009,6 hPa 0,0 l/m² 1,3 km/h (1 Bft) O 101 ° 0 min 0 W/m² 18,9 °C 24,0 °C 1,6 km/h (1 Bft)
20.08.2024 20:45 23,7 °C 23,9 °C 59 % 73 % 1009,6 hPa 0,0 l/m² 1,1 km/h (1 Bft) O 101 ° 0 min 0 W/m² 18,8 °C 23,9 °C 1,6 km/h (1 Bft)
20.08.2024 20:46 23,7 °C 23,9 °C 59 % 74 % 1009,7 hPa 0,0 l/m² 1,5 km/h (1 Bft) O 101 ° 0 min 0 W/m² 19,0 °C 23,9 °C 1,6 km/h (1 Bft)
20.08.2024 20:47 23,7 °C 23,8 °C 59 % 74 % 1009,7 hPa 0,0 l/m² 0,6 km/h (0 Bft) O 101 ° 0 min 0 W/m² 18,9 °C 23,8 °C 1,6 km/h (1 Bft)
20.08.2024 20:48 23,7 °C 23,8 °C 59 % 74 % 1009,6 hPa 0,0 l/m² 0,7 km/h (0 Bft) O 101 ° 0 min 0 W/m² 18,9 °C 23,8 °C 1,6 km/h (1 Bft)
20.08.2024 20:49 23,7 °C 23,7 °C 59 % 74 % 1009,7 hPa 0,0 l/m² 0,3 km/h (0 Bft) O 101 ° 0 min 0 W/m² 18,8 °C 23,7 °C 1,6 km/h (1 Bft)
20.08.2024 20:50 23,7 °C 23,7 °C 60 % 74 % 1009,7 hPa 0,0 l/m² 1,4 km/h (1 Bft) O 101 ° 0 min 0 W/m² 18,8 °C 23,7 °C 1,6 km/h (1 Bft)
20.08.2024 20:51 23,7 °C 23,7 °C 59 % 74 % 1009,7 hPa 0,0 l/m² 1,5 km/h (1 Bft) O 101 ° 0 min 0 W/m² 18,8 °C 23,7 °C 3,2 km/h (1 Bft)
20.08.2024 20:52 23,7 °C 23,6 °C 59 % 74 % 1009,6 hPa 0,0 l/m² 1,5 km/h (1 Bft) O 101 ° 0 min 0 W/m² 18,7 °C 23,6 °C 1,6 km/h (1 Bft)
20.08.2024 20:53 23,7 °C 23,6 °C 60 % 74 % 1009,7 hPa 0,0 l/m² 1,6 km/h (1 Bft) O 101 ° 0 min 0 W/m² 18,7 °C 23,6 °C 3,2 km/h (1 Bft)
20.08.2024 20:54 23,7 °C 23,6 °C 60 % 74 % 1009,6 hPa 0,0 l/m² 2,4 km/h (1 Bft) O 101 ° 0 min 0 W/m² 18,7 °C 23,6 °C 3,2 km/h (1 Bft)
20.08.2024 20:55 23,7 °C 23,6 °C 60 % 74 % 1009,6 hPa 0,0 l/m² 3,0 km/h (1 Bft) O 101 ° 0 min 0 W/m² 18,7 °C 23,6 °C 3,2 km/h (1 Bft)
20.08.2024 20:56 23,7 °C 23,5 °C 60 % 74 % 1009,6 hPa 0,0 l/m² 3,2 km/h (1 Bft) O 101 ° 0 min 0 W/m² 18,6 °C 23,5 °C 3,2 km/h (1 Bft)
20.08.2024 20:57 23,7 °C 23,5 °C 60 % 75 % 1009,6 hPa 0,0 l/m² 2,3 km/h (1 Bft) O 101 ° 0 min 0 W/m² 18,8 °C 23,5 °C 3,2 km/h (1 Bft)
20.08.2024 20:58 23,7 °C 23,5 °C 60 % 75 % 1009,6 hPa 0,0 l/m² 2,5 km/h (1 Bft) O 101 ° 0 min 0 W/m² 18,8 °C 23,5 °C 3,2 km/h (1 Bft)
20.08.2024 20:59 23,7 °C 23,4 °C 60 % 75 % 1009,6 hPa 0,0 l/m² 2,3 km/h (1 Bft) O 101 ° 0 min 0 W/m² 18,7 °C 23,4 °C 3,2 km/h (1 Bft)
20.08.2024 21:00 23,7 °C 23,4 °C 60 % 76 % 1009,7 hPa 0,0 l/m² 1,6 km/h (1 Bft) O 101 ° 0 min 0 W/m² 18,9 °C 23,4 °C 3,2 km/h (1 Bft)
20.08.2024 21:01 23,7 °C 23,4 °C 60 % 76 % 1009,7 hPa 0,0 l/m² 1,0 km/h (0 Bft) O 101 ° 0 min 0 W/m² 18,9 °C 23,4 °C 1,6 km/h (1 Bft)
20.08.2024 21:02 23,7 °C 23,3 °C 60 % 76 % 1009,7 hPa 0,0 l/m² 1,5 km/h (1 Bft) O 101 ° 0 min 0 W/m² 18,8 °C 23,3 °C 1,6 km/h (1 Bft)
20.08.2024 21:03 23,7 °C 23,3 °C 60 % 76 % 1009,7 hPa 0,0 l/m² 1,0 km/h (0 Bft) O 101 ° 0 min 0 W/m² 18,8 °C 23,3 °C 1,6 km/h (1 Bft)
20.08.2024 21:04 23,7 °C 23,3 °C 60 % 76 % 1009,6 hPa 0,0 l/m² 0,0 km/h (0 Bft) O 101 ° 0 min 0 W/m² 18,8 °C 23,3 °C 0,0 km/h (0 Bft)
20.08.2024 21:05 23,7 °C 23,3 °C 60 % 77 % 1009,7 hPa 0,0 l/m² 0,0 km/h (0 Bft) O 101 ° 0 min 0 W/m² 19,0 °C 23,3 °C 0,0 km/h (0 Bft)
20.08.2024 21:06 23,7 °C 23,2 °C 60 % 77 % 1009,7 hPa 0,0 l/m² 0,0 km/h (0 Bft) O 101 ° 0 min 0 W/m² 18,9 °C 23,2 °C 0,0 km/h (0 Bft)
20.08.2024 21:07 23,7 °C 23,2 °C 60 % 77 % 1009,7 hPa 0,0 l/m² 0,0 km/h (0 Bft) O 101 ° 0 min 0 W/m² 18,9 °C 23,2 °C 0,0 km/h (0 Bft)
20.08.2024 21:08 23,7 °C 23,2 °C 60 % 77 % 1009,8 hPa 0,0 l/m² 0,0 km/h (0 Bft) O 101 ° 0 min 0 W/m² 18,9 °C 23,2 °C 0,0 km/h (0 Bft)
20.08.2024 21:09 23,7 °C 23,2 °C 60 % 77 % 1009,8 hPa 0,0 l/m² 0,0 km/h (0 Bft) O 101 ° 0 min 0 W/m² 18,9 °C 23,2 °C 0,0 km/h (0 Bft)
20.08.2024 21:10 23,7 °C 23,2 °C 60 % 77 % 1009,8 hPa 0,0 l/m² 0,0 km/h (0 Bft) O 101 ° 0 min 0 W/m² 18,9 °C 23,2 °C 0,0 km/h (0 Bft)
20.08.2024 21:11 23,7 °C 23,2 °C 60 % 77 % 1009,8 hPa 0,0 l/m² 0,0 km/h (0 Bft) O 101 ° 0 min 0 W/m² 18,9 °C 23,2 °C 0,0 km/h (0 Bft)
20.08.2024 21:12 23,7 °C 23,1 °C 60 % 77 % 1009,8 hPa 0,0 l/m² 0,0 km/h (0 Bft) O 101 ° 0 min 0 W/m² 18,8 °C 23,1 °C 0,0 km/h (0 Bft)
20.08.2024 21:13 23,7 °C 23,1 °C 60 % 77 % 1009,8 hPa 0,0 l/m² 0,0 km/h (0 Bft) O 101 ° 0 min 0 W/m² 18,8 °C 23,1 °C 0,0 km/h (0 Bft)
20.08.2024 21:14 23,7 °C 23,1 °C 60 % 77 % 1009,8 hPa 0,0 l/m² 0,0 km/h (0 Bft) O 101 ° 0 min 0 W/m² 18,8 °C 23,1 °C 0,0 km/h (0 Bft)
20.08.2024 21:15 23,7 °C 23,1 °C 60 % 76 % 1009,8 hPa 0,0 l/m² 0,0 km/h (0 Bft) O 101 ° 0 min 0 W/m² 18,6 °C 23,1 °C 0,0 km/h (0 Bft)
20.08.2024 21:16 23,7 °C 23,1 °C 60 % 76 % 1009,7 hPa 0,0 l/m² 0,0 km/h (0 Bft) O 101 ° 0 min 0 W/m² 18,6 °C 23,1 °C 0,0 km/h (0 Bft)
20.08.2024 21:17 23,7 °C 23,1 °C 60 % 75 % 1009,7 hPa 0,0 l/m² 0,0 km/h (0 Bft) O 101 ° 0 min 0 W/m² 18,4 °C 23,1 °C 0,0 km/h (0 Bft)
20.08.2024 21:18 23,7 °C 23,2 °C 60 % 75 % 1009,7 hPa 0,0 l/m² 0,0 km/h (0 Bft) O 101 ° 0 min 0 W/m² 18,5 °C 23,2 °C 0,0 km/h (0 Bft)
20.08.2024 21:19 23,7 °C 23,2 °C 60 % 75 % 1009,7 hPa 0,0 l/m² 0,0 km/h (0 Bft) O 101 ° 0 min 0 W/m² 18,5 °C 23,2 °C 0,0 km/h (0 Bft)
20.08.2024 21:20 23,7 °C 23,2 °C 60 % 76 % 1009,7 hPa 0,0 l/m² 0,0 km/h (0 Bft) O 101 ° 0 min 0 W/m² 18,7 °C 23,2 °C 0,0 km/h (0 Bft)
20.08.2024 21:21 23,7 °C 23,2 °C 60 % 76 % 1009,7 hPa 0,0 l/m² 0,0 km/h (0 Bft) O 101 ° 0 min 0 W/m² 18,7 °C 23,2 °C 0,0 km/h (0 Bft)
20.08.2024 21:22 23,7 °C 23,1 °C 60 % 77 % 1009,7 hPa 0,0 l/m² 0,0 km/h (0 Bft) O 101 ° 0 min 0 W/m² 18,8 °C 23,1 °C 0,0 km/h (0 Bft)
20.08.2024 21:23 23,7 °C 23,1 °C 60 % 77 % 1009,7 hPa 0,0 l/m² 0,0 km/h (0 Bft) O 101 ° 0 min 0 W/m² 18,8 °C 23,1 °C 0,0 km/h (0 Bft)
20.08.2024 21:24 23,7 °C 23,1 °C 60 % 78 % 1009,8 hPa 0,0 l/m² 0,0 km/h (0 Bft) O 101 ° 0 min 0 W/m² 19,0 °C 23,1 °C 0,0 km/h (0 Bft)
20.08.2024 21:25 23,7 °C 23,0 °C 60 % 78 % 1009,7 hPa 0,0 l/m² 0,0 km/h (0 Bft) O 101 ° 0 min 0 W/m² 18,9 °C 23,0 °C 0,0 km/h (0 Bft)
20.08.2024 21:26 23,7 °C 22,9 °C 60 % 78 % 1009,8 hPa 0,0 l/m² 0,0 km/h (0 Bft) O 101 ° 0 min 0 W/m² 18,9 °C 22,9 °C 0,0 km/h (0 Bft)
20.08.2024 21:27 23,7 °C 22,9 °C 60 % 78 % 1009,7 hPa 0,0 l/m² 1,3 km/h (1 Bft) O 101 ° 0 min 0 W/m² 18,9 °C 22,9 °C 3,2 km/h (1 Bft)
20.08.2024 21:28 23,7 °C 22,9 °C 60 % 78 % 1009,6 hPa 0,0 l/m² 2,1 km/h (1 Bft) O 101 ° 0 min 0 W/m² 18,9 °C 22,9 °C 3,2 km/h (1 Bft)
20.08.2024 21:29 23,8 °C 22,8 °C 60 % 78 % 1009,6 hPa 0,0 l/m² 2,0 km/h (1 Bft) O 101 ° 0 min 0 W/m² 18,8 °C 22,8 °C 3,2 km/h (1 Bft)
20.08.2024 21:30 23,7 °C 22,9 °C 60 % 78 % 1009,6 hPa 0,0 l/m² 1,9 km/h (1 Bft) O 101 ° 0 min 0 W/m² 18,9 °C 22,9 °C 3,2 km/h (1 Bft)
20.08.2024 21:31 23,7 °C 22,8 °C 60 % 78 % 1009,7 hPa 0,0 l/m² 2,1 km/h (1 Bft) O 101 ° 0 min 0 W/m² 18,8 °C 22,8 °C 3,2 km/h (1 Bft)
20.08.2024 21:32 23,7 °C 22,8 °C 60 % 78 % 1009,7 hPa 0,0 l/m² 1,4 km/h (1 Bft) O 101 ° 0 min 0 W/m² 18,8 °C 22,8 °C 3,2 km/h (1 Bft)
20.08.2024 21:33 23,7 °C 22,8 °C 60 % 78 % 1009,6 hPa 0,0 l/m² 1,7 km/h (1 Bft) O 101 ° 0 min 0 W/m² 18,8 °C 22,8 °C 3,2 km/h (1 Bft)
20.08.2024 21:34 23,7 °C 22,8 °C 60 % 77 % 1009,7 hPa 0,0 l/m² 1,9 km/h (1 Bft) O 101 ° 0 min 0 W/m² 18,5 °C 22,8 °C 3,2 km/h (1 Bft)
20.08.2024 21:35 23,7 °C 22,9 °C 60 % 76 % 1009,7 hPa 0,0 l/m² 0,6 km/h (0 Bft) O 101 ° 0 min 0 W/m² 18,4 °C 22,9 °C 1,6 km/h (1 Bft)
20.08.2024 21:36 23,8 °C 22,9 °C 60 % 76 % 1009,6 hPa 0,0 l/m² 0,2 km/h (0 Bft) O 101 ° 0 min 0 W/m² 18,4 °C 22,9 °C 1,6 km/h (1 Bft)
20.08.2024 21:37 23,7 °C 23,0 °C 60 % 76 % 1009,7 hPa 0,0 l/m² 0,0 km/h (0 Bft) O 101 ° 0 min 0 W/m² 18,5 °C 23,0 °C 0,0 km/h (0 Bft)
20.08.2024 21:38 23,7 °C 23,0 °C 60 % 76 % 1009,6 hPa 0,0 l/m² 0,0 km/h (0 Bft) O 101 ° 0 min 0 W/m² 18,5 °C 23,0 °C 0,0 km/h (0 Bft)
20.08.2024 21:39 23,8 °C 23,0 °C 60 % 77 % 1009,5 hPa 0,0 l/m² 0,0 km/h (0 Bft) O 101 ° 0 min 0 W/m² 18,7 °C 23,0 °C 0,0 km/h (0 Bft)
20.08.2024 21:40 23,7 °C 23,0 °C 60 % 77 % 1009,5 hPa 0,0 l/m² 0,0 km/h (0 Bft) O 101 ° 0 min 0 W/m² 18,7 °C 23,0 °C 0,0 km/h (0 Bft)
20.08.2024 21:41 23,7 °C 22,9 °C 60 % 77 % 1009,5 hPa 0,0 l/m² 0,0 km/h (0 Bft) O 101 ° 0 min 0 W/m² 18,6 °C 22,9 °C 0,0 km/h (0 Bft)
20.08.2024 21:42 23,7 °C 22,9 °C 60 % 77 % 1009,5 hPa 0,0 l/m² 0,0 km/h (0 Bft) O 101 ° 0 min 0 W/m² 18,6 °C 22,9 °C 0,0 km/h (0 Bft)
20.08.2024 21:43 23,7 °C 22,8 °C 60 % 77 % 1009,5 hPa 0,0 l/m² 0,0 km/h (0 Bft) O 101 ° 0 min 0 W/m² 18,5 °C 22,8 °C 0,0 km/h (0 Bft)
20.08.2024 21:44 23,7 °C 22,8 °C 60 % 78 % 1009,5 hPa 0,0 l/m² 0,0 km/h (0 Bft) O 101 ° 0 min 0 W/m² 18,8 °C 22,8 °C 0,0 km/h (0 Bft)
20.08.2024 21:46 23,7 °C 22,6 °C 60 % 79 % 1009,5 hPa 0,0 l/m² 0,0 km/h (0 Bft) O 101 ° 0 min 0 W/m² 18,8 °C 22,6 °C 0,0 km/h (0 Bft)
20.08.2024 21:47 23,7 °C 22,6 °C 60 % 79 % 1009,5 hPa 0,0 l/m² 0,0 km/h (0 Bft) O 101 ° 0 min 0 W/m² 18,8 °C 22,6 °C 0,0 km/h (0 Bft)
20.08.2024 21:48 23,7 °C 22,5 °C 60 % 79 % 1009,5 hPa 0,0 l/m² 0,0 km/h (0 Bft) O 101 ° 0 min 0 W/m² 18,7 °C 22,5 °C 0,0 km/h (0 Bft)
20.08.2024 21:49 23,7 °C 22,4 °C 60 % 79 % 1009,5 hPa 0,0 l/m² 0,0 km/h (0 Bft) O 101 ° 0 min 0 W/m² 18,6 °C 22,4 °C 0,0 km/h (0 Bft)
20.08.2024 21:50 23,7 °C 22,4 °C 60 % 79 % 1009,5 hPa 0,0 l/m² 0,0 km/h (0 Bft) O 101 ° 0 min 0 W/m² 18,6 °C 22,4 °C 0,0 km/h (0 Bft)
20.08.2024 21:51 23,7 °C 22,4 °C 60 % 79 % 1009,5 hPa 0,0 l/m² 0,0 km/h (0 Bft) O 101 ° 0 min 0 W/m² 18,6 °C 22,4 °C 0,0 km/h (0 Bft)
20.08.2024 21:52 23,7 °C 22,3 °C 60 % 80 % 1009,6 hPa 0,0 l/m² 0,0 km/h (0 Bft) O 101 ° 0 min 0 W/m² 18,7 °C 22,3 °C 0,0 km/h (0 Bft)
20.08.2024 21:53 23,7 °C 22,3 °C 60 % 80 % 1009,5 hPa 0,0 l/m² 0,0 km/h (0 Bft) O 101 ° 0 min 0 W/m² 18,7 °C 22,3 °C 0,0 km/h (0 Bft)
20.08.2024 21:54 23,7 °C 22,3 °C 60 % 80 % 1009,6 hPa 0,0 l/m² 0,0 km/h (0 Bft) O 101 ° 0 min 0 W/m² 18,7 °C 22,3 °C 0,0 km/h (0 Bft)
20.08.2024 21:55 23,7 °C 22,3 °C 60 % 80 % 1009,6 hPa 0,0 l/m² 0,0 km/h (0 Bft) O 101 ° 0 min 0 W/m² 18,7 °C 22,3 °C 0,0 km/h (0 Bft)
20.08.2024 21:56 23,7 °C 22,3 °C 60 % 80 % 1009,6 hPa 0,0 l/m² 0,0 km/h (0 Bft) O 101 ° 0 min 0 W/m² 18,7 °C 22,3 °C 0,0 km/h (0 Bft)
20.08.2024 21:57 23,7 °C 22,3 °C 60 % 80 % 1009,6 hPa 0,0 l/m² 0,0 km/h (0 Bft) O 101 ° 0 min 0 W/m² 18,7 °C 22,3 °C 0,0 km/h (0 Bft)
20.08.2024 21:58 23,7 °C 22,3 °C 60 % 80 % 1009,5 hPa 0,0 l/m² 0,0 km/h (0 Bft) O 101 ° 0 min 0 W/m² 18,7 °C 22,3 °C 0,0 km/h (0 Bft)
20.08.2024 21:59 23,7 °C 22,3 °C 60 % 80 % 1009,5 hPa 0,0 l/m² 0,0 km/h (0 Bft) O 101 ° 0 min 0 W/m² 18,7 °C 22,3 °C 0,0 km/h (0 Bft)
20.08.2024 22:00 23,7 °C 22,3 °C 60 % 80 % 1009,5 hPa 0,0 l/m² 0,0 km/h (0 Bft) O 101 ° 0 min 0 W/m² 18,7 °C 22,3 °C 0,0 km/h (0 Bft)
20.08.2024 22:01 23,7 °C 22,3 °C 60 % 80 % 1009,5 hPa 0,0 l/m² 0,0 km/h (0 Bft) O 101 ° 0 min 0 W/m² 18,7 °C 22,3 °C 0,0 km/h (0 Bft)
20.08.2024 22:02 23,7 °C 22,3 °C 60 % 80 % 1009,5 hPa 0,0 l/m² 0,0 km/h (0 Bft) O 101 ° 0 min 0 W/m² 18,7 °C 22,3 °C 0,0 km/h (0 Bft)
20.08.2024 22:03 23,7 °C 22,3 °C 60 % 80 % 1009,5 hPa 0,0 l/m² 0,0 km/h (0 Bft) O 101 ° 0 min 0 W/m² 18,7 °C 22,3 °C 0,0 km/h (0 Bft)
20.08.2024 22:04 23,7 °C 22,3 °C 60 % 80 % 1009,5 hPa 0,0 l/m² 0,0 km/h (0 Bft) O 101 ° 0 min 0 W/m² 18,7 °C 22,3 °C 0,0 km/h (0 Bft)
20.08.2024 22:05 23,8 °C 22,4 °C 60 % 80 % 1009,5 hPa 0,0 l/m² 0,0 km/h (0 Bft) O 101 ° 0 min 0 W/m² 18,8 °C 22,4 °C 0,0 km/h (0 Bft)
20.08.2024 22:06 23,8 °C 22,4 °C 60 % 80 % 1009,4 hPa 0,0 l/m² 0,0 km/h (0 Bft) O 101 ° 0 min 0 W/m² 18,8 °C 22,4 °C 0,0 km/h (0 Bft)
20.08.2024 22:07 23,7 °C 22,4 °C 60 % 80 % 1009,5 hPa 0,0 l/m² 0,0 km/h (0 Bft) O 101 ° 0 min 0 W/m² 18,8 °C 22,4 °C 0,0 km/h (0 Bft)
20.08.2024 22:08 23,7 °C 22,4 °C 60 % 80 % 1009,5 hPa 0,0 l/m² 0,0 km/h (0 Bft) O 101 ° 0 min 0 W/m² 18,8 °C 22,4 °C 0,0 km/h (0 Bft)
20.08.2024 22:09 23,7 °C 22,4 °C 60 % 80 % 1009,4 hPa 0,0 l/m² 0,0 km/h (0 Bft) O 101 ° 0 min 0 W/m² 18,8 °C 22,4 °C 0,0 km/h (0 Bft)
20.08.2024 22:10 23,8 °C 22,4 °C 60 % 80 % 1009,4 hPa 0,0 l/m² 0,0 km/h (0 Bft) O 101 ° 0 min 0 W/m² 18,8 °C 22,4 °C 0,0 km/h (0 Bft)
20.08.2024 22:11 23,8 °C 22,4 °C 60 % 80 % 1009,4 hPa 0,0 l/m² 0,0 km/h (0 Bft) O 101 ° 0 min 0 W/m² 18,8 °C 22,4 °C 0,0 km/h (0 Bft)
20.08.2024 22:12 23,7 °C 22,4 °C 60 % 80 % 1009,4 hPa 0,0 l/m² 0,1 km/h (0 Bft) O 101 ° 0 min 0 W/m² 18,8 °C 22,4 °C 1,6 km/h (1 Bft)
20.08.2024 22:13 23,7 °C 22,4 °C 60 % 80 % 1009,4 hPa 0,0 l/m² 0,3 km/h (0 Bft) O 101 ° 0 min 0 W/m² 18,8 °C 22,4 °C 1,6 km/h (1 Bft)
20.08.2024 22:14 23,7 °C 22,4 °C 60 % 80 % 1009,3 hPa 0,0 l/m² 0,0 km/h (0 Bft) O 101 ° 0 min 0 W/m² 18,8 °C 22,4 °C 0,0 km/h (0 Bft)
20.08.2024 22:15 23,7 °C 22,3 °C 60 % 80 % 1009,4 hPa 0,0 l/m² 0,0 km/h (0 Bft) O 101 ° 0 min 0 W/m² 18,7 °C 22,3 °C 0,0 km/h (0 Bft)
20.08.2024 22:16 23,7 °C 22,3 °C 60 % 80 % 1009,3 hPa 0,0 l/m² 0,0 km/h (0 Bft) O 101 ° 0 min 0 W/m² 18,7 °C 22,3 °C 0,0 km/h (0 Bft)
20.08.2024 22:17 23,7 °C 22,3 °C 60 % 80 % 1009,3 hPa 0,0 l/m² 0,0 km/h (0 Bft) O 101 ° 0 min 0 W/m² 18,7 °C 22,3 °C 0,0 km/h (0 Bft)
20.08.2024 22:18 23,7 °C 22,3 °C 60 % 80 % 1009,3 hPa 0,0 l/m² 0,1 km/h (0 Bft) O 101 ° 0 min 0 W/m² 18,7 °C 22,3 °C 1,6 km/h (1 Bft)
20.08.2024 22:19 23,7 °C 22,3 °C 60 % 81 % 1009,3 hPa 0,0 l/m² 0,9 km/h (0 Bft) O 101 ° 0 min 0 W/m² 18,9 °C 22,3 °C 1,6 km/h (1 Bft)
20.08.2024 22:20 23,8 °C 22,3 °C 60 % 81 % 1009,3 hPa 0,0 l/m² 0,0 km/h (0 Bft) O 101 ° 0 min 0 W/m² 18,9 °C 22,3 °C 0,0 km/h (0 Bft)
20.08.2024 22:21 23,7 °C 22,2 °C 60 % 81 % 1009,3 hPa 0,0 l/m² 0,0 km/h (0 Bft) O 101 ° 0 min 0 W/m² 18,8 °C 22,2 °C 0,0 km/h (0 Bft)
20.08.2024 22:22 23,8 °C 22,2 °C 60 % 82 % 1009,3 hPa 0,0 l/m² 0,0 km/h (0 Bft) O 101 ° 0 min 0 W/m² 19,0 °C 22,2 °C 0,0 km/h (0 Bft)
20.08.2024 22:23 23,7 °C 22,2 °C 60 % 82 % 1009,3 hPa 0,0 l/m² 0,0 km/h (0 Bft) O 101 ° 0 min 0 W/m² 19,0 °C 22,2 °C 0,0 km/h (0 Bft)
20.08.2024 22:24 23,7 °C 22,2 °C 60 % 82 % 1009,3 hPa 0,0 l/m² 0,0 km/h (0 Bft) O 101 ° 0 min 0 W/m² 19,0 °C 22,2 °C 0,0 km/h (0 Bft)
20.08.2024 22:25 23,7 °C 22,2 °C 60 % 82 % 1009,4 hPa 0,0 l/m² 0,0 km/h (0 Bft) O 101 ° 0 min 0 W/m² 19,0 °C 22,2 °C 0,0 km/h (0 Bft)
20.08.2024 22:26 23,7 °C 22,2 °C 60 % 82 % 1009,3 hPa 0,0 l/m² 0,0 km/h (0 Bft) O 101 ° 0 min 0 W/m² 19,0 °C 22,2 °C 0,0 km/h (0 Bft)
20.08.2024 22:27 23,7 °C 22,1 °C 60 % 82 % 1009,3 hPa 0,0 l/m² 0,0 km/h (0 Bft) O 101 ° 0 min 0 W/m² 18,9 °C 22,1 °C 0,0 km/h (0 Bft)
20.08.2024 22:28 23,7 °C 22,1 °C 60 % 82 % 1009,3 hPa 0,0 l/m² 0,0 km/h (0 Bft) O 101 ° 0 min 0 W/m² 18,9 °C 22,1 °C 0,0 km/h (0 Bft)
20.08.2024 22:29 23,7 °C 22,1 °C 60 % 82 % 1009,3 hPa 0,0 l/m² 0,0 km/h (0 Bft) O 101 ° 0 min 0 W/m² 18,9 °C 22,1 °C 0,0 km/h (0 Bft)
20.08.2024 22:30 23,7 °C 22,1 °C 60 % 82 % 1009,3 hPa 0,0 l/m² 0,0 km/h (0 Bft) O 101 ° 0 min 0 W/m² 18,9 °C 22,1 °C 0,0 km/h (0 Bft)
20.08.2024 22:31 23,7 °C 22,1 °C 60 % 82 % 1009,3 hPa 0,0 l/m² 0,0 km/h (0 Bft) O 101 ° 0 min 0 W/m² 18,9 °C 22,1 °C 0,0 km/h (0 Bft)
20.08.2024 22:32 23,7 °C 22,1 °C 61 % 82 % 1009,2 hPa 0,0 l/m² 0,0 km/h (0 Bft) O 101 ° 0 min 0 W/m² 18,9 °C 22,1 °C 0,0 km/h (0 Bft)
20.08.2024 22:33 23,7 °C 22,1 °C 61 % 83 % 1009,2 hPa 0,0 l/m² 0,0 km/h (0 Bft) O 101 ° 0 min 0 W/m² 19,1 °C 22,1 °C 0,0 km/h (0 Bft)
20.08.2024 22:34 23,7 °C 22,1 °C 61 % 83 % 1009,3 hPa 0,0 l/m² 0,0 km/h (0 Bft) O 101 ° 0 min 0 W/m² 19,1 °C 22,1 °C 0,0 km/h (0 Bft)
20.08.2024 22:35 23,7 °C 22,1 °C 61 % 83 % 1009,2 hPa 0,0 l/m² 0,0 km/h (0 Bft) O 101 ° 0 min 0 W/m² 19,1 °C 22,1 °C 0,0 km/h (0 Bft)
20.08.2024 22:36 23,7 °C 22,1 °C 61 % 83 % 1009,2 hPa 0,0 l/m² 0,0 km/h (0 Bft) O 101 ° 0 min 0 W/m² 19,1 °C 22,1 °C 0,0 km/h (0 Bft)
20.08.2024 22:37 23,7 °C 22,1 °C 61 % 83 % 1009,1 hPa 0,0 l/m² 0,0 km/h (0 Bft) O 101 ° 0 min 0 W/m² 19,1 °C 22,1 °C 0,0 km/h (0 Bft)
20.08.2024 22:38 23,7 °C 22,1 °C 61 % 83 % 1009,2 hPa 0,0 l/m² 0,0 km/h (0 Bft) O 101 ° 0 min 0 W/m² 19,1 °C 22,1 °C 0,0 km/h (0 Bft)
20.08.2024 22:39 23,7 °C 22,1 °C 61 % 83 % 1009,2 hPa 0,0 l/m² 0,0 km/h (0 Bft) O 101 ° 0 min 0 W/m² 19,1 °C 22,1 °C 0,0 km/h (0 Bft)
20.08.2024 22:40 23,7 °C 22,1 °C 61 % 84 % 1009,1 hPa 0,0 l/m² 0,0 km/h (0 Bft) O 101 ° 0 min 0 W/m² 19,3 °C 22,1 °C 0,0 km/h (0 Bft)
20.08.2024 22:41 23,7 °C 22,1 °C 61 % 84 % 1009,1 hPa 0,0 l/m² 0,0 km/h (0 Bft) O 101 ° 0 min 0 W/m² 19,3 °C 22,1 °C 0,0 km/h (0 Bft)
20.08.2024 22:42 23,7 °C 22,1 °C 61 % 84 % 1009,2 hPa 0,0 l/m² 0,0 km/h (0 Bft) O 101 ° 0 min 0 W/m² 19,3 °C 22,1 °C 0,0 km/h (0 Bft)
20.08.2024 22:43 23,7 °C 22,1 °C 61 % 84 % 1009,1 hPa 0,0 l/m² 0,0 km/h (0 Bft) O 101 ° 0 min 0 W/m² 19,3 °C 22,1 °C 0,0 km/h (0 Bft)
20.08.2024 22:44 23,7 °C 22,1 °C 61 % 84 % 1009,1 hPa 0,0 l/m² 0,0 km/h (0 Bft) O 101 ° 0 min 0 W/m² 19,3 °C 22,1 °C 0,0 km/h (0 Bft)
20.08.2024 22:45 23,7 °C 22,1 °C 61 % 84 % 1009,1 hPa 0,0 l/m² 0,0 km/h (0 Bft) O 101 ° 0 min 0 W/m² 19,3 °C 22,1 °C 0,0 km/h (0 Bft)
20.08.2024 22:46 23,7 °C 22,1 °C 61 % 84 % 1009,1 hPa 0,0 l/m² 0,0 km/h (0 Bft) O 101 ° 0 min 0 W/m² 19,3 °C 22,1 °C 0,0 km/h (0 Bft)
20.08.2024 22:47 23,7 °C 22,1 °C 61 % 84 % 1009,1 hPa 0,0 l/m² 0,0 km/h (0 Bft) O 101 ° 0 min 0 W/m² 19,3 °C 22,1 °C 0,0 km/h (0 Bft)
20.08.2024 22:48 23,7 °C 22,0 °C 61 % 84 % 1009,1 hPa 0,0 l/m² 0,0 km/h (0 Bft) O 101 ° 0 min 0 W/m² 19,2 °C 22,0 °C 0,0 km/h (0 Bft)
20.08.2024 22:49 23,7 °C 22,0 °C 61 % 84 % 1009,2 hPa 0,0 l/m² 0,0 km/h (0 Bft) O 101 ° 0 min 0 W/m² 19,2 °C 22,0 °C 0,0 km/h (0 Bft)
20.08.2024 22:50 23,7 °C 22,0 °C 61 % 84 % 1009,1 hPa 0,0 l/m² 0,0 km/h (0 Bft) O 101 ° 0 min 0 W/m² 19,2 °C 22,0 °C 0,0 km/h (0 Bft)
20.08.2024 22:51 23,7 °C 22,0 °C 61 % 84 % 1009,1 hPa 0,0 l/m² 0,0 km/h (0 Bft) O 101 ° 0 min 0 W/m² 19,2 °C 22,0 °C 0,0 km/h (0 Bft)
20.08.2024 22:52 23,7 °C 21,9 °C 61 % 84 % 1009,0 hPa 0,0 l/m² 0,0 km/h (0 Bft) O 101 ° 0 min 0 W/m² 19,1 °C 21,9 °C 0,0 km/h (0 Bft)
20.08.2024 22:53 23,7 °C 21,9 °C 61 % 84 % 1009,1 hPa 0,0 l/m² 0,0 km/h (0 Bft) O 101 ° 0 min 0 W/m² 19,1 °C 21,9 °C 0,0 km/h (0 Bft)
20.08.2024 22:54 23,7 °C 21,9 °C 61 % 84 % 1009,1 hPa 0,0 l/m² 0,0 km/h (0 Bft) O 101 ° 0 min 0 W/m² 19,1 °C 21,9 °C 0,0 km/h (0 Bft)
20.08.2024 22:55 23,7 °C 21,9 °C 61 % 84 % 1009,1 hPa 0,0 l/m² 0,0 km/h (0 Bft) O 101 ° 0 min 0 W/m² 19,1 °C 21,9 °C 0,0 km/h (0 Bft)
20.08.2024 22:56 23,7 °C 21,8 °C 61 % 84 % 1009,0 hPa 0,0 l/m² 0,0 km/h (0 Bft) O 101 ° 0 min 0 W/m² 19,0 °C 21,8 °C 0,0 km/h (0 Bft)
20.08.2024 22:57 23,6 °C 21,8 °C 61 % 84 % 1009,0 hPa 0,0 l/m² 0,7 km/h (0 Bft) O 101 ° 0 min 0 W/m² 19,0 °C 21,8 °C 1,6 km/h (1 Bft)
20.08.2024 22:58 23,7 °C 21,8 °C 61 % 84 % 1009,1 hPa 0,0 l/m² 0,2 km/h (0 Bft) O 101 ° 0 min 0 W/m² 19,0 °C 21,8 °C 1,6 km/h (1 Bft)
20.08.2024 22:59 23,7 °C 21,8 °C 61 % 84 % 1009,1 hPa 0,0 l/m² 0,4 km/h (0 Bft) O 101 ° 0 min 0 W/m² 19,0 °C 21,8 °C 1,6 km/h (1 Bft)
20.08.2024 23:00 23,7 °C 21,8 °C 61 % 84 % 1009,1 hPa 0,0 l/m² 0,1 km/h (0 Bft) O 101 ° 0 min 0 W/m² 19,0 °C 21,8 °C 1,6 km/h (1 Bft)
20.08.2024 23:01 23,6 °C 21,8 °C 61 % 84 % 1009,1 hPa 0,0 l/m² 2,7 km/h (1 Bft) S-SW 198 ° 0 min 0 W/m² 19,0 °C 21,8 °C 6,4 km/h (2 Bft)
20.08.2024 23:02 23,6 °C 21,8 °C 61 % 84 % 1009,3 hPa 0,0 l/m² 9,3 km/h (2 Bft) SW 224 ° 0 min 0 W/m² 19,0 °C 20,8 °C 11,3 km/h (2 Bft)
20.08.2024 23:03 23,7 °C 21,8 °C 61 % 84 % 1009,3 hPa 0,0 l/m² 8,1 km/h (2 Bft) SW 220 ° 0 min 0 W/m² 19,0 °C 21,2 °C 9,7 km/h (2 Bft)
20.08.2024 23:04 23,7 °C 21,8 °C 61 % 84 % 1009,3 hPa 0,0 l/m² 10,6 km/h (2 Bft) S-SW 211 ° 0 min 0 W/m² 19,0 °C 20,5 °C 16,1 km/h (3 Bft)
20.08.2024 23:05 23,6 °C 21,7 °C 61 % 82 % 1009,2 hPa 0,0 l/m² 13,8 km/h (3 Bft) S-SW 213 ° 0 min 0 W/m² 18,5 °C 19,6 °C 17,7 km/h (3 Bft)
20.08.2024 23:06 23,7 °C 21,8 °C 61 % 82 % 1009,3 hPa 0,0 l/m² 8,6 km/h (2 Bft) SW 214 ° 0 min 0 W/m² 18,6 °C 21,0 °C 11,3 km/h (2 Bft)
20.08.2024 23:07 23,7 °C 21,9 °C 61 % 81 % 1009,3 hPa 0,0 l/m² 9,6 km/h (2 Bft) SW 221 ° 0 min 0 W/m² 18,5 °C 20,9 °C 14,5 km/h (3 Bft)
20.08.2024 23:08 23,6 °C 21,9 °C 61 % 80 % 1009,2 hPa 0,0 l/m² 8,8 km/h (2 Bft) S-SW 209 ° 0 min 0 W/m² 18,3 °C 21,1 °C 11,3 km/h (2 Bft)
20.08.2024 23:09 23,6 °C 22,1 °C 61 % 79 % 1009,2 hPa 0,0 l/m² 8,2 km/h (2 Bft) SW 214 ° 0 min 0 W/m² 18,3 °C 21,5 °C 11,3 km/h (2 Bft)
20.08.2024 23:10 23,6 °C 22,2 °C 61 % 79 % 1009,2 hPa 0,0 l/m² 9,7 km/h (2 Bft) SW 217 ° 0 min 0 W/m² 18,4 °C 21,2 °C 12,9 km/h (3 Bft)
20.08.2024 23:11 23,6 °C 22,3 °C 61 % 78 % 1009,2 hPa 0,0 l/m² 8,1 km/h (2 Bft) SW 219 ° 0 min 0 W/m² 18,3 °C 21,7 °C 9,7 km/h (2 Bft)
20.08.2024 23:12 23,7 °C 22,4 °C 61 % 78 % 1009,2 hPa 0,0 l/m² 9,6 km/h (2 Bft) S-SW 213 ° 0 min 0 W/m² 18,4 °C 21,4 °C 11,3 km/h (2 Bft)
20.08.2024 23:13 23,6 °C 22,4 °C 61 % 77 % 1009,3 hPa 0,0 l/m² 8,7 km/h (2 Bft) S-SW 210 ° 0 min 0 W/m² 18,2 °C 21,7 °C 11,3 km/h (2 Bft)
20.08.2024 23:14 23,6 °C 22,6 °C 61 % 77 % 1009,2 hPa 0,0 l/m² 8,4 km/h (2 Bft) SW 217 ° 0 min 0 W/m² 18,4 °C 22,0 °C 11,3 km/h (2 Bft)
20.08.2024 23:15 23,6 °C 22,7 °C 61 % 76 % 1009,2 hPa 0,0 l/m² 8,9 km/h (2 Bft) S-SW 211 ° 0 min 0 W/m² 18,2 °C 21,9 °C 9,7 km/h (2 Bft)
20.08.2024 23:16 23,6 °C 22,7 °C 61 % 76 % 1009,3 hPa 0,0 l/m² 9,7 km/h (2 Bft) SW 225 ° 0 min 0 W/m² 18,2 °C 21,7 °C 12,9 km/h (3 Bft)
20.08.2024 23:17 23,6 °C 22,7 °C 61 % 76 % 1009,2 hPa 0,0 l/m² 9,7 km/h (2 Bft) SW 225 ° 0 min 0 W/m² 18,2 °C 21,7 °C 11,3 km/h (2 Bft)
20.08.2024 23:18 23,6 °C 22,8 °C 61 % 75 % 1009,3 hPa 0,0 l/m² 9,7 km/h (2 Bft) SW 225 ° 0 min 0 W/m² 18,1 °C 21,8 °C 12,9 km/h (3 Bft)
20.08.2024 23:19 23,6 °C 22,9 °C 61 % 75 % 1009,3 hPa 0,0 l/m² 9,7 km/h (2 Bft) SW 225 ° 0 min 0 W/m² 18,2 °C 21,9 °C 9,7 km/h (2 Bft)
20.08.2024 23:20 23,6 °C 22,9 °C 61 % 75 % 1009,3 hPa 0,0 l/m² 8,0 km/h (2 Bft) S-SW 202 ° 0 min 0 W/m² 18,2 °C 22,4 °C 11,3 km/h (2 Bft)
20.08.2024 23:26 23,6 °C 23,1 °C 61 % 74 % 1009,2 hPa 0,0 l/m² 9,0 km/h (2 Bft) S-SW 213 ° 0 min 0 W/m² 18,2 °C 22,3 °C 9,7 km/h (2 Bft)
20.08.2024 23:28 23,6 °C 23,1 °C 61 % 74 % 1009,2 hPa 0,0 l/m² 9,3 km/h (2 Bft) S-SW 211 ° 0 min 0 W/m² 18,2 °C 22,2 °C 11,3 km/h (2 Bft)
20.08.2024 23:29 23,6 °C 23,1 °C 61 % 74 % 1009,2 hPa 0,0 l/m² 7,7 km/h (2 Bft) SW 219 ° 0 min 0 W/m² 18,2 °C 22,7 °C 9,7 km/h (2 Bft)
20.08.2024 23:31 23,6 °C 23,1 °C 61 % 74 % 1009,2 hPa 0,0 l/m² 8,2 km/h (2 Bft) SW 215 ° 0 min 0 W/m² 18,2 °C 22,5 °C 11,3 km/h (2 Bft)
20.08.2024 23:32 23,6 °C 23,1 °C 61 % 74 % 1009,2 hPa 0,0 l/m² 11,2 km/h (2 Bft) SW 217 ° 0 min 0 W/m² 18,2 °C 21,8 °C 14,5 km/h (3 Bft)
20.08.2024 23:34 23,6 °C 23,2 °C 61 % 74 % 1009,2 hPa 0,0 l/m² 10,9 km/h (2 Bft) SW 215 ° 0 min 0 W/m² 18,3 °C 22,0 °C 14,5 km/h (3 Bft)
20.08.2024 23:36 23,6 °C 23,1 °C 61 % 74 % 1009,1 hPa 0,0 l/m² 7,9 km/h (2 Bft) SW 216 ° 0 min 0 W/m² 18,2 °C 22,6 °C 9,7 km/h (2 Bft)
20.08.2024 23:38 23,6 °C 23,1 °C 61 % 74 % 1009,1 hPa 0,0 l/m² 7,1 km/h (2 Bft) SW 214 ° 0 min 0 W/m² 18,2 °C 22,9 °C 9,7 km/h (2 Bft)
20.08.2024 23:40 23,6 °C 23,1 °C 61 % 74 % 1009,1 hPa 0,0 l/m² 6,7 km/h (2 Bft) SW 220 ° 0 min 0 W/m² 18,2 °C 23,0 °C 9,7 km/h (2 Bft)
20.08.2024 23:41 23,6 °C 23,1 °C 61 % 74 % 1009,2 hPa 0,0 l/m² 7,7 km/h (2 Bft) SW 221 ° 0 min 0 W/m² 18,2 °C 22,7 °C 11,3 km/h (2 Bft)
20.08.2024 23:42 23,6 °C 23,1 °C 61 % 74 % 1009,2 hPa 0,0 l/m² 5,9 km/h (2 Bft) SW 224 ° 0 min 0 W/m² 18,2 °C 23,1 °C 6,4 km/h (2 Bft)
20.08.2024 23:45 23,6 °C 23,1 °C 61 % 74 % 1009,1 hPa 0,0 l/m² 4,8 km/h (1 Bft) SW 223 ° 0 min 0 W/m² 18,2 °C 23,1 °C 8,0 km/h (2 Bft)
20.08.2024 23:47 23,6 °C 23,0 °C 61 % 74 % 1009,2 hPa 0,0 l/m² 5,0 km/h (1 Bft) S-SW 202 ° 0 min 0 W/m² 18,1 °C 23,0 °C 8,0 km/h (2 Bft)
20.08.2024 23:49 23,6 °C 23,1 °C 61 % 74 % 1009,1 hPa 0,0 l/m² 5,0 km/h (1 Bft) SW 217 ° 0 min 0 W/m² 18,2 °C 23,1 °C 6,4 km/h (2 Bft)
20.08.2024 23:50 23,6 °C 23,0 °C 61 % 74 % 1009,2 hPa 0,0 l/m² 4,7 km/h (1 Bft) SW 217 ° 0 min 0 W/m² 18,1 °C 23,0 °C 6,4 km/h (2 Bft)
20.08.2024 23:51 23,6 °C 23,0 °C 61 % 75 % 1009,1 hPa 0,0 l/m² 3,6 km/h (1 Bft) SW 217 ° 0 min 0 W/m² 18,3 °C 23,0 °C 4,8 km/h (1 Bft)
20.08.2024 23:52 23,6 °C 23,0 °C 61 % 75 % 1009,1 hPa 0,0 l/m² 2,6 km/h (1 Bft) SW 217 ° 0 min 0 W/m² 18,3 °C 23,0 °C 4,8 km/h (1 Bft)
20.08.2024 23:55 23,6 °C 22,9 °C 61 % 74 % 1009,1 hPa 0,0 l/m² 3,2 km/h (1 Bft) SW 219 ° 0 min 0 W/m² 18,0 °C 22,9 °C 4,8 km/h (1 Bft)
20.08.2024 23:56 23,6 °C 22,9 °C 61 % 74 % 1009,1 hPa 0,0 l/m² 5,7 km/h (2 Bft) SW 217 ° 0 min 0 W/m² 18,0 °C 22,9 °C 8,0 km/h (2 Bft)
20.08.2024 23:57 23,6 °C 22,9 °C 61 % 74 % 1009,1 hPa 0,0 l/m² 3,4 km/h (1 Bft) SW 219 ° 0 min 0 W/m² 18,0 °C 22,9 °C 4,8 km/h (1 Bft)
20.08.2024 23:58 23,6 °C 22,9 °C 61 % 75 % 1009,1 hPa 0,0 l/m² 4,0 km/h (1 Bft) SW 219 ° 0 min 0 W/m² 18,2 °C 22,9 °C 4,8 km/h (1 Bft)
_ Min-Zeit 07:04 06:44 06:46 15:56 22:57 - 22:56 - - - - 06:44 06:44 22:56
Minimum _ 22,8 °C 10,4 °C 49 % 49 % 1009,0 hPa - 0,0 km/h (0 Bft) - - - - 9,3 °C 10,4 °C 0,0 km/h (0 Bft)
_ Max-Zeit 22:22 16:42 23:58 07:30 00:09 23:58 14:54 - - 18:46 12:08 22:47 16:40 14:54
Maximum _ 23,8 °C 28,7 °C 61 % 94 % 1018,4 hPa 0,0 l/m² 16,9 km/h
O-SO (3 Bft)
- - 2 min 1041 W/m² 19,3 °C 28,6 °C 24,1 km/h
O (4 Bft)
Durchschnitt _ 23,4 °C 20,2 °C 56 % 73 % 1013,7 hPa #0,0 l/m² 3,6 km/h (1 Bft) O - #11:35 h 241 W/m² 14,6 °C 20,0 °C 5,5 km/h (2 Bft)
© 2009 Mathias Hoßbach